[[{"header":{"parameterUnit":"m.s-1","parameterCategory":1,"la1":30.6,"la2":29.2853,"lo1":-89.7004,"lo2":-87.6739,"dy":0.0162,"dx":0.0183,"nx":112,"ny":82,"refTime":"2024-02-26T18:00:00:Z","depth":0,"parameterNumber":2,"parameterNumberName":"U-component_of_WINDS"},"data":[0.0,0.0,0.0,0.0,0.0,0.0,0.0,0.0,0.0,0.0,0.0,0.0,0.0,0.0,0.0,0.0,0.0,0.0,0.0,0.0,0.0,0.0,0.0,0.0,0.0,0.0,0.0,0.0,0.0,0.0,0.0,0.0,0.0,0.0,0.0,0.0,0.0,0.0,0.0,0.0,0.0,0.0,0.0,0.0,0.0,0.0,0.0,0.0,0.0,0.0,0.0,0.0,0.0,0.0,0.0,0.0,0.0,0.0,0.0,0.0,0.0,0.0,0.0,0.0,0.0,0.0,0.0,0.0,0.0,0.0,0.0,0.0,0.0,0.0,0.0,0.0,0.0,0.0,0.0,0.0,0.0,0.0,0.0,0.0,0.0,0.0,0.0,0.0,0.0,0.0,-1.1121,-1.1618,-1.2376,-1.2863,-1.29,-1.3085,-1.3155,-1.3021,0.0,0.0,0.0,0.0,0.0,0.0,0.0,0.0,0.0,0.0,0.0,0.0,0.0,0.0,0.0,0.0,0.0,0.0,0.0,0.0,0.0,0.0,0.0,0.0,0.0,0.0,0.0,0.0,0.0,0.0,0.0,0.0,0.0,0.0,0.0,0.0,0.0,0.0,0.0,0.0,0.0,0.0,0.0,0.0,0.0,0.0,0.0,0.0,0.0,0.0,0.0,0.0,0.0,0.0,0.0,0.0,0.0,0.0,0.0,0.0,0.0,0.0,0.0,0.0,0.0,0.0,0.0,0.0,0.0,0.0,0.0,0.0,0.0,0.0,0.0,0.0,0.0,0.0,0.0,0.0,0.0,0.0,0.0,0.0,0.0,0.0,0.0,0.0,0.0,0.0,0.0,0.0,0.0,0.0,0.0,0.0,0.0,0.0,0.0,0.0,0.0,0.0,0.0,0.0,-1.123,-1.1875,-1.2352,-1.2709,-1.29,-1.2828,-1.2862,-1.2979,0.0,0.0,0.0,0.0,0.0,0.0,0.0,0.0,0.0,0.0,0.0,0.0,0.0,0.0,0.0,0.0,0.0,0.0,0.0,0.0,0.0,0.0,0.0,0.0,0.0,0.0,0.0,0.0,0.0,0.0,0.0,0.0,0.0,0.0,0.0,0.0,0.0,0.0,0.0,0.0,0.0,0.0,0.0,0.0,0.0,0.0,0.0,0.0,0.0,0.0,0.0,0.0,0.0,0.0,0.0,0.0,0.0,0.0,0.0,0.0,0.0,0.0,0.0,0.0,0.0,0.0,0.0,0.0,0.0,0.0,0.0,0.0,0.0,0.0,0.0,0.0,0.0,0.0,0.0,0.0,0.0,0.0,0.0,0.0,0.0,0.0,0.0,0.0,0.0,0.0,0.0,0.0,0.0,0.0,0.0,0.0,0.0,0.0,0.0,0.0,0.0,0.0,0.0,-1.1092,-1.153,-1.1953,-1.2378,-1.2673,-1.2863,-1.2948,-1.2947,-1.2893,-1.2887,0.0,0.0,0.0,0.0,0.0,0.0,0.0,0.0,0.0,0.0,0.0,0.0,0.0,0.0,0.0,0.0,0.0,0.0,0.0,0.0,0.0,0.0,0.0,0.0,0.0,0.0,0.0,0.0,0.0,0.0,0.0,0.0,0.0,0.0,0.0,0.0,0.0,0.0,0.0,0.0,0.0,0.0,0.0,0.0,0.0,0.0,0.0,0.0,0.0,0.0,0.0,0.0,0.0,0.0,0.0,0.0,0.0,0.0,0.0,0.0,0.0,0.0,0.0,0.0,0.0,0.0,0.0,0.0,0.0,0.0,0.0,0.0,0.0,0.0,0.0,0.0,0.0,0.0,0.0,0.0,0.0,0.0,0.0,0.0,0.0,0.0,0.0,0.0,0.0,0.0,0.0,0.0,0.0,0.0,0.0,0.0,0.0,0.0,0.0,0.0,0.0,0.0,-1.1389,-1.1706,-1.1892,-1.2268,-1.2562,-1.2826,-1.301,-1.3064,-1.2851,-1.2908,0.0,0.0,0.0,0.0,0.0,0.0,0.0,0.0,0.0,0.0,0.0,0.0,0.0,0.0,0.0,0.0,0.0,0.0,0.0,0.0,0.0,0.0,0.0,0.0,0.0,0.0,0.0,0.0,0.0,0.0,0.0,0.0,0.0,0.0,0.0,0.0,0.0,0.0,0.0,0.0,0.0,0.0,0.0,0.0,0.0,0.0,0.0,0.0,0.0,0.0,0.0,0.0,0.0,0.0,0.0,0.0,0.0,0.0,0.0,0.0,0.0,0.0,0.0,0.0,0.0,0.0,0.0,0.0,0.0,0.0,0.0,0.0,0.0,0.0,0.0,0.0,0.0,0.0,0.0,0.0,0.0,0.0,0.0,0.0,0.0,0.0,0.0,0.0,0.0,0.0,0.0,0.0,0.0,0.0,0.0,0.0,0.0,0.0,0.0,0.0,0.0,0.0,-1.1285,-1.1484,-1.1706,-1.1892,-1.2187,-1.2599,-1.2826,-1.2941,-1.2994,-1.2865,0.0,0.0,0.0,0.0,0.0,0.0,0.0,0.0,0.0,0.0,0.0,0.0,0.0,0.0,0.0,0.0,0.0,0.0,0.0,0.0,0.0,0.0,0.0,0.0,0.0,0.0,0.0,0.0,0.0,0.0,0.0,0.0,0.0,0.0,0.0,0.0,0.0,0.0,0.0,0.0,0.0,0.0,0.0,0.0,0.0,0.0,0.0,0.0,0.0,0.0,0.0,0.0,0.0,0.0,0.0,0.0,0.0,0.0,0.0,0.0,0.0,0.0,0.0,0.0,0.0,0.0,0.0,0.0,0.0,0.0,0.0,0.0,0.0,0.0,0.0,0.0,0.0,0.0,0.0,0.0,0.0,0.0,0.0,0.0,0.0,0.0,0.0,0.0,0.0,0.0,0.0,0.0,0.0,0.0,0.0,0.0,0.0,0.0,0.0,0.0,0.0,0.0,-1.1298,-1.1446,0.0,-1.1818,-1.2114,-1.2378,-1.2599,-1.2731,-1.2812,0.0,0.0,0.0,0.0,0.0,0.0,0.0,0.0,0.0,0.0,0.0,0.0,0.0,0.0,0.0,0.0,0.0,0.0,0.0,0.0,0.0,0.0,0.0,0.0,0.0,0.0,0.0,0.0,0.0,0.0,0.0,0.0,0.0,0.0,0.0,0.0,0.0,0.0,0.0,0.0,0.0,0.0,0.0,0.0,0.0,0.0,0.0,0.0,0.0,0.0,0.0,0.0,0.0,0.0,0.0,0.0,0.0,0.0,0.0,0.0,0.0,0.0,0.0,0.0,0.0,0.0,0.0,0.0,0.0,0.0,0.0,0.0,0.0,0.0,0.0,0.0,0.0,0.0,0.0,0.0,0.0,0.0,0.0,0.0,0.0,0.0,0.0,0.0,0.0,0.0,0.0,0.0,0.0,0.0,0.0,0.0,0.0,0.0,0.0,0.0,0.0,0.0,-1.0975,-1.1186,-1.1335,0.0,-1.1706,-1.2003,-1.2194,-1.2452,-1.2663,-1.2778,0.0,0.0,0.0,0.0,0.0,0.0,0.0,0.0,0.0,0.0,0.0,0.0,0.0,0.0,0.0,0.0,0.0,0.0,0.0,0.0,0.0,0.0,0.0,0.0,0.0,0.0,0.0,0.0,0.0,0.0,0.0,0.0,0.0,0.0,0.0,0.0,0.0,0.0,0.0,0.0,0.0,0.0,0.0,0.0,0.0,0.0,0.0,0.0,0.0,0.0,0.0,0.0,0.0,0.0,0.0,0.0,0.0,0.0,0.0,0.0,0.0,0.0,0.0,0.0,0.0,0.0,0.0,0.0,0.0,0.0,0.0,0.0,0.0,0.0,0.0,0.0,0.0,0.0,0.0,0.0,0.0,0.0,0.0,0.0,0.0,0.0,0.0,0.0,0.0,0.0,0.0,0.0,0.0,0.0,0.0,0.0,0.0,0.0,0.0,0.0,0.0,0.0,-1.0812,-1.0968,-1.1192,-1.1378,-1.1564,-1.1787,-1.1972,-1.2378,-1.2673,0.0,0.0,0.0,0.0,0.0,0.0,0.0,0.0,0.0,0.0,0.0,0.0,0.0,0.0,0.0,0.0,0.0,0.0,0.0,0.0,0.0,0.0,0.0,0.0,0.0,0.0,0.0,0.0,0.0,0.0,0.0,0.0,0.0,0.0,0.0,0.0,0.0,0.0,0.0,0.0,0.0,0.0,0.0,0.0,0.0,0.0,0.0,0.0,0.0,0.0,0.0,0.0,0.0,0.0,0.0,0.0,0.0,0.0,0.0,0.0,0.0,0.0,0.0,0.0,0.0,0.0,0.0,0.0,0.0,0.0,0.0,0.0,0.0,0.0,0.0,0.0,0.0,0.0,0.0,0.0,0.0,0.0,0.0,0.0,0.0,0.0,0.0,0.0,0.0,0.0,0.0,0.0,0.0,0.0,0.0,0.0,0.0,0.0,0.0,0.0,0.0,0.0,0.0,-1.0775,-1.1021,-1.1254,-1.1445,-1.1637,-1.1866,-1.2056,-1.2127,-1.2335,-1.2673,0.0,0.0,0.0,0.0,0.0,0.0,0.0,0.0,0.0,0.0,0.0,0.0,0.0,0.0,0.0,0.0,0.0,0.0,0.0,0.0,0.0,0.0,0.0,0.0,0.0,0.0,0.0,0.0,0.0,0.0,0.0,0.0,0.0,0.0,0.0,0.0,0.0,0.0,0.0,0.0,0.0,0.0,0.0,0.0,0.0,0.0,0.0,0.0,0.0,0.0,0.0,0.0,0.0,0.0,0.0,0.0,0.0,0.0,0.0,0.0,0.0,0.0,0.0,0.0,0.0,0.0,0.0,0.0,0.0,0.0,0.0,0.0,0.0,0.0,0.0,0.0,0.0,0.0,0.0,0.0,0.0,0.0,0.0,0.0,0.0,0.0,0.0,0.0,0.0,0.0,0.0,0.0,0.0,0.0,0.0,0.0,0.0,0.0,0.0,0.0,0.0,0.0,-1.0699,-1.1008,-1.1304,-1.1522,-1.1802,-1.1955,-1.1965,-1.21,-1.2245,-1.2459,0.0,0.0,0.0,0.0,0.0,0.0,0.0,0.0,0.0,0.0,0.0,0.0,0.0,0.0,0.0,0.0,0.0,0.0,0.0,0.0,0.0,0.0,0.0,0.0,0.0,0.0,0.0,0.0,0.0,0.0,0.0,0.0,0.0,0.0,0.0,0.0,0.0,0.0,0.0,0.0,0.0,0.0,0.0,0.0,0.0,0.0,0.0,0.0,0.0,0.0,0.0,0.0,0.0,0.0,0.0,0.0,0.0,0.0,0.0,0.0,0.0,0.0,0.0,0.0,0.0,0.0,0.0,0.0,0.0,0.0,0.0,0.0,0.0,0.0,0.0,0.0,0.0,0.0,0.0,0.0,0.0,0.0,0.0,0.0,0.0,0.0,0.0,0.0,0.0,0.0,0.0,0.0,0.0,0.0,0.0,0.0,0.0,0.0,0.0,0.0,0.0,0.0,-1.0573,-1.0952,-1.1303,-1.1611,-1.1956,-1.2098,-1.1897,-1.2177,-1.2342,-1.2321,0.0,0.0,0.0,0.0,0.0,0.0,0.0,0.0,0.0,0.0,0.0,0.0,0.0,0.0,0.0,0.0,0.0,0.0,0.0,0.0,0.0,0.0,0.0,0.0,0.0,0.0,0.0,0.0,0.0,0.0,0.0,0.0,0.0,0.0,0.0,0.0,0.0,0.0,0.0,0.0,0.0,0.0,0.0,0.0,0.0,0.0,0.0,0.0,0.0,0.0,0.0,0.0,0.0,0.0,0.0,0.0,0.0,0.0,0.0,0.0,-0.9799,0.0,0.0,0.0,0.0,0.0,0.0,0.0,0.0,0.0,0.0,0.0,0.0,0.0,0.0,0.0,0.0,0.0,0.0,0.0,0.0,0.0,0.0,0.0,0.0,0.0,0.0,0.0,0.0,0.0,0.0,0.0,0.0,0.0,0.0,0.0,0.0,0.0,0.0,0.0,0.0,0.0,-1.0556,-1.1008,-1.143,-1.1858,-1.1981,-1.2169,-1.2394,-1.2124,-1.2049,-1.2368,-1.2048,0.0,0.0,0.0,0.0,0.0,0.0,0.0,0.0,0.0,0.0,0.0,0.0,0.0,0.0,0.0,0.0,0.0,0.0,0.0,0.0,0.0,0.0,0.0,0.0,0.0,0.0,0.0,0.0,0.0,0.0,0.0,0.0,0.0,0.0,0.0,0.0,0.0,0.0,0.0,0.0,0.0,0.0,0.0,0.0,0.0,0.0,0.0,0.0,0.0,0.0,0.0,0.0,0.0,0.0,0.0,0.0,0.0,0.0,0.0,0.0,-0.9991,0.0,0.0,0.0,0.0,0.0,0.0,0.0,0.0,0.0,0.0,0.0,0.0,0.0,0.0,0.0,0.0,0.0,0.0,0.0,0.0,0.0,0.0,0.0,0.0,0.0,0.0,0.0,0.0,0.0,0.0,0.0,0.0,0.0,0.0,0.0,0.0,0.0,0.0,0.0,0.0,-1.0772,-1.1079,-1.1444,-1.1826,-1.1922,-1.208,-1.2283,-1.2146,-1.2076,-1.2126,-1.2097,0.0,0.0,0.0,0.0,0.0,0.0,0.0,0.0,0.0,0.0,0.0,0.0,0.0,0.0,0.0,0.0,0.0,0.0,0.0,0.0,0.0,0.0,0.0,0.0,0.0,0.0,0.0,0.0,0.0,0.0,0.0,0.0,0.0,0.0,0.0,0.0,0.0,0.0,0.0,0.0,0.0,0.0,0.0,0.0,0.0,0.0,0.0,0.0,0.0,0.0,0.0,0.0,0.0,-1.0063,-1.0098,-1.0133,-1.0388,-1.0471,-1.0466,-1.0589,-1.0562,-1.0336,-1.0132,0.0,0.0,0.0,0.0,0.0,0.0,0.0,0.0,0.0,0.0,0.0,0.0,0.0,0.0,0.0,0.0,0.0,0.0,0.0,0.0,0.0,0.0,-1.0233,-1.0233,-1.007,-0.9888,-0.99,0.0,0.0,0.0,0.0,0.0,0.0,0.0,0.0,0.0,0.0,0.0,-1.0914,-1.1146,-1.1382,-1.1677,-1.1871,-1.1952,-1.1986,-1.2135,-1.2107,-1.1825,-1.2138,-1.2117,0.0,0.0,0.0,0.0,0.0,0.0,0.0,0.0,0.0,0.0,0.0,0.0,0.0,0.0,0.0,0.0,0.0,0.0,0.0,0.0,0.0,0.0,0.0,0.0,0.0,0.0,0.0,0.0,0.0,0.0,0.0,0.0,-0.7774,-0.7763,0.0,0.0,0.0,0.0,0.0,0.0,0.0,0.0,0.0,0.0,0.0,0.0,0.0,-0.9368,-0.9368,-0.9802,-1.0072,-1.0254,-1.067,-1.0954,-1.1131,-1.1131,-1.1177,-1.1166,-1.1023,0.0,-1.0549,-1.0517,0.0,0.0,0.0,0.0,0.0,0.0,0.0,0.0,0.0,0.0,0.0,0.0,0.0,0.0,0.0,0.0,0.0,0.0,0.0,0.0,0.0,0.0,-0.9948,-0.9948,-0.9907,-0.9887,0.0,-0.9898,-0.9898,-0.9898,-0.9898,0.0,0.0,0.0,0.0,0.0,0.0,0.0,-1.0643,-1.1043,-1.1402,-1.165,-1.1699,-1.1811,-1.1992,-1.2032,-1.1981,-1.189,-1.1889,-1.1702,-1.139,-1.1546,0.0,0.0,0.0,0.0,0.0,0.0,0.0,0.0,0.0,0.0,0.0,0.0,0.0,0.0,0.0,0.0,0.0,0.0,0.0,0.0,0.0,0.0,0.0,0.0,0.0,0.0,0.0,0.0,0.0,-0.7824,-0.794,-0.7925,-0.8081,-0.8222,0.0,0.0,0.0,0.0,0.0,0.0,0.0,0.0,0.0,-0.9578,-0.9719,-0.9807,-0.9807,-1.0165,-1.0389,-1.0481,-1.0668,-1.0806,-1.0893,-1.1032,-1.1078,-1.1068,-1.1161,-1.1089,-1.0963,-1.0574,-1.0346,-1.0192,0.0,0.0,0.0,0.0,-1.0192,-1.0192,-1.0192,-1.0192,-1.0192,-1.0192,0.0,0.0,0.0,0.0,0.0,0.0,0.0,-1.016,-1.0248,-1.0288,-1.0322,-1.044,-1.0382,-1.0294,-1.0294,-1.0294,-1.024,0.0,-0.9907,-0.9943,-1.0109,0.0,0.0,0.0,0.0,-1.0665,-1.0665,-1.0935,-1.1181,-1.1267,-1.1397,-1.157,-1.1828,-1.1813,-1.1889,-1.1957,-1.1896,-1.177,-1.1602,-1.1465,-1.1391,0.0,0.0,0.0,0.0,0.0,0.0,0.0,0.0,0.0,0.0,0.0,0.0,0.0,0.0,0.0,0.0,0.0,0.0,0.0,0.0,0.0,0.0,0.0,0.0,0.0,0.0,0.0,0.0,-0.7909,-0.8067,-0.7996,-0.8057,-0.8147,0.0,0.0,0.0,0.0,0.0,0.0,-0.9212,-0.9269,-0.9399,-0.9778,-0.9972,-1.0111,-1.0111,-1.0343,-1.051,-1.0562,-1.0655,-1.0683,-1.0777,-1.0918,-1.0965,-1.1007,-1.114,-1.1208,-1.1169,-1.071,-1.0431,-1.0238,-1.0238,-1.0238,-1.0238,-1.0238,-1.0238,-1.0238,-1.0238,-1.0238,-1.0238,-1.0238,-1.0201,-1.0159,-1.0159,0.0,0.0,0.0,0.0,-1.0394,-1.0563,-1.0592,-1.0653,-1.0808,-1.0709,-1.0621,-1.0621,-1.0621,-1.0481,0.0,-1.0031,-1.0087,-1.0288,0.0,0.0,0.0,0.0,-1.0598,-1.0598,-1.0781,-1.0959,-1.1008,-1.1138,-1.1311,-1.157,-1.1656,-1.1722,-1.1833,-1.1887,-1.1838,-1.1662,-1.1515,-1.1446,-1.1443,0.0,0.0,0.0,0.0,0.0,0.0,0.0,0.0,0.0,0.0,0.0,0.0,0.0,0.0,0.0,0.0,0.0,0.0,0.0,0.0,0.0,0.0,0.0,0.0,0.0,0.0,0.0,0.0,0.0,-0.8012,-0.817,0.0,0.0,0.0,0.0,-0.9077,-0.909,-0.9191,-0.9389,-0.9389,-0.9537,-0.9786,-0.9833,-0.9833,-0.9833,-1.0111,-1.0304,-1.05,-1.0739,-1.0976,-1.1161,-1.1165,-1.1165,-1.1205,-1.101,-1.0925,-1.0958,-1.1179,-1.1253,-1.1237,-1.1237,-1.1237,-1.1237,-1.1237,-1.1237,-1.1237,-1.1237,-1.1237,-1.1237,-1.1237,-1.1059,-1.0825,-1.0825,-1.0738,0.0,0.0,-1.0564,-1.0573,-1.0588,-1.0597,-1.0607,-1.0616,-1.0621,-1.0621,-1.0621,-1.0621,-1.0607,0.0,-1.0403,-1.0274,-1.0284,0.0,-1.0024,-1.0033,-1.0212,-1.0337,-1.0337,-1.0554,-1.0776,-1.0965,-1.1008,-1.1094,-1.1305,-1.157,-1.1594,-1.1333,-1.1762,-1.174,-1.1241,-1.1581,-1.1552,-1.1055,-1.1209,0.0,0.0,0.0,0.0,0.0,0.0,0.0,0.0,0.0,0.0,0.0,0.0,0.0,0.0,0.0,0.0,0.0,0.0,0.0,0.0,0.0,0.0,0.0,0.0,0.0,0.0,0.0,0.0,-0.8046,-0.8203,0.0,-0.839,-0.8586,-0.8783,-0.8851,-0.8999,-0.9192,-0.9397,-0.9468,-0.9632,-0.9842,-1.0162,-1.033,-1.033,-1.0525,-1.0711,-1.0782,-1.1084,-1.1277,-1.1341,-1.1494,-1.1595,-1.159,-1.152,-1.1487,-1.1482,-1.1601,-1.1298,-1.0847,-1.0847,-1.0847,-1.0847,-1.0847,-1.0847,-1.0847,-1.0847,-1.0847,-1.0847,-1.0847,-1.0801,-1.0709,-1.0709,-1.0662,-1.0621,-1.0621,-1.0621,-1.0654,-1.0745,-1.0783,-1.0816,-1.0943,-1.0976,-1.0976,-1.0976,-1.0976,-1.0976,-1.0976,-1.0702,-1.0512,-1.0512,-1.0445,-1.0398,-1.0398,-1.0443,-1.0484,-1.0484,-1.071,-1.0845,-1.094,-1.1083,-1.1222,-1.131,-1.1391,-1.1488,-1.1566,-1.1537,-1.1528,-1.1468,-1.1433,-1.1366,-1.132,-1.136,-1.1312,0.0,0.0,0.0,0.0,0.0,0.0,0.0,0.0,0.0,0.0,0.0,0.0,0.0,0.0,0.0,0.0,0.0,0.0,0.0,0.0,0.0,0.0,0.0,0.0,0.0,-0.7786,-0.7953,-0.8162,-0.8231,-0.8316,-0.8419,-0.8613,-0.8766,-0.8823,-0.9127,-0.936,-0.9472,-0.9692,-0.986,-0.9973,-1.0306,-1.0473,-1.0473,-1.0677,-1.0781,-1.0781,-1.1092,-1.1248,-1.1248,-1.1507,-1.1662,-1.1662,-1.1766,-1.1817,-1.1817,-1.1817,-1.1491,-1.0986,-1.092,-1.0891,-1.0886,-1.0811,-1.0783,-1.0783,-1.0783,-1.0783,-1.0783,-1.0783,-1.0783,-1.0783,-1.0783,-1.0783,-1.0797,-1.0872,-1.0891,-1.0943,-1.1151,-1.1208,-1.1241,-1.1373,-1.1406,-1.1406,-1.1406,-1.135,-1.1302,-1.1302,-1.0967,-1.0683,-1.0683,-1.0622,-1.0621,-1.0621,-1.0621,-1.0621,-1.0621,-1.0709,-1.0801,-1.0888,-1.104,-1.1181,-1.1271,-1.1292,-1.138,-1.156,-1.1497,-1.1447,-1.1483,-1.1376,-1.1395,-1.1549,-1.1548,-1.1459,-1.1324,0.0,0.0,0.0,0.0,0.0,0.0,0.0,0.0,0.0,0.0,0.0,0.0,0.0,0.0,0.0,0.0,0.0,0.0,0.0,0.0,0.0,0.0,0.0,-0.7757,-0.7967,-0.8131,-0.8286,-0.8312,-0.8383,-0.8598,-0.8712,-0.8872,-0.9075,-0.9442,-0.969,-0.969,-1.0008,-1.0168,-1.0168,-1.0228,-1.0233,-1.0233,-1.0489,-1.0594,-1.0594,-1.0798,-1.0897,-1.0897,-1.1266,-1.1421,-1.1421,-1.1681,-1.1784,-1.1784,-1.1836,-1.1836,-1.1817,-1.1609,-1.1529,-1.1505,-1.1293,-1.1217,-1.1217,-1.1217,-1.1217,-1.1217,-1.1217,-1.1217,-1.1217,-1.1217,-1.1217,-1.1255,-1.1468,-1.1529,-1.1572,-1.1765,-1.1817,-1.1817,-1.1817,-1.1817,-1.1817,-1.1817,-1.1666,-1.1529,-1.1529,-1.1203,-1.092,-1.091,-1.0731,-1.064,-1.064,-1.064,0.0,-1.064,-1.064,-1.0681,-1.0913,-1.0908,-1.099,-1.1272,-1.1297,-1.1303,-1.1297,-1.1532,-1.1551,-1.1297,-1.1483,-1.157,-1.1605,-1.1712,-1.1675,-1.1397,0.0,0.0,0.0,0.0,0.0,0.0,0.0,0.0,0.0,0.0,0.0,0.0,0.0,0.0,0.0,0.0,0.0,0.0,0.0,0.0,0.0,-0.7484,-0.7569,-0.7663,-0.7788,-0.7938,-0.8045,-0.8212,-0.8341,-0.8491,-0.8756,-0.8906,-0.8949,-0.925,-0.9433,-0.9433,-0.9806,-1.0028,-1.0028,-1.0369,-1.0546,-1.0546,-1.0654,-1.0654,-1.0708,-1.092,-1.1028,-1.1082,-1.141,-1.1572,-1.1572,-1.1836,-1.1949,-1.1944,-1.2159,-1.2212,-1.218,-1.1874,-1.1737,-1.1728,-1.1666,-1.1647,-1.1647,-1.1647,-1.1647,-1.1647,-1.1647,-1.1647,-1.1647,-1.1647,-1.1647,-1.1657,-1.1718,-1.1737,-1.1746,-1.1803,-1.1817,-1.1817,-1.1817,-1.1817,-1.1817,-1.1817,-1.1775,-1.1737,-1.1737,-1.1642,-1.1468,-1.1165,-1.1061,-1.1023,-1.1023,-1.1023,0.0,-1.1023,-1.1023,-1.1072,-1.112,-1.1129,-1.1132,-1.1226,-1.1256,-1.1288,-1.1308,-1.1373,-1.1363,-1.13,-1.1368,-1.1365,-1.1324,-1.1529,-1.1617,0.0,0.0,0.0,0.0,0.0,0.0,0.0,0.0,0.0,0.0,0.0,0.0,0.0,0.0,0.0,0.0,0.0,0.0,0.0,0.0,0.0,0.0,-0.7631,-0.7733,-0.7862,-0.7896,-0.7963,-0.8119,-0.8269,-0.8391,-0.8472,-0.8702,-0.8796,-0.8796,-0.9122,-0.9323,-0.9323,-0.9903,-1.021,-1.021,-1.0655,-1.0915,-1.0915,-1.0915,-1.0915,-1.0915,-1.1083,-1.1135,-1.1135,-1.1394,-1.153,-1.1521,-1.1713,-1.1841,-1.1841,-1.2114,-1.2219,-1.2191,0.0,0.0,0.0,0.0,-1.1817,-1.1817,-1.1817,-1.1817,-1.1817,-1.1817,-1.1817,-1.1817,-1.1817,-1.1817,-1.1836,-1.1874,-1.195,-1.1973,-1.2054,-1.2024,-1.2024,-1.2024,-1.2024,-1.2024,-1.2024,-1.2011,-1.195,-1.195,-1.1879,0.0,-1.1501,-1.1387,-1.1298,-1.1208,-1.1194,-1.1194,-1.1194,-1.1194,-1.1194,-1.1194,-1.1187,-1.1211,-1.1211,-1.1251,0.0,0.0,0.0,-1.1149,-1.1192,-1.1342,0.0,0.0,0.0,-1.1543,-1.1439,-1.176,0.0,0.0,-1.2234,-1.2505,0.0,0.0,0.0,0.0,0.0,0.0,0.0,0.0,0.0,0.0,0.0,0.0,0.0,0.0,0.0,0.0,-0.7838,-0.7957,-0.8282,-0.818,-0.8167,-0.8303,-0.8431,-0.8516,-0.853,-0.8655,-0.8743,-0.876,-0.9161,-0.9355,-0.9377,-1.007,0.0,0.0,0.0,-1.1166,-1.1224,-1.1224,-1.1224,-1.1224,-1.1224,-1.1224,-1.1216,-1.1293,-1.1391,-1.1383,-1.1543,-1.1634,-1.163,-1.1882,-1.1973,-1.1987,-1.2082,-1.2123,-1.2095,-1.1907,-1.1888,-1.1888,-1.1888,0.0,0.0,-1.1888,-1.1888,-1.1888,-1.1888,-1.1888,-1.1874,-1.2067,-1.2123,-1.2161,-1.234,-1.2387,-1.2387,-1.2387,-1.2387,-1.2387,-1.2387,-1.2245,-1.2123,-1.2123,-1.1968,-1.1879,-1.1855,-1.1685,-1.1487,-1.1293,-1.1246,-1.1231,-1.1231,-1.1208,-1.1194,-1.1194,0.0,0.0,-1.1194,-1.1221,-1.1201,-1.1177,-1.112,-1.1013,-1.1011,-1.1435,-1.1536,-1.1319,-1.148,-1.1498,-1.1277,-1.1526,-1.1653,-1.1688,-1.2262,-1.2529,0.0,0.0,0.0,0.0,0.0,0.0,0.0,0.0,0.0,0.0,0.0,0.0,0.0,0.0,0.0,-0.7801,-0.8021,-0.8201,-0.8313,-0.8448,-0.8591,-0.8621,-0.8648,-0.8713,-0.8838,-0.8821,-0.8944,-0.9115,-0.9205,-0.9281,-0.9404,-0.9723,-1.0083,-1.0314,-1.0628,-1.0932,-1.1224,-1.1224,-1.1224,-1.1224,-1.1224,0.0,-1.122,-1.1245,-1.1228,-1.1286,-1.1534,-1.1693,-1.168,-1.1811,-1.1875,-1.2001,-1.2231,-1.2325,-1.2321,-1.2278,-1.2264,-1.2264,-1.2264,-1.2264,-1.2264,-1.2264,-1.2264,-1.2264,-1.2264,-1.2264,0.0,-1.2316,-1.2325,-1.2335,-1.2372,-1.2387,-1.2387,-1.2387,-1.2387,-1.2387,-1.2387,-1.2354,-1.2325,-1.2325,-1.2292,-1.2212,-1.2053,-1.1902,-1.1746,-1.1704,-1.1557,-1.1453,-1.1453,-1.1302,-1.1194,-1.1194,-1.1194,-1.1194,-1.1194,-1.1209,-1.1211,-1.1187,-1.1208,-1.1237,-1.124,-1.1318,-1.1345,-1.1284,-1.1536,-1.1642,-1.1597,-1.181,-1.2016,-1.2253,-1.255,-1.2656,0.0,0.0,0.0,0.0,0.0,0.0,0.0,0.0,0.0,0.0,0.0,-0.7506,-0.758,0.0,-0.7862,-0.8018,-0.817,-0.8323,-0.8469,-0.8618,-0.871,-0.871,-0.8777,-0.8882,-0.9032,-0.9045,-0.9106,-0.9313,-0.9323,-0.93,-0.9378,-0.9745,-1.008,-1.0427,-1.08,-1.1138,-1.15,-1.15,-1.15,-1.15,-1.15,-1.15,-1.1496,-1.1403,-1.1362,-1.1354,-1.1434,-1.1454,-1.1503,-1.1815,-1.2111,-1.2301,-1.2641,-1.2625,-1.2387,-1.2387,-1.2387,-1.2387,-1.2387,-1.2387,-1.2387,-1.2387,-1.2387,-1.2387,-1.2387,-1.2387,-1.2387,-1.2387,-1.2387,-1.2387,-1.2387,-1.2387,-1.2387,-1.2387,-1.2387,-1.2387,-1.2387,-1.2387,-1.2387,-1.2387,-1.2387,-1.2354,-1.2255,-1.204,-1.19,-1.1799,-1.1732,-1.1666,-1.1666,-1.1487,-1.1354,-1.1354,-1.126,-1.1194,-1.1194,-1.1194,-1.1157,-1.1048,-1.1169,-1.1194,-1.1106,-1.1373,-1.1502,-1.152,-1.1748,-1.1882,-1.1882,-1.2098,-1.2276,-1.2397,-1.2752,-1.2887,0.0,0.0,0.0,0.0,0.0,0.0,0.0,0.0,-0.7426,-0.7456,-0.7536,-0.7675,-0.779,-0.7862,-0.798,-0.8282,-0.8371,-0.8438,-0.8676,-0.8737,-0.8764,-0.8794,-0.8906,-0.9025,-0.92,-0.9234,-0.9316,-0.9415,-0.9425,-0.9439,-0.9466,-0.9877,-1.0305,-1.0603,-1.1083,-1.1462,-1.1776,-1.1776,-1.1776,-1.1776,-1.1776,-1.1776,-1.1772,-1.1622,-1.1553,-1.1545,-1.1395,-1.1309,-1.1392,-1.197,-1.2352,-1.2602,-1.295,-1.2857,-1.2564,-1.2564,-1.2535,-1.2502,-1.2502,-1.2419,-1.2387,-1.2387,-1.2469,-1.2502,-1.2502,-1.2531,-1.2564,-1.2564,-1.2564,-1.2564,-1.2564,-1.2564,-1.2564,-1.2564,-1.2564,-1.255,-1.2512,-1.2502,-1.2434,-1.2391,-1.2387,-1.2387,-1.2387,-1.2169,-1.1945,-1.1882,-1.1746,-1.1723,-1.1723,-1.1499,-1.141,-1.1423,-1.1264,-1.1192,-1.1198,-1.1194,-1.1127,-1.0962,-1.1096,-1.1138,-1.0966,-1.1374,-1.1631,-1.1676,-1.1911,-1.2048,-1.2094,-1.2277,-1.2363,-1.2409,-1.2871,-1.3131,-0.7816,-0.7468,-0.7225,-0.7101,-0.7102,-0.7109,0.0,0.0,-0.7456,-0.7546,-0.7689,-0.779,-0.7807,-0.8035,-0.8282,-0.8316,-0.8489,-0.8672,-0.8706,-0.8828,-0.896,-0.9146,-0.9176,-0.919,-0.9207,-0.9333,-0.9418,-0.9571,-0.9585,-0.9639,-0.9764,-1.0091,-1.04,-1.0763,-1.1144,-1.1462,-1.1776,-1.1776,-1.1776,-1.1776,-1.1776,-1.1776,-1.1776,-1.1756,-1.1744,-1.1744,-1.1723,-1.1801,-1.1938,-1.2231,-1.2481,-1.2602,-1.295,-1.3098,-1.2999,-1.2999,-1.2885,-1.2785,-1.2785,-1.2602,-1.2387,-1.2387,-1.2569,-1.2785,-1.2785,-1.2852,-1.2999,-1.2999,-1.2999,-1.2999,-1.2999,-1.2999,-1.2999,-1.2999,-1.2999,-1.2947,-1.2767,-1.2785,-1.2673,-1.2479,-1.2387,-1.2387,-1.2387,-1.2169,-1.1987,-1.2,-1.163,-1.1363,-1.1363,-1.1133,-1.0995,-1.1134,-1.1144,-1.1157,-1.1212,-1.1194,-1.1184,-1.1161,-1.1209,-1.1211,-1.1148,-1.1233,-1.1422,-1.1681,-1.1722,-1.186,-1.2094,-1.214,-1.2232,-1.2415,-1.2962,-1.3165,-0.7924,-0.748,-0.7173,0.0,-0.7275,-0.7316,-0.7468,-0.7567,-0.7645,-0.7709,-0.7841,-0.7894,-0.7894,-0.8123,-0.8347,0.0,-0.857,-0.8743,-0.8832,-0.8844,-0.8991,-0.919,-0.9289,-0.932,-0.9408,-0.9476,-0.9574,-0.9724,-0.9734,-0.9818,-1.0061,-1.0243,-1.0547,-1.1091,-1.1212,-1.1462,-1.1776,-1.1776,-1.1776,-1.1776,-1.1776,-1.1776,-1.1776,-1.1776,-1.1776,-1.1837,-1.1949,-1.208,-1.2188,-1.2665,-1.2913,-1.2953,-1.3311,-1.3429,-1.34,-1.3212,-1.307,-1.2942,-1.2942,-1.288,-1.2805,-1.2805,-1.2866,-1.2942,-1.2942,-1.3055,-1.3122,-1.3122,-1.3122,-1.3122,-1.3122,-1.3122,-1.3122,-1.3122,-1.3122,-1.3103,-1.3017,-1.2942,-1.2937,-1.2673,-1.263,-1.2592,-1.2405,-1.2169,-1.1951,-1.1787,-1.1611,-1.1454,-1.1454,-1.1283,-1.1085,-1.0995,-1.1027,-1.113,-1.1143,-1.1166,-1.1194,-1.1194,-1.1194,-1.1205,-1.1216,-1.1356,-1.1505,-1.165,-1.1935,-1.2178,-1.2273,-1.2415,-1.2558,-1.2652,-1.2995,-1.3227,-0.7988,-0.7528,0.0,-0.7343,-0.745,-0.7472,-0.7624,-0.7736,-0.7824,-0.7865,-0.7914,-0.8002,-0.8096,-0.8228,-0.8377,-0.852,-0.8672,-0.8811,-0.8868,-0.8885,-0.9008,-0.9251,-0.9313,-0.9456,-0.9649,-0.9666,-0.971,-0.9815,-0.9879,-1.0061,-1.0304,-1.0486,-1.0789,-1.1273,-1.1398,-1.1522,-1.1776,-1.1776,-1.1776,-1.1776,-1.1776,-1.1776,-1.1776,-1.1776,-1.1837,-1.1889,-1.2122,-1.2298,-1.2539,-1.3024,-1.3264,-1.3384,-1.3629,-1.3688,-1.3651,-1.3348,-1.3202,-1.3154,-1.3154,-1.3174,-1.3122,-1.3122,-1.3165,-1.3154,-1.3154,-1.3192,-1.3297,-1.3297,-1.3297,-1.3297,-1.3297,-1.3297,-1.3297,-1.3297,-1.3297,-1.3225,-1.3169,-1.3154,-1.3098,-1.2946,-1.2908,-1.2781,-1.2569,-1.2252,-1.2014,-1.1741,-1.1568,-1.1459,-1.135,-1.1244,-1.1075,-1.0875,-1.1003,-1.1092,-1.1193,-1.1157,-1.1185,-1.1283,-1.1227,-1.1194,-1.1194,-1.1389,-1.1536,-1.1585,-1.2029,-1.2322,-1.2419,-1.2662,-1.2813,-1.2813,-1.3001,-1.3244,-0.79,-0.7658,-0.7412,-0.7415,-0.7485,-0.7631,-0.7773,-0.7807,-0.7851,-0.7951,-0.7985,-0.8035,-0.8235,-0.8381,-0.8526,-0.8679,-0.8832,-0.8878,-0.8885,-0.8885,-0.9045,-0.934,-0.9378,-0.9496,0.0,-0.9815,-0.9815,-0.9822,-1.0122,-1.0304,-1.0304,-1.091,-1.1273,-1.1273,-1.1647,-1.1776,-1.1776,-1.1776,-1.1776,-1.1776,-1.1776,-1.1776,-1.1776,-1.1776,-1.1949,-1.2178,-1.2174,-1.2599,-1.3144,-1.3204,-1.3384,-1.3688,-1.3688,-1.3688,-1.3688,-1.3674,-1.3547,-1.3381,-1.3381,-1.3244,-1.3122,-1.3122,-1.3206,-1.3381,-1.3381,-1.3518,-1.367,-1.367,-1.367,-1.367,-1.367,-1.367,-1.367,-1.367,-1.367,-1.3618,-1.3424,-1.3381,-1.3315,-1.3155,-1.3112,-1.3051,-1.2791,-1.2534,-1.2238,-1.2032,-1.1509,-1.1017,-1.0747,-1.0754,-1.0807,-1.0798,-1.0836,-1.1027,-1.1342,-1.1216,-1.1208,-1.1455,-1.1312,-1.1194,-1.1194,-1.1194,-1.134,-1.1585,-1.1878,-1.2127,-1.2419,-1.2662,-1.2813,-1.2813,-1.3001,-1.3244,-0.802,-0.7777,-0.7546,-0.7641,-0.7702,-0.778,-0.788,-0.7914,-0.7928,-0.7978,-0.7988,-0.8039,-0.8241,-0.8387,-0.8533,-0.8686,-0.8838,-0.8885,-0.8885,-0.8885,-0.9105,-0.969,-0.9729,0.0,0.0,0.0,0.0,-1.0122,-1.0425,-1.0728,-1.097,-1.1152,-1.1398,-1.1647,-1.1712,-1.1776,-1.1776,-1.1776,-1.1776,-1.1776,-1.1776,-1.1893,-1.2066,-1.2066,-1.2242,-1.2539,-1.2779,-1.296,-1.3204,-1.3444,-1.3629,-1.3688,-1.3688,-1.3688,-1.3688,-1.3688,-1.3646,-1.3589,-1.3589,-1.3537,-1.348,-1.348,-1.3528,-1.3589,-1.3589,-1.3636,-1.3688,-1.3688,-1.3688,-1.3688,-1.3688,-1.3688,-1.3688,-1.3688,-1.3688,-1.367,-1.3603,-1.3589,-1.3528,-1.332,-1.3282,-1.3211,-1.3003,-1.2909,-1.2669,-1.2242,-1.1597,-1.1017,-1.0747,-1.0694,-1.0711,-1.0711,-1.0766,-1.0869,-1.0974,-1.1162,-1.1359,-1.141,-1.1419,-1.1411,-1.1411,-1.1274,-1.1243,-1.134,-1.1585,-1.1878,-1.2127,-1.2419,-1.2613,-1.2813,-1.2861,-1.3187,-0.8106,-0.7945,-0.7794,-0.779,-0.7851,-0.7919,-0.7968,-0.7988,-0.7988,-0.7988,-0.7988,-0.8039,-0.8241,-0.8387,-0.8533,-0.8686,-0.8893,-0.9103,-0.9103,-0.9158,-0.9437,-0.9979,-1.0015,-1.0255,0.0,0.0,0.0,-1.0486,-1.0789,-1.1091,-1.1273,-1.1398,-1.1587,-1.1776,-1.1776,-1.1776,-1.1776,-1.1776,-1.1837,-1.1949,-1.1949,-1.2126,-1.2354,-1.2354,-1.2539,-1.29,-1.3084,-1.3264,-1.3384,-1.3629,-1.3688,-1.3688,-1.3688,-1.3688,-1.3688,-1.3688,-1.3688,-1.3688,-1.3688,-1.3688,-1.3688,-1.3688,-1.3688,-1.3688,-1.3688,-1.3688,-1.3688,-1.3688,-1.3688,-1.3688,-1.3688,-1.3688,-1.3688,-1.3688,-1.3688,-1.3688,-1.3688,-1.3688,-1.3651,-1.3523,-1.3495,-1.3429,-1.3216,-1.3179,-1.2942,-1.2399,-1.1868,-1.1372,-1.092,-1.0747,-1.0692,-1.0692,-1.0753,-1.0795,-1.0903,-1.1208,-1.1413,-1.1517,-1.1583,-1.1624,-1.1624,-1.142,-1.1312,-1.1312,-1.1482,-1.1736,-1.198,-1.2273,-1.2558,-1.2932,-1.2932,-1.3309,-0.8208,-0.8171,-0.817,-0.7921,-0.7929,-0.8041,-0.7988,-0.7988,-0.7988,-0.7988,-0.7988,-0.8089,0.0,0.0,-0.8586,-0.874,-0.9112,-0.9434,-0.9434,-0.9651,-0.9935,0.0,0.0,0.0,0.0,0.0,0.0,-1.0849,-1.1152,-1.1333,-1.1333,-1.1647,-1.1776,-1.1776,-1.1776,-1.1776,-1.1776,-1.1837,-1.1949,-1.2234,-1.2234,-1.2419,-1.2719,-1.2719,-1.2904,-1.3204,-1.3204,-1.3389,-1.3688,-1.3688,-1.3688,-1.3688,-1.3688,-1.3688,-1.3688,-1.3688,-1.3688,-1.3688,-1.3748,-1.3688,-1.3688,-1.3688,-1.3688,-1.3688,-1.3688,-1.3688,-1.3688,-1.3688,-1.3688,-1.3688,-1.3688,-1.3688,-1.3688,-1.3688,-1.3688,-1.3688,-1.3688,-1.3688,-1.3688,-1.3688,-1.3688,-1.3627,-1.3438,-1.3225,-1.296,-1.2431,-1.2338,-1.2029,-1.1207,-1.0857,-1.0692,-1.0692,-1.0692,-1.0802,-1.1076,-1.1244,-1.1411,-1.1678,-1.1797,-1.1836,-1.1836,-1.1638,-1.1534,-1.1534,-1.1578,-1.1766,-1.2016,-1.2309,-1.2664,-1.3125,-1.312,-1.3551,-0.8552,-0.8611,-0.8568,-0.8322,-0.8255,-0.8237,-0.8038,-0.7988,-0.7988,-0.7988,-0.7988,-0.8135,0.0,0.0,0.0,-0.9215,-0.9545,0.0,-0.9706,-0.9761,0.0,-1.0609,0.0,-1.0899,-1.1495,-1.1651,0.0,0.0,-1.1651,-1.1651,-1.1651,-1.1776,-1.1776,-1.1776,-1.1776,-1.1776,-1.1776,-1.2005,-1.2242,-1.2599,-1.2599,-1.2719,-1.3084,-1.3084,-1.3264,-1.3569,-1.3569,-1.3629,-1.3688,-1.3688,-1.3688,-1.3688,-1.3688,-1.3688,-1.3688,-1.3688,-1.3688,-1.3748,-1.3992,-1.3933,-1.3688,-1.3688,-1.3688,-1.3688,-1.3688,-1.3688,-1.3688,-1.3688,-1.3688,-1.3688,-1.3688,-1.3688,-1.3688,-1.3688,-1.3688,-1.3688,-1.3688,-1.3688,-1.3688,-1.3688,-1.3688,-1.367,-1.3622,-1.3443,-1.3287,-1.3124,-1.2802,-1.2176,-1.1224,-1.1017,-1.0907,-1.0747,-1.0692,-1.0802,-1.1076,-1.1361,-1.1661,-1.1932,-1.2012,-1.2006,-1.2006,-1.1855,-1.1742,-1.1742,-1.1996,-1.2222,-1.2476,-1.2786,-1.3071,-1.3383,-1.3576,-1.4015,-0.8711,-0.8816,-0.8928,-0.863,-0.8581,-0.8531,-0.8382,-0.8333,-0.8333,-0.8333,-0.8333,0.0,-0.87,-0.8896,0.0,0.0,0.0,0.0,-1.0025,-1.0143,-1.0354,0.0,-1.095,0.0,-1.1626,-1.1732,-1.1776,0.0,-1.1776,-1.1776,-1.1776,-1.1776,-1.1833,-1.1945,-1.201,-1.207,-1.2191,-1.2363,-1.2599,-1.2904,-1.2904,-1.3084,-1.3449,-1.3449,-1.3509,-1.3688,-1.3688,-1.3688,-1.3688,-1.3688,-1.3808,-1.3933,-1.3933,-1.3992,-1.4112,-1.4112,-1.4112,-1.4112,-1.4291,-1.4232,-1.4112,-1.4112,-1.4112,-1.4112,-1.4112,-1.4112,-1.4112,-1.4112,-1.4112,-1.4112,-1.4112,-1.4112,-1.4112,-1.4112,-1.4112,-1.4052,-1.3933,-1.3933,-1.3868,-1.3748,-1.3688,-1.3688,-1.3688,-1.3599,-1.349,-1.34,-1.317,-1.2687,-1.1858,-1.1582,-1.1334,-1.1139,-1.1076,-1.1185,-1.1295,-1.1618,-1.1841,-1.2005,-1.217,-1.2217,-1.2217,-1.202,-1.1907,-1.1907,-1.2181,-1.239,-1.2591,-1.2956,-1.3271,-1.3626,-1.3936,-1.433,-0.88,-0.8996,-0.9152,-0.892,-0.8874,-0.8825,-0.8825,-0.8825,-0.8825,-0.8825,0.0,-0.8825,-0.8825,-0.9017,-0.9229,-0.9376,0.0,-1.01,-1.0311,-1.0515,-1.0761,-1.1004,-1.1118,-1.1293,-1.1484,-1.1726,-1.1833,-1.1833,-1.1897,-1.1893,-1.1833,-1.1833,-1.201,-1.2238,-1.2298,-1.2419,-1.2779,-1.2779,-1.29,-1.3264,-1.3264,-1.3449,-1.3688,-1.3688,-1.3688,-1.3688,-1.3748,-1.3748,-1.3748,-1.3808,-1.3992,-1.4237,-1.4237,-1.4416,-1.4595,-1.4595,-1.4595,-1.4595,-1.465,-1.465,-1.465,-1.459,-1.4595,-1.4595,-1.4595,-1.4595,-1.4595,-1.4595,-1.4595,-1.4595,-1.4595,-1.4595,-1.4595,-1.4595,-1.4595,-1.4535,-1.4291,-1.4237,-1.4172,-1.3808,-1.3748,-1.3748,-1.3688,-1.3688,-1.3627,-1.3457,-1.3429,-1.3236,-1.2786,-1.2282,-1.1857,-1.168,-1.1641,-1.1623,-1.1623,-1.1896,-1.2005,-1.206,-1.2273,-1.2387,-1.2387,-1.2217,-1.2181,-1.2234,-1.2369,-1.2531,-1.2734,-1.3101,-1.3466,-1.3915,-1.4242,-1.4624,-0.9005,-0.9199,-0.934,-0.9148,-0.9133,-0.908,-0.8874,-0.8825,0.0,0.0,-0.8825,-0.8874,-0.9084,-0.9318,-0.9493,-0.9776,-1.0108,-1.0337,-1.0369,-1.0548,-1.0761,0.0,0.0,0.0,0.0,-1.1894,0.0,0.0,-1.2363,-1.2423,-1.2178,-1.2118,-1.2298,-1.2599,-1.2599,-1.2779,-1.3084,-1.3084,-1.3264,-1.3629,-1.3629,-1.3629,-1.3688,-1.3688,-1.3688,-1.3748,-1.3992,0.0,-1.4112,-1.4351,-1.4476,-1.4535,-1.4535,-1.4535,-1.4595,-1.4595,-1.4595,-1.465,-1.4942,-1.4997,-1.4997,-1.4709,-1.4595,-1.4595,-1.4595,-1.4595,-1.4595,-1.4595,-1.4595,-1.4595,-1.4595,-1.4595,-1.4595,-1.4595,-1.4595,-1.4595,-1.453,-1.4535,-1.4476,-1.4172,-1.4112,-1.4052,-1.3748,-1.3688,-1.3674,-1.3641,-1.3636,-1.3561,-1.3299,-1.2657,-1.2134,-1.1875,-1.1724,-1.1678,-1.1896,-1.1951,-1.2114,-1.2332,-1.2387,-1.2387,-1.2387,-1.2354,-1.2497,-1.2773,-1.3004,-1.3252,-1.3521,-1.3853,-1.4137,-1.4486,-1.4759,-1.5055,-0.8975,-0.9084,-0.9242,-0.9188,-0.9227,-0.9291,-0.9141,0.0,0.0,0.0,-0.9225,-0.9278,-0.9381,-0.9498,0.0,-0.9872,-1.0115,-1.0327,-1.037,0.0,0.0,0.0,0.0,0.0,0.0,-1.2133,-1.2479,-1.2479,-1.2599,-1.2659,-1.2479,-1.2659,-1.2779,-1.2964,-1.3144,-1.3324,-1.3449,-1.3449,-1.3569,-1.3688,-1.3688,-1.3688,-1.3688,-1.3868,-1.3933,-1.3992,-1.4291,-1.4416,-1.4416,-1.4535,-1.4709,-1.4883,-1.4883,-1.4942,-1.5126,-1.5126,-1.5126,-1.5126,-1.5299,-1.5359,-1.5359,-1.518,-1.5126,-1.5126,-1.5126,-1.5126,-1.5126,-1.5126,-1.5126,-1.5126,-1.5126,-1.5126,-1.5126,-1.5126,-1.5002,-1.4883,-1.4883,-1.4709,-1.4535,-1.4411,-1.4416,-1.4291,-1.3992,-1.3933,-1.3873,-1.3748,-1.3688,-1.3655,-1.3556,-1.3161,-1.276,-1.2536,-1.2344,-1.228,-1.239,-1.2288,-1.2273,-1.2382,-1.2387,-1.2387,-1.2387,-1.2387,-1.255,-1.2881,-1.3152,-1.3423,-1.3699,-1.4029,-1.4347,-1.4606,-1.4874,-1.5202,-0.8943,-0.9017,-0.914,-0.9088,-0.9202,-0.9347,-0.9347,-0.9409,0.0,-0.9514,-0.9543,-0.9567,-0.9567,-0.96,-0.9673,0.0,-0.9981,-1.022,-1.0404,0.0,0.0,0.0,0.0,0.0,0.0,-1.2397,0.0,-1.2779,-1.2844,-1.29,-1.2779,-1.3144,-1.3324,-1.3324,-1.3569,-1.3688,-1.3688,-1.3688,-1.3688,-1.3688,-1.3748,-1.3808,-1.3813,-1.4112,-1.4296,-1.4291,-1.459,-1.4709,-1.4709,-1.4769,-1.4942,-1.5235,-1.5235,-1.5359,-1.5601,-1.5601,-1.5601,-1.5601,-1.5601,-1.5601,-1.5601,-1.5661,-1.5661,-1.5601,-1.5601,-1.5601,-1.5601,-1.5601,-1.5601,-1.5601,-1.5601,-1.5601,-1.5601,-1.5601,-1.5418,-1.5235,-1.5235,-1.5002,-1.4769,-1.4709,-1.4709,-1.465,-1.4351,-1.4296,-1.4172,-1.3873,-1.3808,-1.3808,-1.3688,-1.3551,-1.3386,-1.3278,-1.3036,-1.287,-1.2828,-1.2606,-1.2434,-1.2387,-1.2387,-1.2387,-1.2387,-1.2495,-1.2659,-1.2989,-1.3261,-1.3537,-1.3807,-1.4137,-1.4401,-1.4713,-1.4987,-1.5315,-0.918,-0.9194,-0.9158,-0.9102,-0.9108,-0.912,-0.912,0.0,-0.9145,-0.9145,-0.9271,-0.9429,-0.9429,-0.9514,-0.9583,-0.9648,-0.9799,-1.0076,-1.0521,0.0,0.0,0.0,0.0,0.0,0.0,-1.2575,-1.2954,-1.3131,-1.3444,-1.3504,-1.3144,-1.3449,-1.3629,-1.3629,-1.3688,-1.3688,-1.3688,-1.3688,-1.3688,-1.3688,-1.3992,-1.4172,-1.4172,-1.4416,-1.4535,-1.459,-1.4937,-1.5056,0.0,-1.5359,-1.5542,-1.5537,-1.5537,-1.5601,-1.5601,-1.5601,-1.5601,-1.5601,-1.5601,-1.5601,-1.5661,-1.5963,-1.5844,-1.5601,-1.5601,-1.5601,-1.5601,-1.5601,-1.5601,-1.5601,-1.5601,-1.5601,-1.5601,-1.5601,-1.5596,-1.5537,-1.5537,-1.5542,-1.5418,-1.5116,-1.5056,-1.4937,-1.459,-1.4535,-1.4471,-1.4172,-1.4172,-1.4052,-1.3748,-1.3674,-1.3655,-1.3636,-1.3277,-1.3022,-1.2837,-1.2804,-1.2654,-1.2396,-1.2387,-1.2387,-1.2387,-1.2713,-1.2989,-1.3261,-1.3532,-1.3807,-1.4137,-1.445,-1.4713,-1.4987,-1.5315,-1.5743,-0.9305,-0.9239,-0.926,-0.9249,-0.9265,-0.9304,-0.9204,0.0,-0.9232,-0.9143,-0.9153,-0.9234,-0.9384,-0.9558,-0.9742,-0.9805,-1.0125,-1.0467,-1.0811,0.0,0.0,0.0,0.0,0.0,0.0,0.0,-1.3294,-1.349,-1.3629,-1.3629,-1.3509,-1.3629,-1.3688,-1.3688,-1.3688,-1.3808,-1.3992,-1.3992,-1.4052,-1.4232,-1.4351,-1.4416,-1.4476,-1.4764,-1.4883,-1.4942,-1.524,-1.5418,0.0,-1.5537,-1.5601,-1.5601,-1.5601,-1.572,-1.5903,-1.5903,-1.6016,-1.6124,-1.6124,-1.6124,-1.6188,-1.6307,-1.6248,-1.6124,-1.6124,-1.6124,-1.6124,-1.6124,-1.6124,-1.6124,-1.6124,-1.6016,-1.5903,-1.5903,-1.5888,-1.5866,-1.5866,-1.5924,-1.5966,-1.5844,-1.5721,-1.5565,-1.5214,-1.504,-1.4823,-1.4471,-1.4416,-1.4351,-1.4052,-1.3992,-1.3933,-1.3748,-1.3433,-1.323,-1.315,-1.2913,-1.2729,-1.2639,-1.2512,-1.2495,-1.2713,-1.2827,-1.3098,-1.3532,-1.364,-1.3964,-1.445,-1.4552,-1.4821,-1.5315,-1.5577,-1.5951,-0.9545,-0.9432,-0.9388,-0.9305,-0.9363,-0.9423,0.0,0.0,-0.9346,-0.9167,-0.9213,-0.9241,-0.9413,-0.9668,-0.9926,-1.0015,-1.0347,-1.0707,-1.1057,-1.1216,0.0,0.0,0.0,-1.2436,0.0,-1.3199,-1.3537,-1.3679,-1.3808,-1.3868,-1.3868,-1.3928,-1.3928,-1.3868,-1.3868,-1.3992,-1.4291,-1.4291,-1.4416,-1.4595,-1.4709,-1.4769,-1.4769,-1.5121,-1.5235,-1.5235,-1.5477,-1.5601,0.0,-1.5601,-1.5661,-1.572,-1.572,-1.5957,-1.62,-1.62,-1.6366,-1.6478,-1.6478,-1.6478,-1.6537,-1.6602,-1.6661,-1.6655,-1.6773,-1.6655,-1.6478,-1.6478,-1.6478,-1.6478,-1.6478,-1.6422,-1.6365,-1.6365,-1.637,-1.6359,-1.6237,-1.6373,-1.6436,-1.6312,-1.6172,-1.5998,-1.5759,-1.5558,-1.528,-1.4931,-1.4815,-1.465,-1.4356,-1.4291,-1.4232,-1.3992,-1.3862,-1.3633,-1.3395,-1.3121,-1.2951,-1.2935,-1.2726,-1.2721,-1.2989,-1.3098,-1.3315,-1.3694,-1.3856,-1.4175,-1.4606,-1.4767,-1.5148,-1.5636,-1.5897,-1.6308,-0.9981,-0.982,-0.9563,-0.9345,-0.9305,-0.9305,0.0,0.0,-0.931,-0.931,-0.942,-0.9515,-0.9515,-0.9826,-1.0084,-1.0088,-1.0294,-1.0649,-1.1297,-1.1408,0.0,0.0,0.0,-1.2606,-1.3027,-1.3443,-1.3688,-1.3688,-1.3992,0.0,-1.4172,-1.4476,-1.4471,-1.4172,-1.4172,-1.4291,-1.4595,-1.4595,-1.4595,-1.4595,-1.4942,-1.511,-1.5116,-1.5418,-1.5596,-1.5596,-1.5601,-1.5601,0.0,-1.5601,-1.5779,-1.6087,-1.6087,-1.6253,-1.6478,-1.6478,-1.6478,-1.6478,-1.6478,-1.6478,-1.6537,-1.6903,-1.6961,-1.7085,-1.7367,-1.7009,-1.6478,-1.6478,-1.6478,-1.6478,-1.6478,-1.672,-1.6903,-1.6903,-1.7108,-1.7173,-1.6853,-1.6797,-1.6673,-1.6374,-1.6312,-1.6312,-1.6312,-1.6108,-1.5885,-1.5531,-1.5267,-1.4997,-1.465,-1.4595,-1.4595,-1.4595,-1.459,-1.4267,-1.3468,-1.3386,-1.3317,-1.3218,-1.3189,-1.3206,-1.3271,-1.3537,-1.3694,-1.3699,-1.4283,-1.46,-1.4606,-1.5208,-1.5636,-1.5891,-1.6164,-1.6949,-1.0147,-0.9994,-0.9814,-0.9956,-0.9864,-0.9738,-0.9563,-0.9519,-0.9476,-0.9345,-0.9354,-0.9393,-0.9485,-0.985,-1.0209,-1.0348,-1.0678,-1.1046,0.0,0.0,0.0,-1.2147,-1.2611,-1.2923,0.0,0.0,-1.4052,-1.4052,-1.4291,-1.4471,-1.4471,-1.4535,-1.4535,-1.4476,-1.4471,-1.465,-1.4937,-1.4937,-1.5061,-1.5304,-1.5418,-1.5418,-1.5477,-1.5537,-1.5601,-1.5601,-1.5601,-1.572,-1.5963,-1.5963,-1.6135,-1.6366,-1.6366,-1.6543,-1.6844,-1.6844,-1.7015,-1.7185,-1.7185,-1.7185,-1.7185,-1.7309,-1.7367,-1.7367,-1.7485,-1.7361,-1.7185,-1.7185,-1.7316,-1.7452,-1.7452,-1.7467,-1.7538,-1.7538,-1.7551,-1.7554,-1.7428,-1.749,-1.7609,-1.7487,-1.7163,-1.6921,-1.6921,-1.6536,-1.614,-1.5857,-1.5766,-1.5539,-1.5017,-1.4937,-1.4823,-1.459,-1.4595,-1.4505,-1.4257,-1.4108,-1.4018,-1.3931,-1.3843,-1.3775,-1.3823,-1.3928,-1.4069,-1.4288,-1.4498,-1.4821,-1.5208,-1.5428,-1.594,-1.6806,-1.7492,-1.824,-1.0275,-1.0108,-0.9949,-1.0251,-1.0134,-0.9943,-0.9889,-0.982,-0.9733,-0.9607,-0.9563,-0.9599,-0.9682,-1.0067,-1.0385,-1.0514,-1.0913,-1.1269,0.0,0.0,0.0,-1.2326,0.0,0.0,0.0,-1.3976,-1.4351,-1.4351,-1.465,-1.4764,-1.4764,-1.4888,-1.5007,-1.5007,-1.4828,-1.4942,-1.5294,-1.5294,-1.5418,-1.5601,-1.5601,-1.5601,-1.5601,-1.5601,-1.5661,-1.5779,-1.5779,-1.5957,0.0,-1.6253,-1.6431,-1.672,-1.672,-1.6897,-1.7197,-1.7197,-1.7309,-1.7485,-1.7485,-1.7485,-1.7485,-1.7485,-1.7485,-1.7485,-1.7485,-1.7485,-1.7503,-1.7605,-1.7744,-1.7901,-1.8004,-1.8111,-1.8123,-1.8123,-1.8193,-1.8197,-1.807,-1.8128,-1.8168,-1.8039,-1.7716,-1.7487,-1.7487,-1.7033,-1.6574,-1.6484,-1.6181,-1.5832,-1.5502,-1.5347,-1.524,-1.5007,-1.5007,-1.5007,-1.5007,-1.4636,-1.4402,-1.4491,-1.4358,-1.4349,-1.4396,-1.4497,-1.4706,-1.4889,-1.5157,-1.5436,-1.5824,-1.6151,-1.6775,-1.7705,-1.849,-1.9179,0.0,-1.0115,-0.9973,-1.0236,-1.0092,-0.9988,-1.0225,-1.0154,0.0,-1.0038,-1.0038,-1.0038,-1.0038,-1.0381,-1.0667,-1.0667,-1.0972,0.0,0.0,-1.1731,0.0,0.0,-1.3318,0.0,-1.3987,-1.4392,-1.4655,-1.4655,-1.4942,-1.5116,-1.5116,-1.5418,-1.5601,-1.5601,-1.5294,-1.5294,-1.5601,-1.5601,-1.5601,-1.5601,-1.5601,-1.5601,-1.5601,-1.5601,-1.5785,0.0,-1.6146,-1.6253,-1.6537,-1.6537,-1.672,-1.7026,-1.7026,-1.7256,-1.7485,-1.7485,-1.7485,-1.7485,-1.7485,-1.7485,-1.7485,-1.7543,-1.7556,-1.7574,-1.7568,-1.7568,-1.7563,-1.7805,-1.7901,-1.7992,-1.8257,-1.8517,-1.8716,-1.8716,-1.8897,-1.9014,-1.8699,-1.8641,-1.8501,-1.8168,-1.8039,-1.8033,-1.8033,-1.759,-1.7237,-1.7221,-1.6584,-1.6105,-1.6073,-1.5877,-1.5677,-1.5661,-1.5655,-1.5655,-1.5655,-1.5067,-1.4741,-1.4876,-1.4866,-1.4929,-1.4975,-1.5258,-1.5479,-1.5462,-1.6076,-1.6357,-1.6414,-1.7272,-1.8004,-1.8553,-1.9198,-1.9794,-1.0547,0.0,-1.0145,-1.0253,-1.0232,-1.0201,0.0,-1.0434,-1.0559,0.0,0.0,0.0,0.0,-1.0875,-1.1124,-1.1124,0.0,0.0,-1.1904,0.0,0.0,-1.3156,-1.3598,-1.393,-1.3987,-1.4616,-1.4997,-1.4997,-1.5299,-1.5477,-1.5477,-1.5537,-1.5601,-1.5601,-1.5537,-1.5537,-1.5601,-1.5601,-1.5601,-1.5601,-1.5601,-1.5601,-1.5601,-1.5844,-1.6022,-1.6081,-1.6312,-1.6602,-1.6903,-1.6903,-1.7073,-1.7367,-1.7367,-1.7426,-1.7485,-1.7485,-1.7485,-1.7485,-1.7485,-1.7485,-1.7543,-1.7784,-1.8043,-1.821,-1.8508,-1.8204,-1.7793,-1.7859,-1.8173,-1.8511,-1.8571,-1.8782,-1.8982,-1.8982,-1.903,-1.9078,-1.9014,-1.895,-1.895,-1.888,-1.8623,-1.8437,-1.8437,-1.8122,-1.7757,-1.7639,-1.7445,-1.7168,-1.6718,-1.6616,-1.6509,-1.6324,-1.6301,-1.6301,-1.6301,-1.5715,-1.5397,-1.5403,-1.5639,-1.5706,-1.5511,-1.5851,-1.6052,-1.6076,-1.6688,-1.7086,-1.7316,-1.8249,-1.8748,-1.8917,-1.9897,-2.0623,-1.085,-1.0545,-1.0368,-1.0417,-1.0451,-1.044,-1.0454,-1.057,-1.0684,-1.0684,0.0,0.0,0.0,0.0,0.0,0.0,-1.1687,0.0,0.0,0.0,-1.2809,-1.3426,-1.3932,-1.4267,0.0,-1.4966,-1.5353,-1.5353,-1.5477,-1.5601,-1.5601,-1.5601,-1.5601,-1.5601,-1.5601,-1.5601,-1.5601,-1.5601,-1.5601,-1.5601,-1.5779,-1.5839,-1.5839,-1.6135,-1.6371,-1.6495,-1.6667,-1.6897,-1.7256,-1.7256,-1.7315,-1.7485,-1.7485,-1.7485,-1.7485,-1.7485,-1.7485,-1.7485,-1.7485,-1.7681,-1.7968,-1.8323,-1.8571,-1.8857,-1.9032,-1.8933,-1.8722,-1.8722,-1.8945,-1.9206,-1.9342,-1.9351,-1.9328,-1.9328,-1.92,-1.9078,-1.9078,-1.9078,-1.9078,-1.9078,-1.895,-1.8828,-1.8828,-1.8501,-1.8262,-1.8123,-1.7874,-1.7571,-1.7291,-1.7051,-1.6851,-1.672,-1.6547,-1.6478,-1.6478,-1.6183,-1.6011,-1.6011,-1.6194,-1.6191,-1.6046,-1.6401,-1.6744,-1.7062,-1.7514,-1.797,-1.8374,-1.886,-1.9334,-1.979,-2.0594,-2.1081,-1.1248,-1.0925,-1.0683,-1.0606,-1.0632,-1.0727,-1.0714,-1.0799,-1.0862,-1.0862,0.0,0.0,0.0,-1.1165,0.0,0.0,0.0,0.0,-1.269,-1.2776,-1.3007,-1.3701,-1.4179,0.0,-1.488,-1.5289,-1.5564,-1.5596,-1.5601,-1.5601,-1.5601,-1.5601,-1.5601,-1.5601,-1.5661,-1.5661,-1.5661,-1.5655,-1.5655,-1.5661,-1.5963,-1.6146,-1.614,-1.6425,-1.672,-1.7026,-1.702,-1.7256,-1.7485,-1.7485,-1.7485,-1.7485,-1.7485,-1.7485,-1.7485,-1.7485,-1.7543,-1.7608,-1.7703,-1.8052,-1.8555,-1.8898,-1.9216,-1.944,-1.9501,-1.9694,-1.9919,-1.9919,-1.9856,-1.9788,-2.0043,-1.9909,-1.9705,-1.9705,-1.9456,-1.927,-1.9206,-1.92,-1.9142,-1.9142,-1.9078,-1.9078,-1.9078,-1.8886,-1.8699,-1.8699,-1.8256,-1.7903,-1.7868,-1.7476,-1.7115,-1.7035,-1.6839,-1.6695,-1.6655,-1.6655,-1.6655,-1.6655,-1.6596,-1.6596,-1.6714,-1.702,-1.7432,-1.8142,-1.8428,-1.8829,-1.9359,-1.9468,-1.9924,-2.078,-2.1146,-2.1497,-1.1643,-1.1558,-1.1347,-1.0677,-1.0852,-1.1174,-1.1208,-1.1372,-1.157,-1.157,0.0,0.0,0.0,-1.1775,-1.2021,0.0,0.0,-1.3047,0.0,0.0,-1.3762,-1.4105,0.0,-1.4609,-1.4864,-1.5138,-1.5386,-1.5585,-1.5601,-1.5601,-1.5601,-1.5601,-1.5601,-1.5601,-1.5903,-1.6028,-1.6028,-1.572,-1.572,-1.6028,-1.6087,-1.62,-1.6425,-1.6785,-1.6961,-1.702,-1.7309,-1.7426,-1.7485,-1.7485,-1.7485,-1.7485,-1.7485,-1.7485,-1.7485,-1.7485,-1.7667,-1.8003,-1.8517,-1.875,-1.8945,-1.949,-1.983,-2.012,-2.0423,-2.0684,-2.0916,-2.0916,-2.048,-2.0049,-2.01,-2.0043,-2.0043,-2.0043,-1.9979,-1.9845,-1.9577,-1.9514,-1.945,-1.9142,-1.9078,-1.9078,-1.9078,-1.9078,-1.9014,-1.9014,-1.8914,-1.8806,-1.8584,-1.8482,-1.8261,-1.7805,-1.7715,-1.7607,-1.7379,-1.7367,-1.7367,-1.7367,-1.7073,-1.7197,-1.7732,-1.779,-1.8135,-1.8765,-1.9004,-1.9352,-1.97,-2.0263,-2.073,-2.1146,-2.1497,-2.2059,-1.1998,-1.1929,-1.1744,-1.126,-1.1406,-1.1565,-1.1364,-1.1594,-1.1871,-1.1871,-1.1742,0.0,0.0,0.0,-1.2352,-1.2591,0.0,-1.319,-1.3443,-1.3674,-1.3911,0.0,0.0,-1.4683,-1.5152,-1.533,-1.5629,-1.6048,-1.607,-1.607,-1.607,-1.607,-1.607,-1.607,-1.6248,-1.6312,-1.6312,-1.6188,-1.6188,-1.6312,-1.6495,-1.6672,-1.6779,-1.7132,-1.725,-1.7256,-1.7426,-1.7485,-1.7485,-1.7485,-1.7485,-1.7485,-1.7485,-1.7485,-1.7543,-1.7726,-1.796,-1.829,-1.8917,-1.9236,-1.9484,-2.0075,-2.0489,-2.0727,-2.0846,-2.1002,-2.1109,-2.1109,-2.0862,-2.0672,-2.0672,-2.0482,-2.0354,-2.0354,-2.0234,-2.0043,-1.9909,-1.9845,-1.9839,-1.9654,-1.9654,-1.9654,-1.9654,-1.9456,-1.9386,-1.9386,-1.92,-1.9036,-1.8915,-1.877,-1.8591,-1.8374,-1.8269,-1.8132,-1.7972,-1.8012,-1.7895,-1.7784,-1.7614,-1.7732,-1.8194,-1.8363,-1.8655,-1.912,-1.941,-1.9809,-2.0263,-2.073,-2.1139,-2.1497,-2.2116,-2.2626,-1.2387,-1.2298,-1.2077,-1.1892,-1.1946,-1.196,-1.1605,-1.1838,-1.2166,-1.208,-1.2083,0.0,0.0,-1.2569,0.0,-1.2947,-1.3199,-1.3456,-1.3653,-1.3931,-1.4135,-1.4385,-1.4505,-1.4845,-1.5428,-1.5618,-1.5911,-1.6455,-1.6478,-1.6478,-1.6478,-1.6478,-1.6478,-1.6478,-1.6596,-1.6602,-1.6602,-1.6714,-1.6714,-1.6602,-1.6903,-1.702,-1.7138,-1.7367,-1.7485,-1.7485,-1.7485,-1.7485,-1.7485,-1.7485,-1.7485,-1.7485,-1.7485,-1.7543,-1.7661,-1.8077,-1.8369,-1.857,-1.9207,-1.9627,-1.999,-2.052,-2.0869,-2.1109,-2.1109,-2.1109,-2.1109,-2.1109,-2.1109,-2.1109,-2.1109,-2.0926,-2.0736,-2.0736,-2.0545,-2.0291,-2.0234,-2.0234,-2.017,-2.0106,-2.0106,-2.0106,-2.0106,-1.9909,-1.9711,-1.9711,-1.952,-1.9334,-1.9334,-1.9157,-1.8987,-1.8951,-1.8744,-1.8564,-1.8388,-1.8421,-1.8363,-1.82,-1.8142,-1.8259,-1.8596,-1.8881,-1.9171,-1.9526,-1.9866,-2.027,-2.0838,-2.1139,-2.1554,-2.2002,-2.2675,-2.3167,-1.2775,-1.2709,-1.2526,-1.2305,-1.2414,-1.2485,-1.2206,-1.2413,-1.2619,-1.2406,-1.2389,0.0,0.0,-1.311,-1.3451,-1.3437,-1.3889,-1.4208,-1.4225,0.0,-1.4911,-1.4928,-1.4945,-1.5198,-1.5732,-1.5795,-1.6012,-1.6438,-1.6478,-1.6478,-1.6478,-1.6478,-1.6478,-1.6478,-1.6779,-1.6961,-1.6961,-1.725,-1.725,-1.6961,-1.6961,-1.7138,-1.7479,-1.7479,-1.7485,-1.7485,-1.7485,-1.7485,-1.7485,-1.7485,-1.7485,-1.7485,-1.7485,-1.7667,-1.8025,-1.859,-1.8881,-1.8978,-1.9575,-1.9927,-2.0227,-2.0581,-2.0869,-2.1109,-2.1109,-2.1109,-2.1109,-2.1109,-2.1109,-2.1109,-2.1109,-2.1109,-2.1046,-2.1046,-2.1046,-2.0919,-2.0609,-2.0545,-2.0482,-2.017,-2.0106,-2.0106,-2.0106,-2.0106,-2.0043,-2.0043,-2.0043,-2.0043,-2.0043,-2.0024,-1.9903,-1.9668,-1.9388,-1.9006,-1.8466,-1.8421,-1.8532,-1.8823,-1.8538,-1.8655,-1.9236,-1.9236,-1.9584,-2.0213,-2.0493,-2.0788,-2.1153,-2.1497,-2.2059,-2.2901,-2.2958,-2.3634,-1.3208,-1.3229,-1.3133,-1.3026,-1.3079,-1.3035,-1.2565,-1.2785,-1.3094,-1.2881,-1.2965,0.0,0.0,0.0,-1.369,-1.3539,-1.3956,-1.4282,-1.4282,-1.4716,-1.4987,-1.4987,-1.4987,-1.5232,-1.5803,-1.6034,-1.6329,-1.6808,-1.7038,-1.7126,-1.7126,-1.7126,-1.7126,-1.7126,-1.725,-1.7315,-1.7315,-1.7426,-1.7426,-1.7315,-1.7315,-1.7367,-1.7485,-1.7485,-1.7485,-1.7485,-1.7485,-1.7485,-1.7485,-1.7485,-1.7485,-1.7543,-1.7726,-1.8135,-1.8596,-1.8823,-1.9055,-1.9283,-1.964,-1.9993,-2.0281,-2.0581,-2.0869,-2.1109,-2.1109,-2.1109,-2.1109,-2.1109,-2.1109,-2.1109,-2.1109,-2.1109,-2.1109,-2.1109,-2.1109,-2.1046,-2.0919,-2.0926,-2.0856,-2.0736,-2.0736,-2.0736,-2.0736,-2.0545,-2.0425,-2.0425,-2.0234,-2.0106,-2.0106,-2.0106,-2.0062,-2.0024,-1.9761,-1.9575,-1.9581,-1.9401,-1.9403,-1.9751,-1.9229,-1.9178,-1.9584,-1.9815,-2.022,-2.0859,-2.0967,-2.1253,-2.1774,-2.2279,-2.2683,-2.3022,-2.3796,-2.4544,-1.3603,-1.3601,-1.3499,-1.3556,-1.3593,-1.3523,-1.3194,-1.3302,-1.344,-1.3222,-1.3467,-1.3797,-1.3977,0.0,0.0,0.0,-1.4255,-1.4536,-1.4536,-1.4978,-1.5303,-1.5303,-1.5303,-1.5462,-1.5992,-1.6176,-1.6544,-1.7062,-1.7255,-1.7394,-1.7479,-1.7485,-1.7485,-1.7485,-1.7485,-1.7485,-1.7485,-1.7485,-1.7485,-1.7485,-1.7485,-1.7485,-1.7485,-1.7485,-1.7485,-1.7485,-1.7485,-1.7485,-1.7485,-1.7485,-1.7543,-1.7726,-1.8135,-1.8538,-1.8939,-1.9004,-1.9185,-1.9457,-1.9593,-1.9913,-2.0267,-2.0468,-2.0795,-2.1109,-2.1109,-2.1109,-2.1109,-2.1109,-2.1109,-2.1109,-2.1235,-2.1172,-2.1109,-2.1109,-2.1109,-2.1109,-2.1109,-2.1109,-2.1109,-2.1109,-2.1109,-2.1109,-2.1109,-2.0926,-2.0736,-2.0736,-2.0545,-2.0418,-2.0418,-2.0482,-2.0624,-2.0646,-2.0497,-2.0453,-2.0596,-2.0306,-2.0192,-2.0417,-2.0102,-1.9931,-2.0097,-2.0392,-2.0859,-2.1325,-2.1439,-2.1774,-2.2392,-2.2955,-2.3343,-2.3634,-2.4735,-2.5486,-1.4024,-1.3811,-1.3572,-1.3946,-1.3908,-1.3901,-1.4216,-1.3986,-1.3652,-1.3447,-1.3843,-1.4396,-1.4975,-1.4885,0.0,-1.4694,-1.4905,-1.5107,-1.5113,-1.5559,-1.5891,-1.5891,-1.5891,-1.5994,-1.6308,-1.6332,-1.6507,-1.7044,-1.7086,-1.7201,-1.7467,-1.7479,-1.7479,-1.7485,-1.7485,-1.7485,-1.7485,-1.7485,-1.7485,-1.7485,-1.7485,-1.7485,-1.7485,-1.7485,-1.7485,-1.7485,-1.7485,-1.7485,-1.7485,-1.7485,-1.7726,-1.8083,-1.8648,-1.8874,-1.8939,-1.9301,-1.9424,-1.9424,-1.9424,-1.9746,-2.0173,-2.0173,-2.0628,-2.1109,-2.1109,-2.1109,-2.1109,-2.1109,-2.1109,-2.1172,-2.1544,-2.1362,-2.1109,-2.1109,-2.1109,-2.1109,-2.1109,-2.1109,-2.1109,-2.1109,-2.1109,-2.1109,-2.1109,-2.1109,-2.1109,-2.1109,-2.1109,-2.1109,-2.1109,-2.1425,-2.1623,-2.1691,-2.1718,-2.1591,-2.1222,-2.0974,-2.0798,-2.0805,-2.1046,-2.1031,-2.0723,-2.1024,-2.1382,-2.1725,-2.1945,-2.24,-2.3022,-2.3421,-2.404,-2.4914,-2.5688,-2.6364,-1.4379,-1.4353,0.0,-1.4706,0.0,0.0,-1.4926,-1.4712,-1.4394,-1.4427,-1.4495,-1.4678,-1.5013,-1.5035,0.0,-1.524,-1.5476,-1.5726,-1.5914,-1.6246,-1.6471,-1.6471,-1.6471,-1.6496,-1.6577,-1.6771,-1.6911,-1.7073,-1.7092,-1.7201,-1.7465,-1.7317,-1.7292,-1.7473,-1.7485,-1.7485,-1.7485,-1.7485,-1.7485,-1.7485,-1.7485,-1.7485,-1.7485,-1.7485,-1.7485,-1.7485,-1.7485,-1.7485,-1.7543,-1.7726,-1.8135,-1.8655,-1.8823,-1.9055,-1.9243,-1.9366,-1.9424,-1.9424,-1.9424,-1.9746,-2.0173,-2.0173,-2.0628,-2.1172,-2.1362,-2.1418,-2.1481,-2.1734,-2.1796,-2.1859,-2.1922,-2.1859,-2.1796,-2.1796,-2.1796,-2.1796,-2.1796,-2.1796,-2.1796,-2.1796,-2.1796,-2.1796,-2.1796,-2.1796,-2.1796,-2.1796,-2.1796,-2.1796,-2.1796,-2.1922,-2.195,-2.1985,-2.1782,-2.1744,-2.1821,-2.1771,-2.1889,-2.2127,-2.2452,-2.2139,-2.1103,-2.1546,-2.2002,-2.2343,-2.2626,-2.3076,-2.3706,-2.4269,-2.4917,-2.5705,-2.6382,-2.7152,-1.4725,-1.4784,0.0,-1.521,-1.5041,-1.4941,-1.542,0.0,0.0,0.0,-1.5184,-1.5206,-1.5507,-1.5363,0.0,-1.5641,-1.5775,-1.6005,-1.6278,-1.6558,-1.6677,-1.6677,-1.6677,-1.6677,-1.6677,-1.6842,-1.6994,-1.7108,-1.7102,-1.7197,-1.7472,-1.7327,-1.735,-1.7504,-1.7621,-1.7677,-1.7677,-1.7781,-1.7837,-1.7837,-1.7837,-1.7837,-1.783,-1.7596,-1.7485,-1.7485,-1.7661,-1.7778,-1.7889,-1.8194,-1.8596,-1.8939,-1.9062,-1.9243,-1.9424,-1.9424,-1.9424,-1.9424,-1.9424,-1.9746,-2.0173,-2.0173,-2.069,-2.1362,-2.1544,-2.167,-2.1859,-2.2048,-2.2111,-2.2111,-2.223,-2.2299,-2.2299,-2.2111,-2.2111,-2.2111,-2.2111,-2.2111,-2.2111,-2.2111,-2.2111,-2.2111,-2.2111,-2.2111,-2.2111,-2.2111,-2.2111,-2.2174,-2.2299,-2.2299,-2.2425,-2.2668,-2.2565,-2.2574,-2.2874,-2.2824,-2.2819,-2.3059,-2.3236,-2.3043,-2.2354,-2.2679,-2.2967,-2.3205,-2.3599,-2.4097,-2.4828,-2.5267,-2.5917,-2.6624,-2.7429,-2.8088,-1.5146,-1.5106,0.0,-1.5561,-1.5591,0.0,-1.5688,-1.5552,-1.5452,-1.5697,0.0,-1.5949,-1.617,-1.5879,-1.5686,-1.5969,-1.6017,-1.6106,-1.6381,-1.6611,-1.6783,-1.6783,-1.6783,-1.6783,-1.6783,-1.6783,-1.6898,-1.7111,-1.7137,-1.7258,-1.7475,-1.7488,-1.7445,-1.747,-1.778,-1.797,-1.797,-1.8218,-1.8358,-1.8383,-1.8383,-1.8396,-1.8363,-1.7837,-1.7596,-1.7602,-1.7908,-1.82,-1.8473,-1.8765,-1.8939,-1.8997,-1.9301,-1.9424,-1.9424,-1.9424,-1.9424,-1.9424,-1.9424,-1.9733,-2.0194,-2.0227,-2.0855,-2.1636,-2.1664,-2.1922,-2.2174,-2.2174,-2.2167,-2.2237,-2.2543,-2.2668,-2.2543,-2.223,-2.2167,-2.2167,-2.2167,-2.2167,-2.2167,-2.2167,-2.2167,-2.2167,-2.2167,-2.2167,-2.2174,-2.2237,-2.2237,-2.2362,-2.2668,-2.2738,-2.2981,-2.3611,-2.3673,-2.3798,-2.4046,-2.3825,-2.3711,-2.3703,-2.3779,-2.3905,-2.4268,-2.4204,-2.4172,-2.4164,-2.476,-2.5419,-2.6026,-2.6437,-2.6972,-2.7664,-2.8573,-2.9044,-1.5548,-1.5655,0.0,0.0,-1.6308,-1.6352,-1.609,-1.6367,-1.6543,-1.605,-1.6197,-1.6465,-1.648,-1.6447,-1.6449,-1.6697,-1.681,-1.6921,-1.721,-1.7343,-1.7424,-1.7424,-1.7424,-1.7424,-1.7424,-1.7424,-1.745,-1.7516,-1.7317,-1.7287,-1.7566,-1.7312,-1.7304,-1.7464,-1.759,-1.7621,-1.7621,-1.7678,-1.7818,-1.8097,-1.8097,-1.8211,-1.8421,-1.824,-1.8181,-1.8181,-1.8305,-1.848,-1.8823,-1.8874,-1.9062,-1.9307,-1.9366,-1.9424,-1.9424,-1.9424,-1.9424,-1.9424,-1.9424,-1.9775,-2.0285,-2.0516,-2.108,-2.1727,-2.2222,-2.2425,-2.2543,-2.2801,-2.2863,-2.2918,-2.2981,-2.2981,-2.2981,-2.2918,-2.2863,-2.2863,-2.2863,-2.2863,-2.2863,-2.2863,-2.2863,-2.2863,-2.2863,-2.2863,-2.2981,-2.323,-2.33,-2.3425,-2.3736,-2.3798,-2.386,-2.3984,-2.3984,-2.4046,-2.4108,-2.4286,-2.4501,-2.4747,-2.5051,-2.5307,-2.5663,-2.4884,-2.4584,-2.4818,-2.5452,-2.6004,-2.6362,-2.6979,-2.7762,-2.8669,-2.8879,-2.939,-1.593,0.0,0.0,-1.6505,0.0,-1.6902,-1.6492,-1.6897,-1.7211,-1.6639,-1.6742,-1.6918,-1.6831,-1.6683,-1.6686,-1.6939,-1.7155,-1.7424,-1.7721,-1.787,-1.8003,-1.8003,-1.8003,-1.795,-1.7799,-1.7799,-1.7747,-1.7635,-1.7483,-1.7444,-1.7595,-1.7448,-1.7406,-1.7555,-1.7644,-1.7721,-1.7721,-1.7913,-1.8056,-1.8268,-1.8342,-1.8614,-1.8894,-1.8538,-1.8473,-1.8648,-1.8648,-1.8829,-1.912,-1.912,-1.9243,-1.9424,-1.9424,-1.9424,-1.9424,-1.9424,-1.9424,-1.9424,-1.954,-1.9904,-2.0374,-2.0796,-2.1336,-2.1944,-2.245,-2.2738,-2.2863,-2.3043,-2.3106,-2.3106,-2.3106,-2.3106,-2.3168,-2.3293,-2.323,-2.3106,-2.3106,-2.3106,-2.3106,-2.3106,-2.3238,-2.3355,-2.3355,-2.3479,-2.3666,-2.3798,-2.386,-2.3922,-2.4108,-2.4108,-2.417,-2.4293,-2.4487,-2.4672,-2.4795,-2.5157,-2.5402,-2.5594,-2.5717,-2.6083,-2.6571,-2.6089,-2.588,-2.5999,-2.6456,-2.6974,-2.7481,-2.7955,-2.8587,-2.9272,-2.9568,-3.0039,-1.6319,0.0,-1.6474,-1.6822,-1.7159,0.0,-1.6927,-1.7281,-1.7628,-1.7283,-1.7334,-1.738,-1.7207,-1.6972,-1.6855,-1.7069,-1.7366,-1.7646,-1.7957,-1.8198,-1.8422,-1.8422,-1.8422,-1.8318,-1.8069,-1.8069,-1.7957,-1.774,-1.774,-1.774,-1.774,-1.774,-1.774,-1.7687,-1.7889,-1.7969,-1.7916,-1.821,-1.8357,-1.8417,-1.8704,-1.9005,-1.9292,-1.8758,-1.8668,-1.8997,-1.8997,-1.912,-1.9424,-1.9424,-1.9424,-1.9424,-1.9424,-1.9424,-1.9424,-1.9424,-1.9424,-1.9482,-1.97,-2.0038,-2.0482,-2.1075,-2.1665,-2.2187,-2.2561,-2.2863,-2.3106,-2.3106,-2.3168,-2.3175,-2.3175,-2.3238,-2.3355,-2.3611,-2.3479,-2.3293,-2.3293,-2.3293,-2.3293,-2.3293,-2.3487,-2.3673,-2.3673,-2.3922,-2.4108,-2.417,-2.417,-2.4232,-2.4355,-2.4363,-2.4479,-2.4849,-2.5103,-2.5357,-2.5664,-2.5961,-2.6136,-2.6258,-2.6258,-2.6571,-2.7254,-2.7254,-2.7315,-2.7435,-2.765,-2.8011,-2.8576,-2.8984,-2.9331,-2.9736,-3.0265,-3.0675,-1.6824,0.0,-1.6836,0.0,-1.7149,-1.7384,0.0,0.0,-1.7847,0.0,-1.7802,-1.7994,-1.7947,-1.7721,-1.7549,-1.7594,-1.7724,-1.7882,-1.7924,-1.8168,-1.8422,-1.8422,-1.8422,-1.837,-1.837,-1.837,-1.8318,-1.8318,-1.8265,-1.8265,-1.8265,-1.8265,-1.8213,-1.7964,-1.8005,-1.7913,-1.7642,-1.7682,-1.7829,-1.8083,-1.8397,-1.8698,-1.8985,-1.8864,-1.9004,-1.9307,-1.9307,-1.9366,-1.9424,-1.9424,-1.9424,-1.9424,-1.9424,-1.9424,-1.9424,-1.9424,-1.954,-1.9758,-1.9815,-2.0183,-2.0765,-2.1415,-2.1891,-2.2292,-2.2868,-2.3043,-2.3106,-2.3106,-2.33,-2.3549,-2.3549,-2.3736,-2.3984,-2.4046,-2.3984,-2.3984,-2.3984,-2.3984,-2.3984,-2.3984,-2.3984,-2.4046,-2.4046,-2.4046,-2.417,-2.4479,-2.4548,-2.4734,-2.5296,-2.5418,-2.5541,-2.5892,-2.5953,-2.5953,-2.6014,-2.6075,-2.6319,-2.6952,-2.6952,-2.7246,-2.784,-2.79,-2.814,-2.8746,-2.8806,-2.8865,-2.8925,-2.9509,-3.0089,-3.0733,-3.0791,-3.1141,-1.7098,-1.7157,-1.727,0.0,-1.7605,-1.7796,-1.7745,-1.8011,-1.8263,-1.8191,-1.8406,-1.8498,-1.8141,-1.7994,-1.79,-1.79,-1.8118,-1.8345,-1.8538,-1.8751,-1.8898,-1.9138,-1.9004,-1.8855,-1.8698,-1.8698,-1.8593,-1.8422,-1.8422,-1.8422,-1.8422,-1.8422,-1.837,-1.822,-1.822,-1.8167,-1.8055,-1.8055,-1.8153,-1.8299,-1.8231,-1.8397,-1.8684,-1.8844,-1.9085,-1.9424,-1.9424,-1.9424,-1.9424,-1.9424,-1.9424,-1.9424,-1.9424,-1.9424,-1.9424,-1.9591,-1.97,-1.9873,-2.0213,-2.0493,-2.0823,-2.1712,-2.2057,-2.2301,-2.2923,-2.3238,-2.3362,-2.3362,-2.3611,-2.386,-2.386,-2.3984,-2.417,-2.4363,-2.4363,-2.4425,-2.461,-2.4355,-2.417,-2.4355,-2.4363,-2.4487,-2.4857,-2.4919,-2.5042,-2.5402,-2.5464,-2.5525,-2.5839,-2.59,-2.5961,-2.6075,-2.6449,-2.664,-2.664,-2.6987,-2.7297,-2.7608,-2.7608,-2.7908,-2.8558,-2.8558,-2.8856,-2.9518,-2.9153,-2.9163,-2.9518,-3.0157,-3.0616,-3.0908,-3.1257,-3.186,0.0,0.0,-1.7539,-1.7796,-1.799,-1.8118,0.0,0.0,-1.8629,0.0,-1.8804,-1.8896,-1.84,-1.8303,-1.8272,-1.8234,-1.8424,-1.8682,-1.8934,-1.9181,-1.9378,-1.9633,-1.9583,-1.9428,-1.9227,-1.9175,-1.9063,-1.8736,-1.8736,-1.8684,-1.8632,-1.8632,-1.8586,-1.8534,-1.8534,-1.8482,-1.8422,-1.8422,-1.8436,-1.8466,-1.8198,-1.83,-1.8597,-1.882,-1.9124,-1.9483,-1.9448,-1.9424,-1.9424,-1.9424,-1.9424,-1.9424,-1.9482,-1.9482,-1.9533,-1.9815,-1.9982,-2.0097,-2.0551,-2.078,-2.1003,-2.1905,-2.2244,-2.2414,-2.3046,-2.3487,-2.3736,-2.3736,-2.3984,-2.4232,-2.4232,-2.4293,-2.4417,-2.4795,-2.4857,-2.4919,-2.5173,-2.4857,-2.4602,-2.4911,-2.4972,-2.5165,-2.5664,-2.5725,-2.5778,-2.6075,-2.6075,-2.6136,-2.6327,-2.6319,-2.638,-2.6562,-2.7056,-2.7306,-2.7306,-2.7719,-2.808,-2.8259,-2.8259,-2.8558,-2.9222,-2.9222,-2.9509,-3.0157,-2.9686,-2.9686,-3.0157,-3.0733,-3.1082,-3.1257,-3.1898,-3.2711,0.0,-1.7608,0.0,-1.8,-1.81,0.0,0.0,0.0,-1.8681,-1.8621,-1.8854,-1.9091,-1.8985,-1.8833,-1.8697,-1.852,-1.8573,-1.8598,-1.8621,-1.9185,-1.9613,-1.9578,-1.9844,-2.0027,-2.0034,-2.0034,-1.9931,-1.9628,-1.9628,-1.9524,-1.9272,-1.9279,-1.9123,-1.8869,-1.8869,-1.8705,-1.8422,-1.8422,-1.8377,-1.8391,-1.8398,-1.8558,-1.8859,-1.8879,-1.9207,-1.9794,-1.9527,-1.9424,-1.9424,-1.9424,-1.9424,-1.9424,-1.9707,-1.9758,-1.9815,-2.0155,-2.0436,-2.0658,-2.0716,-2.0902,-2.1313,-2.1972,-2.2408,-2.2812,-2.3409,-2.3798,-2.4046,-2.4046,-2.4293,-2.4548,-2.4548,-2.4795,-2.5111,-2.548,-2.5549,-2.5549,-2.5549,-2.5549,-2.5602,-2.5953,-2.6014,-2.6014,-2.6075,-2.6075,-2.6075,-2.6075,-2.6075,-2.6327,-2.6952,-2.7073,-2.7246,-2.784,-2.796,-2.796,-2.796,-2.796,-2.8259,-2.8925,-2.8925,-2.9222,-2.9804,-2.9863,-3.0157,-3.085,-3.0791,-3.0791,-3.085,-3.115,-3.1614,-3.2258,-3.2977,-3.3532,0.0,0.0,0.0,-1.8054,-1.822,-1.8368,-1.8661,-1.8782,-1.8919,-1.8974,-1.9075,-1.9236,-1.9404,-1.9377,-1.9304,-1.922,-1.9233,-1.9246,-1.932,-1.9382,-1.9509,-1.9803,-1.9806,-1.9857,-2.0063,-2.0078,-2.0078,-1.9983,-1.9983,-1.9931,-1.9828,-1.9828,-1.968,-1.9428,-1.9428,-1.9272,-1.8959,-1.8803,-1.8705,-1.8705,-1.8482,-1.8478,-1.8597,-1.8793,-1.901,-1.9248,-1.9534,-1.9752,-1.9989,-1.9989,-1.9989,-1.9989,-2.0104,-2.0097,-2.0162,-2.0436,-2.0608,-2.0716,-2.096,-2.1089,-2.1284,-2.195,-2.2408,-2.2834,-2.3399,-2.3994,-2.4417,-2.4417,-2.4672,-2.498,-2.5173,-2.5357,-2.548,-2.5839,-2.59,-2.5961,-2.6214,-2.6083,-2.5961,-2.6075,-2.6075,-2.6197,-2.6388,-2.6571,-2.6813,-2.6978,-2.7168,-2.7418,-2.7668,-2.7668,-2.7779,-2.796,-2.8379,-2.8618,-2.8618,-2.8975,-2.9331,-2.9568,-2.9577,-2.9863,-3.0499,-3.0558,-3.0859,-3.1498,-3.1498,-3.1498,-3.1498,-3.1787,-3.2286,-3.3025,-3.348,-3.4344,-1.8245,0.0,0.0,0.0,-1.8425,-1.8666,-1.8852,-1.9065,-1.9194,-1.9246,-1.9285,-1.9377,-1.9522,-1.9725,-1.9793,-1.9608,-1.9587,-1.9624,-1.9668,-1.961,-1.967,-1.9987,-2.0006,-2.0061,-2.0448,-2.0386,-2.0322,-2.0388,-2.0292,-2.0189,-2.0078,-2.0078,-2.0034,-1.9828,-1.9828,-1.9732,-1.9576,-1.9279,-1.9175,-1.9175,-1.8855,-1.8691,-1.8698,-1.8904,-1.9113,-1.9241,-1.9654,-1.9906,-2.0123,-2.0228,-2.027,-2.0328,-2.0385,-2.0436,-2.05,-2.0788,-2.0845,-2.0902,-2.1261,-2.1382,-2.1491,-2.2042,-2.2598,-2.3102,-2.3626,-2.433,-2.4926,-2.4926,-2.5165,-2.5472,-2.5725,-2.5847,-2.6031,-2.6388,-2.6501,-2.6675,-2.6995,-2.6753,-2.6449,-2.6554,-2.6675,-2.6805,-2.7056,-2.7246,-2.7487,-2.7642,-2.7831,-2.808,-2.8319,-2.8319,-2.8439,-2.8618,-2.9035,-2.9272,-2.9272,-2.9686,-2.9981,-3.0216,-3.0216,-3.0509,-3.1199,-3.1347,-3.1649,-3.2183,-3.2451,-3.2639,-3.2755,-3.2717,-3.3045,-3.3793,-3.4418,-3.5446,0.0,0.0,0.0,0.0,0.0,0.0,-1.926,-1.9445,-1.9548,-1.9341,-1.9479,-1.9515,-1.925,-1.9871,-2.0219,-1.9733,-1.9625,-1.9633,-1.9633,-1.9914,-2.0091,-2.0099,-2.0365,-2.0727,-2.1164,-2.0949,-2.0845,-2.0877,-2.066,-2.0395,-2.0181,-2.013,-2.013,-2.0138,-2.0078,-2.0078,-2.0078,-1.9828,-1.9732,-1.9732,-1.9428,-1.9324,-1.9324,-1.9324,-1.95,-1.9801,-1.9808,-1.9834,-1.9801,-2.018,-2.0321,-2.0328,-2.0608,-2.0716,-2.078,-2.1089,-2.1211,-2.1268,-2.1611,-2.1725,-2.1835,-2.2389,-2.3068,-2.3629,-2.4032,-2.4817,-2.561,-2.561,-2.5839,-2.6075,-2.6136,-2.6388,-2.6692,-2.7073,-2.7358,-2.7581,-2.796,-2.7547,-2.7254,-2.7461,-2.7771,-2.802,-2.802,-2.802,-2.802,-2.802,-2.808,-2.8319,-2.8925,-2.9044,-2.9281,-2.9863,-2.9941,-2.9941,-2.9941,-2.996,-3.0254,-3.0947,-3.0947,-3.1238,-3.1828,-3.2309,-3.2648,-3.2921,-3.3716,-3.432,-3.4627,-3.3862,-3.3872,-3.4696,-3.5767,-3.6829,-1.8818,0.0,0.0,0.0,0.0,0.0,-1.9045,-1.9241,-1.9437,-1.9689,-1.976,-1.9777,-1.9707,-1.9902,-2.0063,-2.0175,-2.0418,-2.051,-2.0155,-2.0203,-2.0218,-2.0113,-2.019,-2.0396,-2.0719,-2.0712,-2.0761,-2.1079,-2.1062,-2.1067,-2.1251,-2.0909,-2.0609,-2.0411,-2.0189,-2.0078,-2.0078,-2.0034,-1.9983,-1.9983,-1.9931,-1.9879,-1.9879,-1.9879,-1.9828,-1.9732,-1.997,-1.9964,-1.9845,-2.0339,-2.0707,-2.0974,-2.1031,-2.1089,-2.1081,-2.1439,-2.1554,-2.1611,-2.1888,-2.2002,-2.2074,-2.2459,-2.3041,-2.3708,-2.4284,-2.4996,-2.5672,-2.59,-2.6014,-2.6197,-2.67,-2.7056,-2.734,-2.7659,-2.7779,-2.79,-2.796,-2.8259,-2.8319,-2.7951,-2.796,-2.8071,-2.831,-2.8549,-2.8797,-2.8957,-2.9203,-2.945,-2.9627,-2.9627,-2.9686,-2.9863,-3.0592,-3.1072,-3.1072,-3.179,-3.2336,-3.2575,-3.2575,-3.2753,-3.3099,-3.3458,-3.3827,-3.4112,-3.4602,-3.5011,-3.5399,-3.4874,-3.5013,-3.5778,-3.691,-3.7757,0.0,0.0,0.0,0.0,0.0,0.0,-1.8919,-1.9271,-1.9583,-1.9745,-1.9818,-1.9899,-1.9913,-2.0058,-2.0245,-2.0455,-2.0832,-2.0986,-2.0647,-2.06,-2.0542,-2.0482,-2.047,-2.0568,-2.0816,-2.0755,-2.0818,-2.1096,-2.1023,-2.1131,-2.1494,-2.1347,-2.1173,-2.1027,-2.0858,-2.0696,-2.0601,-2.0498,-2.0395,-2.0248,-2.0138,-2.0078,-2.0078,-2.0078,-2.0027,-1.9894,-2.0091,-2.0152,-2.0157,-2.0483,-2.0866,-2.1247,-2.1494,-2.1603,-2.1603,-2.1782,-2.1896,-2.1896,-2.223,-2.2286,-2.24,-2.2853,-2.3433,-2.4106,-2.4584,-2.5326,-2.6092,-2.6449,-2.6684,-2.6987,-2.7366,-2.7599,-2.7831,-2.8319,-2.8439,-2.8498,-2.8737,-2.9094,-2.9213,-2.8558,-2.8618,-2.8856,-2.9025,-2.9411,-2.9711,-2.9871,-3.0319,-3.0682,-3.0811,-3.099,-3.1099,-3.1278,-3.185,-3.2237,-3.2237,-3.2795,-3.3316,-3.3545,-3.3605,-3.3774,-3.4191,-3.4546,-3.489,-3.5079,-3.5746,-3.6329,-3.679,-3.5967,-3.6038,-3.6921,-3.7746,-3.8238,0.0,0.0,0.0,0.0,0.0,0.0,-1.8974,-1.9439,-1.9863,-1.9724,-1.9889,-1.9981,-1.9981,-2.0284,-2.056,-2.0607,-2.0898,-2.109,-2.1007,-2.1025,-2.0989,-2.0988,-2.0997,-2.1048,-2.118,-2.0983,-2.0904,-2.1033,-2.086,-2.089,-2.123,-2.1528,-2.1718,-2.1667,-2.1658,-2.1573,-2.1377,-2.1121,-2.0873,-2.0617,-2.0395,-2.0233,-2.0233,-2.0233,-2.0181,-2.0138,-2.0138,-2.0306,-2.0536,-2.0627,-2.0886,-2.1309,-2.1828,-2.2078,-2.2116,-2.2108,-2.2173,-2.223,-2.257,-2.274,-2.2853,-2.336,-2.4065,-2.4709,-2.4994,-2.5804,-2.67,-2.7073,-2.7608,-2.802,-2.808,-2.814,-2.8259,-2.8916,-2.9103,-2.9281,-2.9804,-2.9981,-2.9882,-2.9396,-2.9643,-2.9998,-3.0047,-3.0458,-3.0803,-3.0863,-3.1481,-3.1956,-3.2289,-3.2592,-3.2894,-3.3185,-3.3296,-3.3386,-3.3447,-3.3487,-3.3748,-3.4336,-3.4336,-3.4645,-3.5248,-3.5631,-3.5905,-3.5905,-3.6986,-3.7818,-3.838,-3.7089,-3.6981,-3.7998,-3.8309,-3.8596,0.0,0.0,0.0,0.0,0.0,0.0,-1.9098,-1.9519,-1.9962,-2.0275,-2.0513,-2.0664,-2.0489,-2.04,-2.0416,-2.056,-2.0683,-2.0786,-2.1058,-2.108,-2.1057,-2.1006,-2.0997,-2.1024,-2.1058,-2.0977,-2.1098,-2.1447,-2.1677,-2.1696,-2.138,-2.1688,-2.1694,-2.1312,-2.1585,-2.1674,-2.1623,-2.1573,-2.1522,-2.1479,-2.142,-2.1267,-2.1062,-2.1062,-2.0814,-2.0411,-2.0411,-2.0339,-2.0252,-2.073,-2.1148,-2.1557,-2.1681,-2.1872,-2.2116,-2.24,-2.2626,-2.2845,-2.3191,-2.3472,-2.3697,-2.3809,-2.4294,-2.5052,-2.5635,-2.6397,-2.7133,-2.7668,-2.79,-2.814,-2.8677,-2.8806,-2.8975,-2.9577,-2.9745,-2.9745,-2.9863,-3.0333,-3.0772,-3.0993,-3.0723,-3.0603,-3.112,-3.1558,-3.2101,-3.2634,-3.2835,-3.2945,-3.3015,-3.3065,-3.3185,-3.3475,-3.4102,-3.457,-3.4872,-3.5449,-3.5842,-3.5964,-3.5964,-3.6025,-3.6146,-3.6717,-3.7062,-3.7062,-3.7834,-3.8261,-3.838,-3.81,-3.8209,-3.8633,-3.8693,-3.906,0.0,0.0,0.0,-1.9374,0.0,0.0,0.0,-1.9605,-2.0046,-2.0169,-2.0667,-2.1012,-2.0925,-2.0819,-2.0761,-2.0869,-2.0898,-2.0963,-2.1125,-2.1315,-2.1435,-2.1401,-2.1594,-2.1678,-2.1544,-2.141,-2.1356,-2.1281,-2.1624,-2.1752,-2.1517,-2.1826,-2.1985,-2.1938,-2.196,-2.2046,-2.2072,-2.1979,-2.1818,-2.1725,-2.1725,-2.1623,-2.1522,-2.1522,-2.1369,-2.1121,-2.1121,-2.1011,-2.0917,-2.1246,-2.1586,-2.1951,-2.2182,-2.2481,-2.2845,-2.3135,-2.336,-2.3464,-2.3641,-2.3809,-2.3968,-2.4239,-2.4847,-2.5627,-2.6273,-2.7055,-2.7917,-2.8388,-2.8618,-2.8856,-2.9331,-2.945,-2.9627,-3.0274,-3.0382,-3.0499,-3.0801,-3.1318,-3.177,-3.1988,-3.2266,-3.2433,-3.2336,-3.2733,-3.3153,-3.369,-3.4065,-3.439,-3.4512,-3.4694,-3.4876,-3.4987,-3.5388,-3.5646,-3.5829,-3.6335,-3.6717,-3.69,-3.7093,-3.7214,-3.7407,-3.7698,-3.7927,-3.8085,-3.8585,-3.8905,-3.9094,-3.9249,-3.9238,-3.9049,-3.9238,-3.9544,0.0,0.0,0.0,0.0,0.0,-1.9318,0.0,0.0,0.0,-2.0093,0.0,0.0,0.0,0.0,0.0,-2.1205,0.0,0.0,0.0,-2.153,0.0,-2.1703,-2.2029,-2.224,-2.2073,-2.1917,-2.1687,-2.1311,-2.1572,-2.1714,-2.1631,-2.1951,-2.2268,-2.2483,-2.2439,-2.242,-2.2515,-2.2391,-2.2232,-2.203,-2.1979,-2.1928,-2.1869,-2.1827,-2.1725,-2.1725,-2.1725,-2.1725,-2.1725,-2.1725,-2.1948,-2.2352,-2.2735,-2.3098,-2.3487,-2.3776,-2.3921,-2.3977,-2.408,-2.4136,-2.4248,-2.4787,-2.5527,-2.6357,-2.7093,-2.7944,-2.8755,-2.9103,-2.939,-2.9686,-2.9981,-3.0098,-3.0274,-3.0908,-3.1082,-3.1199,-3.1787,-3.2314,-3.2717,-3.2867,-3.3827,-3.4328,-3.3618,-3.3923,-3.433,-3.4635,-3.519,-3.5737,-3.6034,-3.6351,-3.6534,-3.6667,-3.6667,-3.6728,-3.6789,-3.7011,-3.7314,-3.7566,-3.7878,-3.813,-3.8488,-3.8608,-3.8775,-3.9037,-3.9356,-3.9603,-3.9861,-4.006,-3.9931,-3.9473,-3.9732,-4.0025,0.0,0.0,0.0,0.0,-1.9704,0.0,0.0,0.0,-2.0843,-2.0644,0.0,0.0,0.0,0.0,0.0,0.0,0.0,0.0,-2.1198,-2.154,-2.1666,-2.1332,-2.1613,-2.1858,-2.1858,-2.2136,-2.2299,-2.2255,-2.2302,-2.2108,-2.1715,-2.2044,-2.2096,-2.1733,-2.235,-2.2682,-2.2677,-2.307,-2.3247,-2.3197,-2.2946,-2.2686,-2.2375,-2.2173,-2.1928,-2.1725,-2.1725,-2.1725,-2.1725,-2.1725,-2.1948,-2.2328,-2.2663,-2.3033,-2.3349,-2.3741,-2.4089,-2.4376,-2.4629,-2.4842,-2.511,-2.5459,-2.6276,-2.7337,-2.845,-2.902,-2.945,-2.9745,-2.9804,-2.9981,-3.0616,-3.0791,-3.0966,-3.1556,-3.1672,-3.1787,-3.2113,-3.2758,-3.3503,-3.4212,-3.5002,-3.5339,-3.4743,-3.5178,-3.5786,-3.6093,-3.6207,-3.6412,-3.6757,-3.6818,-3.7071,-3.7698,-3.7758,-3.7818,-3.813,-3.8201,-3.8249,-3.8249,-3.832,-3.8488,-3.8752,-3.9344,-3.9767,-4.0048,-4.0106,-4.0118,-4.0176,-4.0165,-4.0165,-4.0106,-4.0118,-4.0351,0.0,0.0,0.0,0.0,0.0,0.0,-2.0606,0.0,-2.1377,0.0,0.0,0.0,0.0,0.0,0.0,0.0,-2.1807,0.0,0.0,0.0,-2.1598,-2.1557,0.0,-2.2194,-2.2192,-2.2375,-2.2438,-2.2422,-2.2397,-2.2309,-2.2132,-2.229,-2.2351,-2.241,-2.2661,-2.2925,-2.3151,-2.33,-2.3397,-2.3397,-2.3297,-2.3147,-2.3038,-2.2896,-2.2787,-2.2695,-2.2695,-2.2695,-2.2695,-2.2695,-2.2789,-2.2996,-2.3582,-2.3781,-2.3892,-2.4658,-2.5026,-2.5191,-2.5293,-2.5404,-2.5639,-2.6603,-2.749,-2.8264,-2.9266,-2.9627,-2.9863,-3.0323,-3.0499,-3.0616,-3.1257,-3.1431,-3.1546,-3.218,-3.2295,-3.2529,-3.3247,-3.3906,-3.4555,-3.5397,-3.6155,-3.6658,-3.6609,-3.6517,-3.6585,-3.6961,-3.7143,-3.7396,-3.7758,-3.7758,-3.7878,-3.819,-3.8358,-3.8466,-3.8645,-3.9001,-3.9178,-3.9178,-3.9356,-3.9473,-3.9627,-3.9873,-4.0118,-4.0223,-4.0421,-4.0595,-4.0757,-4.0918,-4.1091,-4.1287,-4.0769,-4.0665,-2.2164,0.0,0.0,0.0,0.0,0.0,0.0,0.0,0.0,0.0,0.0,0.0,0.0,0.0,0.0,0.0,0.0,-2.2138,0.0,-2.1845,0.0,0.0,0.0,0.0,-2.2505,-2.2611,-2.2679,-2.2635,-2.2726,-2.274,-2.2618,-2.2564,-2.2663,-2.2822,-2.3038,-2.3268,-2.3564,-2.3739,-2.3795,-2.3795,-2.3746,-2.3696,-2.3696,-2.3546,-2.3497,-2.3497,-2.3397,-2.3397,-2.3397,-2.3447,-2.3497,-2.3568,-2.4508,-2.4782,-2.4719,-2.5447,-2.5743,-2.5798,-2.5898,-2.6063,-2.6363,-2.7612,-2.8389,-2.8993,-2.9899,-3.0216,-3.0392,-3.0966,-3.1199,-3.1363,-3.1893,-3.2123,-3.2295,-3.281,-3.3037,-3.3334,-3.4372,-3.5016,-3.5617,-3.6399,-3.7177,-3.7747,-3.8107,-3.7676,-3.7374,-3.7626,-3.7927,-3.8298,-3.8608,-3.8727,-3.8786,-3.8905,-3.906,-3.9156,-3.9156,-3.9638,-3.9931,-4.0048,-4.0351,-4.0525,-4.0571,-4.0699,-4.0699,-4.0699,-4.0942,-4.1184,-4.1471,-4.1618,-4.1846,-4.2098,-4.1414,-4.1184,0.0,0.0,0.0,-2.1905,0.0,0.0,0.0,0.0,-2.2241,0.0,0.0,0.0,0.0,0.0,0.0,0.0,0.0,0.0,0.0,0.0,0.0,0.0,0.0,0.0,0.0,-2.2894,-2.3165,-2.3175,-2.3556,-2.358,-2.3091,-2.3091,-2.2882,-2.2416,-2.3246,-2.3682,-2.3691,-2.4467,-2.4833,-2.4833,-2.4587,-2.448,-2.443,-2.3935,-2.3678,-2.3678,-2.3488,-2.3397,-2.3397,-2.3587,-2.3678,-2.3809,-2.5228,-2.5759,-2.5767,-2.5721,-2.5852,-2.6127,-2.6436,-2.6935,-2.751,-2.8397,-2.8841,-2.9286,-3.0528,-3.1034,-3.1325,-3.1672,-3.195,-3.2227,-3.2571,-3.2913,-3.3208,-3.3512,-3.3805,-3.4272,-3.5078,-3.5846,-3.662,-3.7389,-3.8022,-3.8429,-3.8752,-3.8537,-3.838,-3.838,-3.8585,-3.8871,-3.9249,-3.9532,-3.9873,-4.0106,-4.0165,-4.0165,-4.0165,-4.0165,-4.0339,-4.0617,-4.0988,-4.1287,-4.1549,-4.1859,-4.2041,-4.2041,-4.2054,-4.2041,-4.2041,-4.2098,-4.211,-4.211,-4.2041,-4.2041,-2.3564,-2.3307,-2.3039,-2.3039,0.0,0.0,0.0,0.0,0.0,0.0,0.0,0.0,0.0,0.0,0.0,0.0,0.0,0.0,0.0,0.0,0.0,0.0,0.0,0.0,0.0,-2.2452,-2.2666,-2.3146,-2.3328,-2.3453,-2.356,-2.358,-2.3493,-2.3319,-2.3736,-2.404,-2.4183,-2.4526,-2.4754,-2.4883,-2.4784,-2.4784,-2.4784,-2.4578,-2.448,-2.4489,-2.444,-2.439,-2.439,-2.4489,-2.4697,-2.5045,-2.575,-2.6239,-2.6507,-2.674,-2.689,-2.6999,-2.7098,-2.753,-2.8159,-2.901,-2.9626,-3.0185,-3.1172,-3.1662,-3.195,-3.2295,-3.2638,-3.2924,-3.3218,-3.3558,-3.3851,-3.4132,-3.4708,-3.5351,-3.619,-3.6967,-3.7751,-3.8589,-3.9064,-3.9414,-3.9697,-3.9638,-3.9532,-3.9356,-3.9521,-3.9755,-3.9884,-3.9989,-4.0165,-4.0513,-4.0757,-4.093,-4.1091,-4.1332,-4.1516,-4.1631,-4.1745,-4.1814,-4.1928,-4.2041,-4.211,-4.211,-4.211,-4.2211,-4.2369,-4.2369,-4.2481,-4.2706,-4.2706,-4.2481,-2.4314,-2.4121,-2.3928,-2.3748,-2.3629,0.0,-2.3593,0.0,-2.3556,0.0,0.0,0.0,0.0,0.0,0.0,0.0,0.0,0.0,0.0,-2.2852,0.0,0.0,0.0,0.0,0.0,-2.2416,-2.2721,-2.3361,-2.3483,-2.3684,-2.4036,-2.397,-2.3884,-2.3797,-2.4097,-2.4391,-2.47,-2.49,-2.5188,-2.547,-2.547,-2.547,-2.547,-2.5372,-2.5323,-2.5323,-2.5216,-2.5167,-2.5167,-2.5274,-2.5623,-2.6106,-2.6572,-2.7008,-2.7443,-2.7538,-2.7691,-2.7906,-2.796,-2.8281,-2.8749,-2.9628,-3.0349,-3.0964,-3.1858,-3.241,-3.2753,-3.298,-3.3321,-3.3727,-3.3907,-3.4244,-3.459,-3.4802,-3.5558,-3.6376,-3.7064,-3.7976,-3.8816,-3.9498,-3.9873,-4.0223,-4.0525,-4.0629,-4.0571,-4.0165,-4.0351,-4.0583,-4.0687,-4.0803,-4.0988,-4.1148,-4.1402,-4.1573,-4.1732,-4.2086,-4.2268,-4.2425,-4.2481,-4.2594,-4.2719,-4.2719,-4.2719,-4.2719,-4.2719,-4.2831,-4.2986,-4.2986,-4.3098,-4.3321,-4.3321,-4.3111]},{"header":{"parameterUnit":"m.s-1","parameterCategory":1,"la1":30.6,"la2":29.2853,"lo1":-89.7004,"lo2":-87.6739,"dy":0.0162,"dx":0.0183,"nx":112,"ny":82,"refTime":"2024-02-26T18:00:00:Z","depth":0,"parameterNumber":3,"parameterNumberName":"V-component_of_WINDS"},"data":[0.0,0.0,0.0,0.0,0.0,0.0,0.0,0.0,0.0,0.0,0.0,0.0,0.0,0.0,0.0,0.0,0.0,0.0,0.0,0.0,0.0,0.0,0.0,0.0,0.0,0.0,0.0,0.0,0.0,0.0,0.0,0.0,0.0,0.0,0.0,0.0,0.0,0.0,0.0,0.0,0.0,0.0,0.0,0.0,0.0,0.0,0.0,0.0,0.0,0.0,0.0,0.0,0.0,0.0,0.0,0.0,0.0,0.0,0.0,0.0,0.0,0.0,0.0,0.0,0.0,0.0,0.0,0.0,0.0,0.0,0.0,0.0,0.0,0.0,0.0,0.0,0.0,0.0,0.0,0.0,0.0,0.0,0.0,0.0,0.0,0.0,0.0,0.0,0.0,0.0,3.2072,3.2808,3.3323,3.3619,3.3605,3.2694,3.1758,3.0862,0.0,0.0,0.0,0.0,0.0,0.0,0.0,0.0,0.0,0.0,0.0,0.0,0.0,0.0,0.0,0.0,0.0,0.0,0.0,0.0,0.0,0.0,0.0,0.0,0.0,0.0,0.0,0.0,0.0,0.0,0.0,0.0,0.0,0.0,0.0,0.0,0.0,0.0,0.0,0.0,0.0,0.0,0.0,0.0,0.0,0.0,0.0,0.0,0.0,0.0,0.0,0.0,0.0,0.0,0.0,0.0,0.0,0.0,0.0,0.0,0.0,0.0,0.0,0.0,0.0,0.0,0.0,0.0,0.0,0.0,0.0,0.0,0.0,0.0,0.0,0.0,0.0,0.0,0.0,0.0,0.0,0.0,0.0,0.0,0.0,0.0,0.0,0.0,0.0,0.0,0.0,0.0,0.0,0.0,0.0,0.0,0.0,0.0,0.0,0.0,0.0,0.0,0.0,0.0,3.2964,3.365,3.3707,3.3657,3.3605,3.2774,3.1836,3.0858,0.0,0.0,0.0,0.0,0.0,0.0,0.0,0.0,0.0,0.0,0.0,0.0,0.0,0.0,0.0,0.0,0.0,0.0,0.0,0.0,0.0,0.0,0.0,0.0,0.0,0.0,0.0,0.0,0.0,0.0,0.0,0.0,0.0,0.0,0.0,0.0,0.0,0.0,0.0,0.0,0.0,0.0,0.0,0.0,0.0,0.0,0.0,0.0,0.0,0.0,0.0,0.0,0.0,0.0,0.0,0.0,0.0,0.0,0.0,0.0,0.0,0.0,0.0,0.0,0.0,0.0,0.0,0.0,0.0,0.0,0.0,0.0,0.0,0.0,0.0,0.0,0.0,0.0,0.0,0.0,0.0,0.0,0.0,0.0,0.0,0.0,0.0,0.0,0.0,0.0,0.0,0.0,0.0,0.0,0.0,0.0,0.0,0.0,0.0,0.0,0.0,0.0,0.0,3.3031,3.3604,3.3871,3.378,3.3671,3.3619,3.3189,3.2349,3.0936,3.0452,0.0,0.0,0.0,0.0,0.0,0.0,0.0,0.0,0.0,0.0,0.0,0.0,0.0,0.0,0.0,0.0,0.0,0.0,0.0,0.0,0.0,0.0,0.0,0.0,0.0,0.0,0.0,0.0,0.0,0.0,0.0,0.0,0.0,0.0,0.0,0.0,0.0,0.0,0.0,0.0,0.0,0.0,0.0,0.0,0.0,0.0,0.0,0.0,0.0,0.0,0.0,0.0,0.0,0.0,0.0,0.0,0.0,0.0,0.0,0.0,0.0,0.0,0.0,0.0,0.0,0.0,0.0,0.0,0.0,0.0,0.0,0.0,0.0,0.0,0.0,0.0,0.0,0.0,0.0,0.0,0.0,0.0,0.0,0.0,0.0,0.0,0.0,0.0,0.0,0.0,0.0,0.0,0.0,0.0,0.0,0.0,0.0,0.0,0.0,0.0,0.0,0.0,3.3673,3.3998,3.3934,3.382,3.3712,3.3633,3.3563,3.2849,3.1313,3.0972,0.0,0.0,0.0,0.0,0.0,0.0,0.0,0.0,0.0,0.0,0.0,0.0,0.0,0.0,0.0,0.0,0.0,0.0,0.0,0.0,0.0,0.0,0.0,0.0,0.0,0.0,0.0,0.0,0.0,0.0,0.0,0.0,0.0,0.0,0.0,0.0,0.0,0.0,0.0,0.0,0.0,0.0,0.0,0.0,0.0,0.0,0.0,0.0,0.0,0.0,0.0,0.0,0.0,0.0,0.0,0.0,0.0,0.0,0.0,0.0,0.0,0.0,0.0,0.0,0.0,0.0,0.0,0.0,0.0,0.0,0.0,0.0,0.0,0.0,0.0,0.0,0.0,0.0,0.0,0.0,0.0,0.0,0.0,0.0,0.0,0.0,0.0,0.0,0.0,0.0,0.0,0.0,0.0,0.0,0.0,0.0,0.0,0.0,0.0,0.0,0.0,0.0,3.4099,3.4074,3.3998,3.3934,3.3829,3.3698,3.3633,3.317,3.2162,3.1349,0.0,0.0,0.0,0.0,0.0,0.0,0.0,0.0,0.0,0.0,0.0,0.0,0.0,0.0,0.0,0.0,0.0,0.0,0.0,0.0,0.0,0.0,0.0,0.0,0.0,0.0,0.0,0.0,0.0,0.0,0.0,0.0,0.0,0.0,0.0,0.0,0.0,0.0,0.0,0.0,0.0,0.0,0.0,0.0,0.0,0.0,0.0,0.0,0.0,0.0,0.0,0.0,0.0,0.0,0.0,0.0,0.0,0.0,0.0,0.0,0.0,0.0,0.0,0.0,0.0,0.0,0.0,0.0,0.0,0.0,0.0,0.0,0.0,0.0,0.0,0.0,0.0,0.0,0.0,0.0,0.0,0.0,0.0,0.0,0.0,0.0,0.0,0.0,0.0,0.0,0.0,0.0,0.0,0.0,0.0,0.0,0.0,0.0,0.0,0.0,0.0,0.0,3.4136,3.4086,0.0,3.3959,3.3855,3.378,3.3698,3.3273,3.2319,0.0,0.0,0.0,0.0,0.0,0.0,0.0,0.0,0.0,0.0,0.0,0.0,0.0,0.0,0.0,0.0,0.0,0.0,0.0,0.0,0.0,0.0,0.0,0.0,0.0,0.0,0.0,0.0,0.0,0.0,0.0,0.0,0.0,0.0,0.0,0.0,0.0,0.0,0.0,0.0,0.0,0.0,0.0,0.0,0.0,0.0,0.0,0.0,0.0,0.0,0.0,0.0,0.0,0.0,0.0,0.0,0.0,0.0,0.0,0.0,0.0,0.0,0.0,0.0,0.0,0.0,0.0,0.0,0.0,0.0,0.0,0.0,0.0,0.0,0.0,0.0,0.0,0.0,0.0,0.0,0.0,0.0,0.0,0.0,0.0,0.0,0.0,0.0,0.0,0.0,0.0,0.0,0.0,0.0,0.0,0.0,0.0,0.0,0.0,0.0,0.0,0.0,3.4159,3.4173,3.4124,0.0,3.3998,3.3895,3.3847,3.3753,3.3424,3.2752,0.0,0.0,0.0,0.0,0.0,0.0,0.0,0.0,0.0,0.0,0.0,0.0,0.0,0.0,0.0,0.0,0.0,0.0,0.0,0.0,0.0,0.0,0.0,0.0,0.0,0.0,0.0,0.0,0.0,0.0,0.0,0.0,0.0,0.0,0.0,0.0,0.0,0.0,0.0,0.0,0.0,0.0,0.0,0.0,0.0,0.0,0.0,0.0,0.0,0.0,0.0,0.0,0.0,0.0,0.0,0.0,0.0,0.0,0.0,0.0,0.0,0.0,0.0,0.0,0.0,0.0,0.0,0.0,0.0,0.0,0.0,0.0,0.0,0.0,0.0,0.0,0.0,0.0,0.0,0.0,0.0,0.0,0.0,0.0,0.0,0.0,0.0,0.0,0.0,0.0,0.0,0.0,0.0,0.0,0.0,0.0,0.0,0.0,0.0,0.0,0.0,0.0,3.4293,3.4264,3.4191,3.413,3.4067,3.3991,3.3926,3.378,3.3671,0.0,0.0,0.0,0.0,0.0,0.0,0.0,0.0,0.0,0.0,0.0,0.0,0.0,0.0,0.0,0.0,0.0,0.0,0.0,0.0,0.0,0.0,0.0,0.0,0.0,0.0,0.0,0.0,0.0,0.0,0.0,0.0,0.0,0.0,0.0,0.0,0.0,0.0,0.0,0.0,0.0,0.0,0.0,0.0,0.0,0.0,0.0,0.0,0.0,0.0,0.0,0.0,0.0,0.0,0.0,0.0,0.0,0.0,0.0,0.0,0.0,0.0,0.0,0.0,0.0,0.0,0.0,0.0,0.0,0.0,0.0,0.0,0.0,0.0,0.0,0.0,0.0,0.0,0.0,0.0,0.0,0.0,0.0,0.0,0.0,0.0,0.0,0.0,0.0,0.0,0.0,0.0,0.0,0.0,0.0,0.0,0.0,0.0,0.0,0.0,0.0,0.0,0.0,3.4305,3.4821,3.5157,3.5095,3.5032,3.4955,3.489,3.4244,3.3775,3.3671,0.0,0.0,0.0,0.0,0.0,0.0,0.0,0.0,0.0,0.0,0.0,0.0,0.0,0.0,0.0,0.0,0.0,0.0,0.0,0.0,0.0,0.0,0.0,0.0,0.0,0.0,0.0,0.0,0.0,0.0,0.0,0.0,0.0,0.0,0.0,0.0,0.0,0.0,0.0,0.0,0.0,0.0,0.0,0.0,0.0,0.0,0.0,0.0,0.0,0.0,0.0,0.0,0.0,0.0,0.0,0.0,0.0,0.0,0.0,0.0,0.0,0.0,0.0,0.0,0.0,0.0,0.0,0.0,0.0,0.0,0.0,0.0,0.0,0.0,0.0,0.0,0.0,0.0,0.0,0.0,0.0,0.0,0.0,0.0,0.0,0.0,0.0,0.0,0.0,0.0,0.0,0.0,0.0,0.0,0.0,0.0,0.0,0.0,0.0,0.0,0.0,0.0,3.486,3.5316,3.5715,3.5994,3.5923,3.5729,3.5375,3.4771,3.4223,3.3771,0.0,0.0,0.0,0.0,0.0,0.0,0.0,0.0,0.0,0.0,0.0,0.0,0.0,0.0,0.0,0.0,0.0,0.0,0.0,0.0,0.0,0.0,0.0,0.0,0.0,0.0,0.0,0.0,0.0,0.0,0.0,0.0,0.0,0.0,0.0,0.0,0.0,0.0,0.0,0.0,0.0,0.0,0.0,0.0,0.0,0.0,0.0,0.0,0.0,0.0,0.0,0.0,0.0,0.0,0.0,0.0,0.0,0.0,0.0,0.0,0.0,0.0,0.0,0.0,0.0,0.0,0.0,0.0,0.0,0.0,0.0,0.0,0.0,0.0,0.0,0.0,0.0,0.0,0.0,0.0,0.0,0.0,0.0,0.0,0.0,0.0,0.0,0.0,0.0,0.0,0.0,0.0,0.0,0.0,0.0,0.0,0.0,0.0,0.0,0.0,0.0,0.0,3.5693,3.5824,3.6124,3.6826,3.6798,3.6422,3.5686,3.5365,3.4852,3.3967,0.0,0.0,0.0,0.0,0.0,0.0,0.0,0.0,0.0,0.0,0.0,0.0,0.0,0.0,0.0,0.0,0.0,0.0,0.0,0.0,0.0,0.0,0.0,0.0,0.0,0.0,0.0,0.0,0.0,0.0,0.0,0.0,0.0,0.0,0.0,0.0,0.0,0.0,0.0,0.0,0.0,0.0,0.0,0.0,0.0,0.0,0.0,0.0,0.0,0.0,0.0,0.0,0.0,0.0,0.0,0.0,0.0,0.0,0.0,0.0,3.3214,0.0,0.0,0.0,0.0,0.0,0.0,0.0,0.0,0.0,0.0,0.0,0.0,0.0,0.0,0.0,0.0,0.0,0.0,0.0,0.0,0.0,0.0,0.0,0.0,0.0,0.0,0.0,0.0,0.0,0.0,0.0,0.0,0.0,0.0,0.0,0.0,0.0,0.0,0.0,0.0,0.0,3.578,3.6868,3.7679,3.7752,3.7713,3.7591,3.7312,3.6105,3.5243,3.4926,3.3443,0.0,0.0,0.0,0.0,0.0,0.0,0.0,0.0,0.0,0.0,0.0,0.0,0.0,0.0,0.0,0.0,0.0,0.0,0.0,0.0,0.0,0.0,0.0,0.0,0.0,0.0,0.0,0.0,0.0,0.0,0.0,0.0,0.0,0.0,0.0,0.0,0.0,0.0,0.0,0.0,0.0,0.0,0.0,0.0,0.0,0.0,0.0,0.0,0.0,0.0,0.0,0.0,0.0,0.0,0.0,0.0,0.0,0.0,0.0,0.0,3.4277,0.0,0.0,0.0,0.0,0.0,0.0,0.0,0.0,0.0,0.0,0.0,0.0,0.0,0.0,0.0,0.0,0.0,0.0,0.0,0.0,0.0,0.0,0.0,0.0,0.0,0.0,0.0,0.0,0.0,0.0,0.0,0.0,0.0,0.0,0.0,0.0,0.0,0.0,0.0,0.0,3.6958,3.7703,3.8328,3.8682,3.8693,3.846,3.7944,3.7106,3.6224,3.5341,3.44,0.0,0.0,0.0,0.0,0.0,0.0,0.0,0.0,0.0,0.0,0.0,0.0,0.0,0.0,0.0,0.0,0.0,0.0,0.0,0.0,0.0,0.0,0.0,0.0,0.0,0.0,0.0,0.0,0.0,0.0,0.0,0.0,0.0,0.0,0.0,0.0,0.0,0.0,0.0,0.0,0.0,0.0,0.0,0.0,0.0,0.0,0.0,0.0,0.0,0.0,0.0,0.0,0.0,3.7885,3.8018,3.815,3.8101,3.8079,3.806,3.7863,3.7141,3.6047,3.5334,0.0,0.0,0.0,0.0,0.0,0.0,0.0,0.0,0.0,0.0,0.0,0.0,0.0,0.0,0.0,0.0,0.0,0.0,0.0,0.0,0.0,0.0,3.7212,3.7212,3.7257,3.6901,3.5399,0.0,0.0,0.0,0.0,0.0,0.0,0.0,0.0,0.0,0.0,0.0,3.8218,3.8395,3.8733,3.942,3.9444,3.9093,3.8305,3.8053,3.7262,3.5731,3.5378,3.4455,0.0,0.0,0.0,0.0,0.0,0.0,0.0,0.0,0.0,0.0,0.0,0.0,0.0,0.0,0.0,0.0,0.0,0.0,0.0,0.0,0.0,0.0,0.0,0.0,0.0,0.0,0.0,0.0,0.0,0.0,0.0,0.0,3.3504,3.3627,0.0,0.0,0.0,0.0,0.0,0.0,0.0,0.0,0.0,0.0,0.0,0.0,0.0,3.7399,3.7399,3.8075,3.8772,3.9471,4.017,4.0882,4.1542,4.1542,4.153,4.1492,4.0783,0.0,3.6941,3.6828,0.0,0.0,0.0,0.0,0.0,0.0,0.0,0.0,0.0,0.0,0.0,0.0,0.0,0.0,0.0,0.0,0.0,0.0,0.0,0.0,0.0,0.0,3.7289,3.7289,3.73,3.7225,0.0,3.6939,3.6939,3.6939,3.6939,0.0,0.0,0.0,0.0,0.0,0.0,0.0,3.8376,3.8994,3.9439,3.9489,3.9495,3.94,3.9223,3.8454,3.7569,3.6593,3.5792,3.4598,3.2847,3.2606,0.0,0.0,0.0,0.0,0.0,0.0,0.0,0.0,0.0,0.0,0.0,0.0,0.0,0.0,0.0,0.0,0.0,0.0,0.0,0.0,0.0,0.0,0.0,0.0,0.0,0.0,0.0,0.0,0.0,3.4755,3.545,3.5933,3.6639,3.7088,0.0,0.0,0.0,0.0,0.0,0.0,0.0,0.0,0.0,4.0283,4.029,4.0268,4.0268,4.0582,4.0908,4.1268,4.1623,4.1971,4.2312,4.2276,4.2264,4.2226,4.1837,4.1028,3.9868,3.8455,3.7627,3.7224,0.0,0.0,0.0,0.0,3.7224,3.7224,3.7224,3.7224,3.7224,3.7224,0.0,0.0,0.0,0.0,0.0,0.0,0.0,3.8082,3.8584,3.9078,3.9554,4.0008,4.0144,4.0167,4.0167,4.0167,3.9596,0.0,3.73,3.7432,3.7893,0.0,0.0,0.0,0.0,3.9119,3.9119,3.943,3.9645,3.962,3.9583,3.9533,3.9457,3.9094,3.8438,3.7495,3.6612,3.5564,3.4302,3.3296,3.2391,0.0,0.0,0.0,0.0,0.0,0.0,0.0,0.0,0.0,0.0,0.0,0.0,0.0,0.0,0.0,0.0,0.0,0.0,0.0,0.0,0.0,0.0,0.0,0.0,0.0,0.0,0.0,0.0,3.6237,3.6962,3.7617,3.7903,3.8124,0.0,0.0,0.0,0.0,0.0,0.0,4.0709,4.0756,4.1327,4.2563,4.2558,4.2525,4.2525,4.2469,4.2549,4.2758,4.2735,4.2848,4.3026,4.2991,4.2979,4.2948,4.2691,4.2573,4.2421,4.0321,3.9101,3.8546,3.8546,3.8546,3.8546,3.8546,3.8546,3.8546,3.8546,3.8546,3.8546,3.8546,3.8576,3.8587,3.8587,0.0,0.0,0.0,0.0,3.9656,4.0299,4.0957,4.1567,4.2172,4.2359,4.2401,4.2401,4.2401,4.1651,0.0,3.8439,3.8485,3.9078,0.0,0.0,0.0,0.0,3.9724,3.9724,3.9715,3.9686,3.9693,3.9657,3.9608,3.9533,3.9508,3.9101,3.8107,3.7415,3.6569,3.5497,3.4166,3.3241,3.2766,0.0,0.0,0.0,0.0,0.0,0.0,0.0,0.0,0.0,0.0,0.0,0.0,0.0,0.0,0.0,0.0,0.0,0.0,0.0,0.0,0.0,0.0,0.0,0.0,0.0,0.0,0.0,0.0,0.0,3.7693,3.8438,0.0,0.0,0.0,0.0,4.2478,4.2536,4.2554,4.2571,4.2571,4.2578,4.2601,4.2591,4.2591,4.2591,4.2525,4.2921,4.3738,4.368,4.4023,4.4762,4.4781,4.4781,4.4731,4.3954,4.3613,4.3545,4.2459,4.1995,4.1938,4.1938,4.1938,4.1938,4.1938,4.1938,4.1938,4.1938,4.1938,4.1938,4.1938,4.2006,4.2047,4.2047,4.2089,0.0,0.0,4.2174,4.2211,4.2268,4.2306,4.2344,4.2382,4.2401,4.2401,4.2401,4.2401,4.2344,0.0,4.1529,4.1018,4.1056,0.0,3.9832,3.987,3.9845,3.9792,3.9792,3.9735,3.9696,3.9705,3.9693,3.9669,3.9589,3.9533,3.9139,3.8259,3.8027,3.7236,3.5653,3.5379,3.4525,3.292,3.2785,0.0,0.0,0.0,0.0,0.0,0.0,0.0,0.0,0.0,0.0,0.0,0.0,0.0,0.0,0.0,0.0,0.0,0.0,0.0,0.0,0.0,0.0,0.0,0.0,0.0,0.0,0.0,0.0,4.0219,4.1004,0.0,4.1942,4.2202,4.246,4.2785,4.2794,4.3013,4.3508,4.4072,4.4597,4.5091,4.56,4.5883,4.5883,4.5818,4.5936,4.624,4.6168,4.6303,4.6568,4.6531,4.6506,4.6487,4.6203,4.607,4.6051,4.5679,4.4284,4.2323,4.2323,4.2323,4.2323,4.2323,4.2323,4.2323,4.2323,4.2323,4.2323,4.2323,4.2335,4.2359,4.2359,4.237,4.2401,4.2401,4.2401,4.2533,4.3095,4.3246,4.3379,4.3891,4.4023,4.4023,4.4023,4.4023,4.4023,4.4023,4.2924,4.1965,4.1965,4.17,4.151,4.151,4.1499,4.1469,4.1469,4.1411,4.1376,4.1371,4.0827,4.0465,4.044,3.989,3.9414,3.9046,3.8484,3.7854,3.7219,3.6124,3.5244,3.4581,3.3951,3.3204,0.0,0.0,0.0,0.0,0.0,0.0,0.0,0.0,0.0,0.0,0.0,0.0,0.0,0.0,0.0,0.0,0.0,0.0,0.0,0.0,0.0,0.0,0.0,0.0,0.0,4.029,4.1153,4.1987,4.2591,4.3032,4.331,4.3551,4.3819,4.4106,4.4364,4.4754,4.529,4.5842,4.6385,4.692,4.7468,4.7732,4.7732,4.7666,4.7643,4.7643,4.7571,4.7535,4.7535,4.7473,4.7435,4.7435,4.7409,4.7397,4.7397,4.7397,4.6089,4.4061,4.3796,4.3682,4.3663,4.336,4.3246,4.3246,4.3246,4.3246,4.3246,4.3246,4.3246,4.3246,4.3246,4.3246,4.3303,4.3606,4.3682,4.3891,4.4724,4.4952,4.5085,4.5615,4.5748,4.5748,4.5748,4.552,4.5331,4.5331,4.3985,4.2848,4.2848,4.2602,4.2401,4.2401,4.2401,4.2401,4.2401,4.2359,4.2335,4.2293,4.1748,4.1367,4.1343,4.0547,4.0015,3.9984,3.9127,3.849,3.8153,3.7063,3.628,3.5944,3.502,3.4123,3.3241,0.0,0.0,0.0,0.0,0.0,0.0,0.0,0.0,0.0,0.0,0.0,0.0,0.0,0.0,0.0,0.0,0.0,0.0,0.0,0.0,0.0,0.0,0.0,4.0613,4.1229,4.2073,4.2878,4.3013,4.3377,4.4231,4.5084,4.5908,4.6685,4.7468,4.7897,4.7897,4.7851,4.7837,4.7837,4.7865,4.7884,4.7884,4.7808,4.7785,4.7785,4.7719,4.7677,4.7677,4.7611,4.7574,4.7574,4.7511,4.7485,4.7485,4.7472,4.7472,4.7397,4.6563,4.6241,4.6146,4.5293,4.499,4.499,4.499,4.499,4.499,4.499,4.499,4.499,4.499,4.499,4.5141,4.5994,4.6241,4.6411,4.7188,4.7397,4.7397,4.7397,4.7397,4.7397,4.7397,4.679,4.6241,4.6241,4.4933,4.3796,4.3758,4.3038,4.2477,4.2477,4.2477,0.0,4.2477,4.2477,4.2446,4.2387,4.2368,4.2307,4.2253,4.1437,4.0929,4.091,4.0052,3.9152,3.829,3.8153,3.7698,3.6807,3.5912,3.5019,3.4185,0.0,0.0,0.0,0.0,0.0,0.0,0.0,0.0,0.0,0.0,0.0,0.0,0.0,0.0,0.0,0.0,0.0,0.0,0.0,0.0,0.0,4.2173,4.2654,4.2379,4.3071,4.3897,4.4771,4.5416,4.6127,4.6953,4.7242,4.7473,4.7703,4.7864,4.7968,4.7968,4.8471,4.8745,4.8745,4.9312,4.9614,4.9614,4.9591,4.9591,4.9579,4.9513,4.9489,4.9477,4.9423,4.9385,4.9385,4.9302,4.9295,4.9276,4.9224,4.921,4.9078,4.7624,4.7074,4.7036,4.679,4.6714,4.6714,4.6714,4.6714,4.6714,4.6714,4.6714,4.6714,4.6714,4.6714,4.6752,4.6999,4.7074,4.7112,4.734,4.7397,4.7397,4.7397,4.7397,4.7397,4.7397,4.7226,4.7074,4.7074,4.6695,4.5994,4.4781,4.4364,4.4213,4.4213,4.4213,0.0,4.4213,4.4213,4.4201,4.4189,4.3622,4.3238,4.3214,4.2378,4.1581,4.0948,4.0666,4.0121,3.9245,3.8534,3.776,3.6895,3.6565,3.6291,0.0,0.0,0.0,0.0,0.0,0.0,0.0,0.0,0.0,0.0,0.0,0.0,0.0,0.0,0.0,0.0,0.0,0.0,0.0,0.0,0.0,0.0,4.3278,4.3855,4.4586,4.4778,4.5163,4.6047,4.6894,4.7586,4.8048,4.8423,4.8645,4.8645,4.8922,4.9103,4.9103,4.9786,5.0183,5.0183,5.0948,5.1353,5.1353,5.1353,5.1353,5.1353,5.1317,5.1285,5.1285,5.0868,5.0698,5.0659,5.0234,5.0044,5.0044,4.9978,4.9933,4.9819,0.0,0.0,0.0,0.0,4.7397,4.7397,4.7397,4.7397,4.7397,4.7397,4.7397,4.7397,4.7397,4.7397,4.7472,4.7845,4.7927,4.8022,4.8344,4.8452,4.8452,4.8452,4.8452,4.8452,4.8452,4.8174,4.7927,4.7927,4.7643,0.0,4.6127,4.5672,4.5312,4.4952,4.4895,4.4895,4.4895,4.4895,4.4895,4.4895,4.4454,4.4145,4.4145,4.3308,0.0,0.0,0.0,4.0546,3.9682,3.9071,0.0,0.0,0.0,3.7175,3.6839,3.6738,0.0,0.0,3.5531,3.5685,0.0,0.0,0.0,0.0,0.0,0.0,0.0,0.0,0.0,0.0,0.0,0.0,0.0,0.0,0.0,0.0,4.4451,4.5124,4.6673,4.6394,4.6317,4.7086,4.7817,4.8298,4.8375,4.9086,4.9586,4.9683,5.0345,5.0786,5.0901,5.1505,0.0,0.0,0.0,5.2817,5.2805,5.2805,5.2805,5.2805,5.2805,5.2805,5.2766,5.2011,5.1649,5.1611,5.0755,5.0393,5.0374,5.0215,5.0113,4.9929,4.9142,4.885,4.8736,4.7978,4.7681,4.7681,4.7681,0.0,0.0,4.7681,4.7681,4.7681,4.7681,4.7681,4.7845,4.8623,4.885,4.9002,4.9722,4.9912,4.9912,4.9912,4.9912,4.9912,4.9912,4.9343,4.885,4.885,4.8225,4.7643,4.7548,4.6866,4.607,4.5293,4.5103,4.5047,4.5047,4.4952,4.4895,4.4895,0.0,0.0,4.4895,4.4183,4.3705,4.361,4.2051,4.0745,3.9875,3.9715,3.9258,3.8365,3.8297,3.7904,3.7175,3.7119,3.71,3.7068,3.6779,3.6648,0.0,0.0,0.0,0.0,0.0,0.0,0.0,0.0,0.0,0.0,0.0,0.0,0.0,0.0,0.0,4.4239,4.549,4.6509,4.6846,4.7913,4.8721,4.8894,4.9048,4.9413,5.0125,5.0346,5.0721,5.1365,5.1548,5.1971,5.2663,5.2784,5.2796,5.2751,5.2828,5.2846,5.2805,5.2805,5.2805,5.2805,5.2805,0.0,5.2785,5.262,5.2544,5.2532,5.2298,5.2203,5.2145,5.1415,5.0678,4.9986,4.9749,4.9665,4.9646,4.9476,4.9419,4.9419,4.9419,4.9419,4.9419,4.9419,4.9419,4.9419,4.9419,4.9419,0.0,4.9627,4.9665,4.9703,4.9855,4.9912,4.9912,4.9912,4.9912,4.9912,4.9912,4.9779,4.9665,4.9665,4.9533,4.921,4.8566,4.7738,4.7112,4.6942,4.6354,4.5937,4.5937,4.5331,4.4895,4.4895,4.4895,4.4895,4.4895,4.475,4.4347,4.3648,4.2573,4.1574,4.0703,4.0641,4.0228,3.9352,3.9258,3.9145,3.8996,3.8932,3.8848,3.8713,3.7919,3.7553,0.0,0.0,0.0,0.0,0.0,0.0,0.0,0.0,0.0,0.0,0.0,4.2566,4.2989,0.0,4.4586,4.547,4.6336,4.7201,4.8029,4.8875,4.9394,4.9394,4.9779,5.0375,5.1221,5.1298,5.1645,5.2481,5.2538,5.2741,5.3183,5.3554,5.3731,5.3644,5.3989,5.414,5.4104,5.4104,5.4104,5.4104,5.4104,5.4104,5.4085,5.3645,5.3454,5.3416,5.2939,5.2755,5.2704,5.2215,5.1686,5.1239,5.1177,5.0637,4.9912,4.9912,4.9912,4.9912,4.9912,4.9912,4.9912,4.9912,4.9912,4.9912,4.9912,4.9912,4.9912,4.9912,4.9912,4.9912,4.9912,4.9912,4.9912,4.9912,4.9912,4.9912,4.9912,4.9912,4.9912,4.9912,4.9912,4.9779,4.9381,4.8971,4.8402,4.7542,4.7055,4.679,4.679,4.607,4.5539,4.5539,4.516,4.4895,4.4895,4.4895,4.4542,4.3703,4.3188,4.2516,4.163,4.1537,4.1299,4.0848,4.0803,4.0765,4.0765,4.068,4.0627,4.0549,3.9988,3.9514,0.0,0.0,0.0,0.0,0.0,0.0,0.0,0.0,4.1846,4.2019,4.2739,4.3528,4.4182,4.4586,4.5259,4.6673,4.7173,4.7855,4.9202,4.9548,4.9702,4.9875,5.051,5.1183,5.1846,5.2038,5.25,5.3395,5.3453,5.353,5.3683,5.4284,5.4602,5.4545,5.5088,5.5409,5.5403,5.5403,5.5403,5.5403,5.5403,5.5403,5.5384,5.4677,5.4352,5.4314,5.3607,5.3206,5.3028,5.2901,5.2713,5.2493,5.2428,5.1566,5.0391,5.0391,5.0277,5.0144,5.0144,5.0044,4.9912,4.9912,5.0012,5.0144,5.0144,5.0258,5.0391,5.0391,5.0391,5.0391,5.0391,5.0391,5.0391,5.0391,5.0391,5.0334,5.0182,5.0144,5.0101,4.9931,4.9912,4.9912,4.9912,4.9965,4.9517,4.8105,4.7776,4.7682,4.7682,4.6992,4.6411,4.6247,4.5602,4.5097,4.4914,4.4895,4.463,4.3966,4.3892,4.3459,4.2595,4.2448,4.2297,4.2102,4.2057,4.2018,4.2004,4.1951,4.1906,4.1892,4.1936,4.1487,3.7993,3.8421,3.9223,4.0019,4.0277,4.0573,0.0,0.0,4.2019,4.2797,4.3605,4.4182,4.4278,4.5566,4.6673,4.6865,4.8144,4.9183,4.9375,5.0067,5.0818,5.1538,5.1712,5.1788,5.1885,5.2596,5.3414,5.428,5.4357,5.4664,5.5376,5.5457,5.5439,5.537,5.5394,5.5409,5.5403,5.5403,5.5403,5.5403,5.5403,5.5403,5.5403,5.5307,5.525,5.525,5.5154,5.4638,5.3849,5.3783,5.3264,5.2493,5.2428,5.2291,5.2134,5.2134,5.1679,5.104,5.104,5.0542,4.9912,4.9912,5.041,5.104,5.104,5.1547,5.2134,5.2134,5.2134,5.2134,5.2134,5.2134,5.2134,5.2134,5.2134,5.1926,5.1206,5.104,5.0827,5.005,4.9912,4.9912,4.9912,4.9965,4.9929,4.9745,4.915,4.8732,4.8732,4.7983,4.7153,4.6377,4.6194,4.5809,4.4971,4.4895,4.4857,4.4762,4.475,4.4347,4.3496,4.3434,4.3001,4.2121,4.209,4.2051,4.2004,4.1991,4.1965,4.1911,4.2562,4.2398,3.9387,3.9632,4.0165,0.0,4.1258,4.1489,4.2354,4.2912,4.3355,4.372,4.447,4.5056,4.5056,4.6067,4.7038,0.0,4.8606,4.9586,5.0087,5.0481,5.0991,5.1788,5.2346,5.2856,5.3356,5.3741,5.4299,5.5145,5.5203,5.5327,5.564,5.5607,5.5551,5.5444,5.542,5.5409,5.5403,5.5403,5.5403,5.5403,5.5403,5.5403,5.5403,5.5403,5.5403,5.539,5.5326,5.5057,5.4694,5.4585,5.4306,5.3955,5.3888,5.3859,5.3745,5.2745,5.2177,5.1907,5.1907,5.1661,5.1357,5.1357,5.1604,5.1907,5.1907,5.212,5.2385,5.2385,5.2385,5.2385,5.2385,5.2385,5.2385,5.2385,5.2385,5.231,5.1969,5.1907,5.1646,5.0827,5.0656,5.0505,4.9987,4.9965,5.0018,5.0057,4.9797,4.9613,4.9613,4.8871,4.8014,4.7153,4.6604,4.6137,4.5752,4.5204,4.4895,4.4895,4.4895,4.4731,4.4366,4.431,4.409,4.3668,4.3591,4.3544,4.3517,4.3477,4.3436,4.3408,4.3694,4.3604,4.0389,4.0617,0.0,4.1643,4.1981,4.2374,4.3239,4.3874,4.4374,4.4605,4.5171,4.5671,4.5913,4.6663,4.7509,4.8317,4.9183,4.9971,5.0616,5.0712,5.1087,5.2135,5.2818,5.3626,5.4722,5.4818,5.5068,5.5665,5.5673,5.564,5.5596,5.5562,5.5504,5.5408,5.5402,5.5396,5.5403,5.5403,5.5403,5.5403,5.5403,5.5403,5.5403,5.5403,5.539,5.5339,5.5248,5.5189,5.5135,5.5042,5.4985,5.4956,5.4916,5.4901,5.475,5.3537,5.2949,5.276,5.276,5.2594,5.2385,5.2385,5.2556,5.276,5.276,5.2911,5.3086,5.3086,5.3086,5.3086,5.3086,5.3086,5.3086,5.3086,5.3086,5.3044,5.2817,5.276,5.2532,5.1684,5.1533,5.1263,5.041,5.0307,5.0284,5.0108,5.0108,5.0133,5.0158,4.9441,4.8698,4.8062,4.7191,4.6649,4.6624,4.5809,4.528,4.5255,4.5028,4.4895,4.4895,4.4846,4.4808,4.4796,4.4699,4.4619,4.4592,4.4524,4.4501,4.4501,4.4426,4.4354,4.0407,4.1069,4.1769,4.1788,4.245,4.3278,4.4085,4.4278,4.4528,4.5383,4.5575,4.5864,4.6701,4.7528,4.8355,4.9221,5.0087,5.0673,5.0712,5.0712,5.1298,5.2972,5.3183,5.3857,0.0,5.5665,5.5665,5.5703,5.5629,5.5596,5.5596,5.548,5.5408,5.5408,5.539,5.5403,5.5403,5.5403,5.5403,5.5403,5.5403,5.5403,5.5403,5.5403,5.5326,5.5216,5.5197,5.5121,5.5014,5.5,5.4956,5.4901,5.4901,5.4901,5.4901,5.4844,5.4333,5.3669,5.3669,5.312,5.2385,5.2385,5.2968,5.3669,5.3669,5.4219,5.4825,5.4825,5.4825,5.4825,5.4825,5.4825,5.4825,5.4825,5.4825,5.4617,5.384,5.3669,5.3404,5.2518,5.2347,5.2101,5.13,5.1223,5.0973,5.0119,5.0101,5.0212,5.029,4.9529,4.8998,4.896,4.8131,4.7526,4.7472,4.6719,4.6239,4.6158,4.5369,4.4895,4.4895,4.4895,4.4858,4.4796,4.4719,4.4672,4.4592,4.4524,4.4501,4.4501,4.4426,4.4354,4.1259,4.1961,4.2797,4.3335,4.3682,4.4124,4.4979,4.5171,4.5248,4.5537,4.5594,4.5883,4.674,4.7567,4.8394,4.926,5.0125,5.0712,5.0712,5.0712,5.1308,5.2929,5.314,0.0,0.0,0.0,0.0,5.5629,5.5573,5.5516,5.5468,5.5432,5.5402,5.539,5.5396,5.5403,5.5403,5.5403,5.5403,5.5403,5.5403,5.5358,5.528,5.528,5.5222,5.5135,5.508,5.5038,5.5,5.4941,5.4916,5.4901,5.4901,5.4901,5.4901,5.4901,5.4731,5.4503,5.4503,5.4295,5.4067,5.4067,5.4257,5.4503,5.4503,5.4693,5.4901,5.4901,5.4901,5.4901,5.4901,5.4901,5.4901,5.4901,5.4901,5.4825,5.456,5.4503,5.4257,5.3423,5.3271,5.2987,5.2153,5.2016,5.1773,5.0992,5.0482,5.0212,5.029,5.0042,4.9858,4.9858,4.9067,4.8524,4.85,4.7635,4.7087,4.7074,4.6228,4.5767,4.5767,4.5217,4.4883,4.4858,4.4796,4.4719,4.4672,4.4592,4.4537,4.4501,4.4487,4.4697,4.17,4.2605,4.3645,4.4182,4.4528,4.4913,4.5479,4.5594,4.5594,4.5594,4.5594,4.5883,4.674,4.7567,4.8394,4.926,5.0115,5.0653,5.0653,5.0643,5.1228,5.2875,5.3067,5.3697,0.0,0.0,0.0,5.5562,5.5504,5.5444,5.5408,5.5402,5.5403,5.5403,5.5403,5.5403,5.5403,5.5403,5.539,5.5326,5.5326,5.5267,5.5157,5.5157,5.5135,5.5052,5.5028,5.4985,5.4956,5.4916,5.4901,5.4901,5.4901,5.4901,5.4901,5.4901,5.4901,5.4901,5.4901,5.4901,5.4901,5.4901,5.4901,5.4901,5.4901,5.4901,5.4901,5.4901,5.4901,5.4901,5.4901,5.4901,5.4901,5.4901,5.4901,5.4901,5.4901,5.4901,5.475,5.4238,5.4124,5.3859,5.3006,5.2613,5.2148,5.1397,5.09,5.0513,5.0293,5.029,5.0302,5.0302,4.9789,4.946,4.9437,4.8547,4.7998,4.7973,4.7113,4.662,4.662,4.5805,4.5369,4.5369,4.5004,4.4776,4.4712,4.4632,4.4715,4.4914,4.4914,4.5292,4.174,4.304,4.4351,4.4357,4.497,4.5605,4.5594,4.5594,4.5594,4.5594,4.5594,4.5874,0.0,0.0,4.8385,4.925,5.0076,5.0593,5.0593,5.0532,5.1114,0.0,0.0,0.0,0.0,0.0,0.0,5.5492,5.5432,5.5395,5.5395,5.539,5.5403,5.5403,5.5403,5.5403,5.5403,5.539,5.5326,5.5183,5.5183,5.5162,5.5094,5.5094,5.5071,5.5,5.5,5.4975,5.4901,5.4901,5.4901,5.4901,5.4901,5.4901,5.4901,5.4901,5.4901,5.4901,5.4886,5.4901,5.4901,5.4901,5.4901,5.4901,5.4901,5.4901,5.4901,5.4901,5.4901,5.4901,5.4901,5.4901,5.4901,5.4901,5.4901,5.4901,5.4901,5.4901,5.4901,5.4901,5.4901,5.4655,5.3897,5.3044,5.2224,5.153,5.1391,5.1083,5.029,5.0267,5.0302,5.0302,5.0302,5.0278,5.0219,4.9441,4.8941,4.8878,4.7985,4.7472,4.7472,4.6676,4.6259,4.6259,4.5382,4.489,4.4844,4.4764,4.5091,4.5772,4.5754,4.6117,4.2508,4.379,4.5131,4.5177,4.5368,4.555,4.5586,4.5594,4.5594,4.5594,4.5594,4.5846,0.0,0.0,0.0,4.9123,4.9976,0.0,5.0521,5.0511,0.0,5.2732,0.0,5.357,5.5262,5.5409,0.0,0.0,5.5409,5.5409,5.5409,5.5403,5.5403,5.5403,5.5403,5.5403,5.5403,5.5294,5.5222,5.5121,5.5121,5.5094,5.5028,5.5028,5.4985,5.4931,5.4931,5.4916,5.4901,5.4901,5.4901,5.4901,5.4901,5.4901,5.4901,5.4901,5.4901,5.4886,5.4845,5.486,5.4901,5.4901,5.4901,5.4901,5.4901,5.4901,5.4901,5.4901,5.4901,5.4901,5.4901,5.4901,5.4901,5.4901,5.4901,5.4901,5.4901,5.4901,5.4901,5.4901,5.4901,5.4825,5.4636,5.3916,5.329,5.313,5.2565,5.1711,5.0366,5.0212,5.0236,5.029,5.0302,5.0278,5.0219,4.9955,4.9765,4.9701,4.8857,4.8376,4.8376,4.7548,4.7093,4.7093,4.6807,4.6628,4.6561,4.6497,4.6539,4.6674,4.6577,4.6937,4.2814,4.4068,4.54,4.5457,4.5467,4.5476,4.5504,4.5513,4.5513,4.5513,4.5513,0.0,4.61,4.6858,0.0,0.0,0.0,0.0,5.0399,5.0416,5.0891,0.0,5.2643,0.0,5.4696,5.5193,5.5403,0.0,5.5403,5.5403,5.5403,5.5403,5.5371,5.5307,5.5313,5.53,5.5273,5.5195,5.5121,5.5071,5.5071,5.5028,5.496,5.496,5.4946,5.4901,5.4901,5.4901,5.4901,5.4901,5.4871,5.486,5.486,5.4845,5.4814,5.4814,5.4814,5.4814,5.4767,5.4783,5.4814,5.4814,5.4814,5.4814,5.4814,5.4814,5.4814,5.4814,5.4814,5.4814,5.4814,5.4814,5.4814,5.4814,5.4814,5.4829,5.486,5.486,5.4856,5.4886,5.4901,5.4901,5.4901,5.4541,5.4105,5.3745,5.3319,5.2593,5.1364,5.0926,5.0602,5.0245,5.0219,5.0194,5.017,5.0076,5.0044,5.0005,4.9502,4.9229,4.9229,4.8433,4.7978,4.7978,4.7526,4.727,4.7197,4.7118,4.7254,4.7519,4.7428,4.7801,4.2776,4.3972,4.5236,4.5362,4.539,4.54,4.54,4.54,4.54,4.54,0.0,4.54,4.54,4.6119,4.6933,4.768,0.0,4.9368,5.0122,5.0279,5.0627,5.1493,5.2308,5.3129,5.4027,5.4874,5.5371,5.5371,5.5377,5.5358,5.5371,5.5371,5.5313,5.5203,5.5189,5.5162,5.508,5.508,5.5052,5.4985,5.4985,5.496,5.4901,5.4901,5.4901,5.4901,5.4886,5.4886,5.4886,5.4871,5.4845,5.4802,5.4802,5.4755,5.4708,5.4708,5.4708,5.4708,5.4673,5.4673,5.4673,5.4689,5.4708,5.4708,5.4708,5.4708,5.4708,5.4708,5.4708,5.4708,5.4708,5.4708,5.4708,5.4708,5.4708,5.4723,5.4767,5.4802,5.4799,5.4871,5.4886,5.4886,5.4901,5.4901,5.4655,5.3973,5.3859,5.3585,5.275,5.1906,5.1103,5.0342,5.0171,5.0095,5.0095,5.0031,5.0005,4.9992,4.992,4.9912,4.9912,4.9229,4.8856,4.8842,4.8043,4.7597,4.7523,4.7443,4.7747,4.8329,4.8275,4.8589,4.2594,4.3511,4.4419,4.5217,4.5399,4.539,4.539,4.54,0.0,0.0,4.54,4.539,4.5409,4.6059,4.6661,4.6743,4.807,4.9159,4.9312,4.9893,5.0627,0.0,0.0,0.0,0.0,5.4778,0.0,0.0,5.5195,5.5181,5.5216,5.5229,5.5189,5.5121,5.5121,5.508,5.5028,5.5028,5.4985,5.4916,5.4916,5.4916,5.4901,5.4901,5.4901,5.4886,5.4845,0.0,5.4814,5.4752,5.4739,5.4723,5.4723,5.4723,5.4708,5.4708,5.4708,5.4673,5.4573,5.4538,5.4538,5.4657,5.4708,5.4708,5.4708,5.4708,5.4708,5.4708,5.4708,5.4708,5.4708,5.4708,5.4708,5.4708,5.4708,5.4708,5.4705,5.4723,5.4739,5.4799,5.4814,5.4829,5.4886,5.4901,5.4844,5.4712,5.4693,5.4389,5.3589,5.2218,5.1279,5.1179,5.0533,5.0082,5.0031,5.0018,4.9978,4.9925,4.9912,4.9912,4.9912,4.9779,4.9662,4.9613,4.9391,4.9244,4.9171,4.9119,4.9099,4.9099,4.9038,4.905,4.2001,4.2737,4.3482,4.3932,4.4363,4.4669,4.468,0.0,0.0,0.0,4.5341,4.535,4.5348,4.5663,0.0,4.6443,4.7589,4.8582,4.9052,0.0,0.0,0.0,0.0,0.0,0.0,5.4446,5.5149,5.5149,5.5121,5.5107,5.5149,5.5107,5.508,5.5057,5.5014,5.4971,5.496,5.496,5.4931,5.4901,5.4901,5.4901,5.4901,5.4856,5.486,5.4845,5.4767,5.4755,5.4755,5.4723,5.4657,5.459,5.459,5.4573,5.4543,5.4543,5.4543,5.4543,5.4474,5.4458,5.4458,5.4508,5.4543,5.4543,5.4543,5.4543,5.4543,5.4543,5.4543,5.4543,5.4543,5.4543,5.4543,5.4543,5.4557,5.459,5.459,5.4657,5.4723,5.4736,5.4755,5.4767,5.4845,5.486,5.4875,5.4886,5.4901,5.4769,5.4371,5.3281,5.2394,5.1966,5.1169,5.0662,5.0635,5.0218,4.992,4.9893,4.9912,4.9912,4.9912,4.9912,4.9871,4.9807,4.9736,4.9663,4.9608,4.9536,4.9424,4.9308,4.9228,4.9148,4.1408,4.1972,4.2545,4.2756,4.3291,4.3739,4.3739,4.4265,0.0,4.4762,4.4895,4.501,4.501,4.5163,4.5507,0.0,4.6959,4.7826,4.8686,0.0,0.0,0.0,0.0,0.0,0.0,5.3965,0.0,5.508,5.5085,5.5052,5.508,5.5014,5.4971,5.4971,5.4931,5.4901,5.4901,5.4901,5.4901,5.4901,5.4886,5.4871,5.489,5.4814,5.4786,5.4767,5.4689,5.4657,5.4657,5.4641,5.4573,5.4472,5.4472,5.4458,5.4409,5.4409,5.4409,5.4409,5.4409,5.4409,5.4409,5.4392,5.4392,5.4409,5.4409,5.4409,5.4409,5.4409,5.4409,5.4409,5.4409,5.4409,5.4409,5.4409,5.4441,5.4472,5.4472,5.4557,5.4641,5.4657,5.4657,5.4673,5.4752,5.4786,5.4799,5.4875,5.4871,5.4871,5.4901,5.4352,5.3688,5.3011,5.2044,5.1381,5.1211,5.0561,5.0101,4.9912,4.9912,4.9912,4.9912,4.9885,4.9843,4.9778,4.9707,4.9653,4.9578,4.9505,4.9409,4.9276,4.9214,4.9133,4.1196,4.1473,4.1741,4.2593,4.2851,4.2908,4.2908,0.0,4.3023,4.3023,4.3615,4.4121,4.4121,4.4762,4.5326,4.5392,4.6099,4.6899,4.7701,0.0,0.0,0.0,0.0,0.0,0.0,5.3403,5.4216,5.4957,5.4941,5.4927,5.5014,5.496,5.4916,5.4916,5.4901,5.4901,5.4901,5.4901,5.4901,5.4901,5.4845,5.4799,5.4799,5.4755,5.4723,5.4689,5.4554,5.4522,0.0,5.4458,5.4426,5.4407,5.4407,5.4409,5.4409,5.4409,5.4409,5.4409,5.4409,5.4409,5.4392,5.4324,5.4359,5.4409,5.4409,5.4409,5.4409,5.4409,5.4409,5.4409,5.4409,5.4409,5.4409,5.4409,5.439,5.4407,5.4407,5.4426,5.4441,5.4505,5.4522,5.4554,5.4689,5.4723,5.472,5.4799,5.4799,5.4829,5.4886,5.4844,5.4769,5.4693,5.3252,5.1987,5.1249,5.1116,5.0751,4.995,4.9912,4.9912,4.9912,4.983,4.9778,4.9707,4.9634,4.9578,4.9505,4.9374,4.9276,4.9214,4.9133,4.8998,4.0507,4.0623,4.0718,4.1081,4.1578,4.1969,4.1951,0.0,4.2745,4.2784,4.3061,4.3443,4.3911,4.4253,4.4633,4.5159,4.5908,4.6733,4.7536,0.0,0.0,0.0,0.0,0.0,0.0,0.0,5.4073,5.487,5.4916,5.4916,5.4946,5.4916,5.4901,5.4901,5.4901,5.4871,5.4845,5.4845,5.4829,5.4783,5.4752,5.4755,5.4739,5.4622,5.459,5.4573,5.4491,5.4441,0.0,5.4407,5.4409,5.4409,5.4409,5.4375,5.4342,5.4342,5.4288,5.4216,5.4216,5.4216,5.4217,5.4181,5.4199,5.4216,5.4216,5.4216,5.4216,5.4216,5.4216,5.4216,5.4216,5.4288,5.4342,5.4342,5.4733,5.5105,5.5105,5.5535,5.5909,5.5944,5.5512,5.5191,5.5329,5.4931,5.4606,5.472,5.4755,5.4752,5.4829,5.4845,5.486,5.4886,5.3878,5.3063,5.2741,5.1793,5.1054,5.0694,5.0182,4.9885,4.983,4.9821,4.975,4.9634,4.9604,4.9514,4.9374,4.9324,4.9244,4.9133,4.903,4.891,3.995,4.0057,4.0067,4.0106,4.0554,4.1021,0.0,0.0,4.194,4.1999,4.2209,4.2563,4.3125,4.3609,4.4092,4.4712,4.5498,4.6378,4.7419,4.8104,0.0,0.0,0.0,5.1307,0.0,5.3433,5.4295,5.4863,5.4871,5.4856,5.4856,5.4841,5.4841,5.4856,5.4856,5.4845,5.4767,5.4767,5.4755,5.4708,5.4657,5.4641,5.4641,5.4524,5.4472,5.4472,5.4424,5.4409,0.0,5.4409,5.4392,5.4375,5.4375,5.4306,5.4254,5.4254,5.4163,5.4109,5.4109,5.4109,5.4091,5.4091,5.4073,5.4055,5.4018,5.4055,5.4109,5.4109,5.4109,5.4109,5.4109,5.435,5.4592,5.4592,5.5263,5.5897,5.5933,5.6402,5.6851,5.6887,5.6399,5.6022,5.611,5.5396,5.4865,5.5002,5.481,5.4673,5.4771,5.4767,5.4783,5.4845,5.4334,5.3928,5.3726,5.2627,5.1703,5.1164,5.0572,5.0089,4.9778,4.975,4.9692,4.9589,4.9544,4.9434,4.9308,4.926,4.9164,4.9032,4.8927,4.8916,3.9662,3.9943,4.0026,4.0077,4.0106,4.0106,0.0,0.0,4.0125,4.0125,4.0802,4.1421,4.1421,4.2773,4.3896,4.3915,4.4589,4.5669,4.7282,4.7517,0.0,0.0,0.0,5.0561,5.2248,5.3916,5.4901,5.4901,5.4845,0.0,5.4799,5.4739,5.472,5.4799,5.4799,5.4767,5.4708,5.4708,5.4708,5.4708,5.4573,5.4486,5.4505,5.4441,5.439,5.439,5.4409,5.4409,0.0,5.4409,5.4357,5.4308,5.4308,5.4218,5.4109,5.4109,5.4109,5.4109,5.4109,5.4109,5.4091,5.4019,5.4,5.3982,5.3851,5.3944,5.4109,5.4109,5.4109,5.4109,5.4109,5.4689,5.5286,5.5286,5.5959,5.6613,5.6668,5.6705,5.6742,5.6869,5.6887,5.6887,5.6887,5.6174,5.5628,5.5768,5.5051,5.4538,5.4673,5.4708,5.4708,5.4708,5.4689,5.4431,5.3768,5.3688,5.292,5.1111,5.0998,5.061,4.9744,4.9653,4.9589,4.9608,4.9402,4.9289,4.9308,4.9166,4.9032,4.8909,4.884,4.9049,3.8712,3.8994,3.918,3.9748,3.9933,3.9984,4.0026,4.0036,4.0046,4.0077,4.0316,4.0687,4.1288,4.2246,4.3144,4.3734,4.4478,4.5354,0.0,0.0,0.0,4.8945,5.058,5.1831,0.0,0.0,5.4829,5.4829,5.4767,5.472,5.472,5.4723,5.4723,5.4739,5.472,5.4673,5.4554,5.4554,5.4541,5.4493,5.4441,5.4441,5.4424,5.4407,5.4409,5.4409,5.4409,5.4375,5.4324,5.4324,5.4253,5.4163,5.4163,5.411,5.4037,5.4037,5.3963,5.3889,5.3889,5.3889,5.3889,5.387,5.3851,5.3851,5.3813,5.3832,5.3889,5.3889,5.4298,5.4726,5.4726,5.5397,5.6051,5.6051,5.6742,5.7416,5.7454,5.7884,5.8277,5.8334,5.7941,5.7585,5.7585,5.6965,5.6286,5.5758,5.5438,5.5097,5.4613,5.4554,5.4606,5.4689,5.4708,5.461,5.4393,5.3826,5.3244,5.2681,5.2119,5.1409,5.0485,5.0436,5.0093,4.9421,4.934,4.9244,4.9166,4.9118,4.9242,4.951,4.9914,5.0457,3.7687,3.8055,3.8299,3.9108,3.9361,3.951,3.9846,3.9943,3.9965,4.0015,4.0026,4.0178,4.072,4.1732,4.264,4.3172,4.418,4.5198,0.0,0.0,0.0,4.8981,0.0,0.0,0.0,5.38,5.4752,5.4752,5.4673,5.4622,5.4622,5.4608,5.4576,5.4576,5.4625,5.4573,5.4455,5.4455,5.4441,5.4409,5.4409,5.4409,5.4409,5.4409,5.4392,5.4357,5.4357,5.4306,0.0,5.4218,5.4164,5.4055,5.4055,5.4,5.3926,5.3926,5.387,5.3813,5.3813,5.3813,5.3813,5.3813,5.3813,5.3813,5.3813,5.3813,5.3868,5.4184,5.4611,5.5094,5.541,5.6156,5.6829,5.6829,5.7482,5.8157,5.8196,5.8608,5.8964,5.9003,5.8632,5.8334,5.8334,5.7735,5.7096,5.6553,5.5969,5.544,5.4965,5.4643,5.4491,5.4576,5.4576,5.4576,5.4576,5.415,5.3748,5.3381,5.289,5.2184,5.1259,5.119,5.0866,5.0263,5.0162,5.0098,4.9997,4.9892,4.9954,5.0171,5.0802,5.1297,0.0,3.7103,3.7384,3.8203,3.8504,3.8793,3.9539,3.9799,0.0,3.9889,3.9889,3.9889,3.9889,4.1253,4.2389,4.2389,4.3803,0.0,0.0,4.6834,0.0,0.0,5.1267,0.0,5.2201,5.3711,5.4692,5.4692,5.4573,5.4505,5.4505,5.4441,5.4409,5.4409,5.4455,5.4455,5.4409,5.4409,5.4409,5.4409,5.4409,5.4409,5.4409,5.4409,5.4376,0.0,5.429,5.4218,5.4091,5.4091,5.4055,5.4,5.4,5.3907,5.3813,5.3813,5.3813,5.3813,5.3813,5.3813,5.3813,5.3793,5.3831,5.3886,5.3868,5.3868,5.4054,5.4797,5.5094,5.5373,5.619,5.6989,5.7602,5.7602,5.8159,5.8737,5.8859,5.8898,5.8901,5.8964,5.9003,5.8984,5.8984,5.8445,5.796,5.7904,5.6666,5.5707,5.5594,5.4919,5.4448,5.4392,5.4373,5.4373,5.4373,5.4559,5.4304,5.3416,5.3379,5.2935,5.2008,5.1926,5.184,5.1784,5.1576,5.1487,5.147,5.125,5.1018,5.08,5.152,5.1733,3.4906,0.0,3.6426,3.7288,3.8022,3.8576,0.0,3.9282,3.9754,0.0,0.0,0.0,0.0,4.1125,4.2252,4.2252,0.0,0.0,4.5015,0.0,0.0,4.9532,5.1194,5.2217,5.2201,5.361,5.4538,5.4538,5.4474,5.4424,5.4424,5.4407,5.4409,5.4409,5.4407,5.4407,5.4409,5.4409,5.4409,5.4409,5.4409,5.4409,5.4409,5.4359,5.4307,5.4289,5.42,5.4091,5.4019,5.4019,5.3945,5.3851,5.3851,5.3832,5.3813,5.3813,5.3813,5.3813,5.3813,5.3813,5.3793,5.3735,5.4122,5.4622,5.4522,5.4604,5.476,5.4964,5.593,5.697,5.7156,5.7806,5.8419,5.8419,5.8568,5.8716,5.8737,5.8758,5.8758,5.876,5.8842,5.8921,5.8921,5.8814,5.8538,5.792,5.751,5.6818,5.5546,5.521,5.4854,5.4237,5.4163,5.4163,5.4163,5.4356,5.4366,5.4161,5.4093,5.3667,5.2788,5.2666,5.2299,5.1576,5.1361,5.125,5.1194,5.1532,5.1685,5.1623,5.2174,5.2354,3.4281,3.4764,3.5428,3.6329,3.7212,3.7966,3.8346,3.9104,3.9701,3.9701,0.0,0.0,0.0,0.0,0.0,0.0,4.3617,0.0,0.0,0.0,4.7806,4.946,5.1103,5.2105,0.0,5.3513,5.4439,5.4439,5.4424,5.4409,5.4409,5.4409,5.4409,5.4409,5.4409,5.4409,5.4409,5.4409,5.4409,5.4409,5.4357,5.434,5.434,5.4253,5.4182,5.4165,5.4092,5.4,5.3907,5.3907,5.3888,5.3813,5.3813,5.3813,5.3813,5.3813,5.3813,5.3813,5.3813,5.4016,5.4291,5.4172,5.4707,5.5353,5.5272,5.5574,5.5955,5.5955,5.6621,5.7399,5.7807,5.8257,5.8614,5.8614,5.8656,5.8716,5.8716,5.8716,5.8716,5.8716,5.8758,5.8818,5.8818,5.8901,5.8812,5.8364,5.8012,5.7472,5.6556,5.5772,5.5118,5.4689,5.4333,5.4109,5.4109,5.4198,5.4269,5.4269,5.4235,5.4012,5.3525,5.3438,5.3106,5.2512,5.2343,5.2188,5.2068,5.2351,5.2407,5.2236,5.2449,5.2508,3.4111,3.4257,3.4538,3.5378,3.6328,3.7256,3.7991,3.894,3.9672,3.9672,0.0,0.0,0.0,4.1129,0.0,0.0,0.0,0.0,4.6948,4.7269,4.7914,4.9405,5.0914,0.0,5.1893,5.332,5.4277,5.439,5.4409,5.4409,5.4409,5.4409,5.4409,5.4409,5.4392,5.4392,5.4392,5.4373,5.4373,5.4392,5.4324,5.429,5.4272,5.4146,5.4055,5.4,5.3982,5.3907,5.3813,5.3813,5.3813,5.3813,5.3813,5.3813,5.3813,5.3813,5.3793,5.3793,5.3885,5.4346,5.4857,5.4884,5.5415,5.6061,5.604,5.6593,5.7239,5.7239,5.726,5.747,5.8208,5.844,5.8468,5.8468,5.8572,5.8654,5.8675,5.8656,5.8696,5.8696,5.8716,5.8716,5.8716,5.8779,5.8859,5.8859,5.8343,5.788,5.7768,5.6499,5.5548,5.5287,5.4652,5.4185,5.4055,5.4055,5.4055,5.4055,5.4073,5.4073,5.4036,5.3982,5.385,5.3636,5.3518,5.3357,5.3188,5.3127,5.2937,5.2586,5.2503,5.2382,3.3813,3.4049,3.4161,3.4519,3.5773,3.6981,3.7094,3.839,3.9533,3.9533,0.0,0.0,0.0,4.1405,4.2269,0.0,0.0,4.5876,0.0,0.0,4.8394,4.9393,0.0,5.1158,5.1837,5.2794,5.3658,5.4352,5.4409,5.4409,5.4409,5.4409,5.4409,5.4409,5.4342,5.4326,5.4326,5.4375,5.4375,5.4326,5.4308,5.4254,5.4146,5.4055,5.4,5.3982,5.387,5.3832,5.3813,5.3813,5.3813,5.3813,5.3813,5.3813,5.3813,5.3813,5.3774,5.3806,5.4354,5.4646,5.4827,5.5423,5.6193,5.6816,5.6687,5.7216,5.7859,5.7859,5.8035,5.8227,5.8375,5.8415,5.8415,5.8415,5.8437,5.8462,5.8511,5.8532,5.8553,5.8696,5.8716,5.8716,5.8716,5.8716,5.8737,5.8737,5.8646,5.8312,5.7624,5.7308,5.662,5.5208,5.4929,5.4594,5.3888,5.3851,5.3851,5.3851,5.3945,5.3926,5.3773,5.3754,5.3617,5.3359,5.3295,5.317,5.3042,5.2787,5.2627,5.2503,5.2382,5.2126,3.3647,3.3921,3.3985,3.4148,3.5498,3.682,3.6883,3.8221,3.9444,3.9444,3.9482,0.0,0.0,0.0,4.2377,4.3731,0.0,4.5998,4.688,4.7687,4.8514,0.0,0.0,5.0995,5.1774,5.2596,5.3404,5.4177,5.4252,5.4252,5.4252,5.4252,5.4252,5.4252,5.4199,5.42,5.42,5.4217,5.4217,5.42,5.4165,5.4111,5.4037,5.3926,5.3888,5.3907,5.3832,5.3813,5.3813,5.3813,5.3813,5.3813,5.3813,5.3813,5.3793,5.3754,5.3676,5.3689,5.4361,5.4891,5.5404,5.6106,5.6871,5.7532,5.7469,5.7703,5.7997,5.7997,5.8106,5.8174,5.8174,5.8242,5.8286,5.8286,5.8349,5.8415,5.844,5.8462,5.8443,5.8526,5.8526,5.8526,5.8526,5.8572,5.8574,5.8574,5.8656,5.8586,5.8215,5.7769,5.7006,5.572,5.52,5.4587,5.3714,5.3638,5.3678,5.3735,5.3811,5.3773,5.3598,5.3519,5.3418,5.3254,5.3148,5.298,5.2787,5.2627,5.2485,5.2382,5.2102,5.1882,3.3464,3.3788,3.3868,3.3934,3.5319,3.6673,3.6807,3.8126,3.9333,3.936,3.9522,0.0,0.0,4.1763,0.0,4.4238,4.5283,4.6165,4.684,4.7796,4.8693,4.9352,4.9968,5.0724,5.1671,5.2308,5.3076,5.4034,5.4109,5.4109,5.4109,5.4109,5.4109,5.4109,5.4073,5.4091,5.4091,5.4036,5.4036,5.4091,5.4019,5.3982,5.3944,5.3851,5.3813,5.3813,5.3813,5.3813,5.3813,5.3813,5.3813,5.3813,5.3813,5.3793,5.3755,5.3637,5.3538,5.3551,5.4239,5.5043,5.5867,5.6569,5.7336,5.7997,5.7997,5.7997,5.7997,5.7997,5.7997,5.7997,5.7997,5.8084,5.8152,5.8152,5.8219,5.8308,5.8349,5.8349,5.8371,5.8393,5.8393,5.8393,5.8393,5.844,5.8486,5.8486,5.8551,5.8633,5.8633,5.8095,5.7369,5.6434,5.5618,5.4689,5.3593,5.3499,5.3519,5.3616,5.3636,5.3596,5.3439,5.3318,5.3214,5.3106,5.2959,5.2806,5.2563,5.2485,5.2358,5.215,5.184,5.1729,3.3172,3.3657,3.3726,3.3807,3.5178,3.6518,3.6613,3.7922,3.9129,3.9197,3.9898,0.0,0.0,4.3048,4.4169,4.4296,4.5608,4.6654,4.671,0.0,4.9155,4.9211,4.9267,4.9905,5.1457,5.1663,5.2373,5.3978,5.4109,5.4109,5.4109,5.4109,5.4109,5.4109,5.4037,5.4,5.4,5.3888,5.3888,5.4,5.4,5.3944,5.3794,5.3794,5.3813,5.3813,5.3813,5.3813,5.3813,5.3813,5.3813,5.3813,5.3813,5.3774,5.3675,5.342,5.3318,5.3408,5.4148,5.4935,5.5761,5.6547,5.7336,5.7997,5.7997,5.7997,5.7997,5.7997,5.7997,5.7997,5.7997,5.7997,5.802,5.802,5.802,5.8065,5.8197,5.8219,5.8242,5.8371,5.8393,5.8393,5.8393,5.8393,5.8415,5.8415,5.8415,5.8415,5.8415,5.8359,5.8008,5.7119,5.6306,5.5198,5.3629,5.3499,5.344,5.3339,5.3459,5.3418,5.3212,5.3212,5.3085,5.2828,5.2698,5.2604,5.2521,5.2382,5.2126,5.174,5.1715,5.1861,3.3002,3.3477,3.3662,3.4268,3.5333,3.6305,3.6491,3.7799,3.8993,3.9064,3.9756,0.0,0.0,0.0,4.4259,4.4285,4.5649,4.6713,4.6713,4.8133,4.9214,4.9214,4.9214,4.9629,5.0699,5.1241,5.1988,5.3107,5.3628,5.3907,5.3907,5.3907,5.3907,5.3907,5.3888,5.3888,5.3888,5.3832,5.3832,5.3888,5.3888,5.3851,5.3813,5.3813,5.3813,5.3813,5.3813,5.3813,5.3813,5.3813,5.3813,5.3793,5.3754,5.3617,5.3439,5.3339,5.3256,5.334,5.4145,5.4932,5.5721,5.6547,5.7336,5.7997,5.7997,5.7997,5.7997,5.7997,5.7997,5.7997,5.7997,5.7997,5.7997,5.7997,5.7997,5.802,5.8065,5.8084,5.8088,5.8152,5.8152,5.8152,5.8152,5.8219,5.8282,5.8282,5.8349,5.8393,5.8393,5.8393,5.8057,5.714,5.5804,5.4709,5.398,5.3484,5.313,5.3002,5.3193,5.3233,5.3085,5.2999,5.2846,5.2618,5.2554,5.2439,5.2246,5.2011,5.1858,5.1708,5.1915,5.2041,3.2841,3.3349,3.3622,3.4524,3.541,3.6168,3.6622,3.7827,3.8896,3.895,3.9815,4.1085,4.2857,0.0,0.0,0.0,4.5556,4.6635,4.6635,4.8052,4.9096,4.9096,4.9096,4.9415,5.0148,5.0725,5.1489,5.2512,5.3107,5.3534,5.3794,5.3813,5.3813,5.3813,5.3813,5.3813,5.3813,5.3813,5.3813,5.3813,5.3813,5.3813,5.3813,5.3813,5.3813,5.3813,5.3813,5.3813,5.3813,5.3813,5.3793,5.3754,5.3617,5.3459,5.3297,5.3295,5.3251,5.3277,5.383,5.4711,5.5684,5.6235,5.7134,5.7997,5.7997,5.7997,5.7997,5.7997,5.7997,5.7997,5.795,5.7973,5.7997,5.7997,5.7997,5.7997,5.7997,5.7997,5.7997,5.7997,5.7997,5.7997,5.7997,5.8084,5.8152,5.8152,5.8219,5.8264,5.8264,5.8242,5.7839,5.6918,5.5746,5.4887,5.4541,5.3774,5.3295,5.3188,5.3058,5.2955,5.2872,5.2779,5.2618,5.2452,5.2405,5.2246,5.1963,5.2015,5.1971,5.1861,5.2297,5.2544,3.2642,3.3241,3.3592,3.441,3.5309,3.6213,3.7033,3.8038,3.8822,3.8914,4.0203,4.181,4.349,4.3851,0.0,4.3915,4.5368,4.6494,4.6513,4.7887,4.8909,4.8909,4.8909,4.9224,5.0005,5.008,5.0803,5.2457,5.2587,5.294,5.3757,5.3794,5.3794,5.3813,5.3813,5.3813,5.3813,5.3813,5.3813,5.3813,5.3813,5.3813,5.3813,5.3813,5.3813,5.3813,5.3813,5.3813,5.3813,5.3813,5.3754,5.3656,5.34,5.33,5.3297,5.3209,5.3185,5.3185,5.3185,5.4252,5.5614,5.5614,5.6675,5.7997,5.7997,5.7997,5.7997,5.7997,5.7997,5.7973,5.7815,5.7904,5.7997,5.7997,5.7997,5.7997,5.7997,5.7997,5.7997,5.7997,5.7997,5.7997,5.7997,5.7997,5.7997,5.7997,5.7997,5.7997,5.7997,5.7881,5.7452,5.6507,5.6392,5.6064,5.5285,5.446,5.4005,5.4023,5.309,5.2549,5.2608,5.2531,5.2428,5.2287,5.2174,5.198,5.1708,5.245,5.2599,5.2233,5.2815,5.3462,3.2487,3.3011,0.0,3.4857,0.0,0.0,3.7531,3.8202,3.8886,4.0184,4.1362,4.2477,4.3601,4.382,0.0,4.4576,4.5589,4.6494,4.7049,4.803,4.8696,4.8696,4.8696,4.877,4.9011,4.9584,5.0176,5.0657,5.1269,5.1973,5.2771,5.2902,5.3218,5.3775,5.3813,5.3813,5.3813,5.3813,5.3813,5.3813,5.3813,5.3813,5.3813,5.3813,5.3813,5.3813,5.3813,5.3813,5.3793,5.3754,5.3617,5.3418,5.3339,5.3256,5.323,5.3206,5.3185,5.3185,5.3185,5.4252,5.5614,5.5614,5.6675,5.7973,5.7904,5.7862,5.7839,5.7745,5.7721,5.7697,5.7673,5.7697,5.7721,5.7721,5.7721,5.7721,5.7721,5.7721,5.7721,5.7721,5.7721,5.7721,5.7721,5.7721,5.7721,5.7721,5.7721,5.7721,5.7721,5.7673,5.7558,5.7273,5.6744,5.6277,5.5933,5.5092,5.452,5.4424,5.4037,5.3448,5.2562,5.234,5.215,5.2005,5.1882,5.1983,5.2321,5.2343,5.2535,5.285,5.3497,5.3723,3.2311,3.282,0.0,3.4981,3.5542,3.6071,3.769,0.0,0.0,0.0,4.1717,4.2643,4.349,4.3686,0.0,4.4789,4.5652,4.6482,4.7276,4.8088,4.8605,4.8605,4.8605,4.8605,4.8605,4.9086,4.9529,4.9861,5.038,5.1027,5.1842,5.1973,5.2233,5.2696,5.3048,5.3215,5.3215,5.353,5.3697,5.3697,5.3697,5.3697,5.3678,5.3756,5.3813,5.3813,5.3755,5.3716,5.3659,5.3598,5.3439,5.3297,5.3274,5.323,5.3185,5.3185,5.3185,5.3185,5.3185,5.4252,5.5614,5.5614,5.6653,5.7904,5.7815,5.7768,5.7697,5.7625,5.7601,5.7601,5.7534,5.7528,5.7528,5.7601,5.7601,5.7601,5.7601,5.7601,5.7601,5.7601,5.7601,5.7601,5.7601,5.7601,5.7601,5.7601,5.7601,5.7577,5.7528,5.7528,5.748,5.7363,5.6921,5.6581,5.6439,5.5616,5.509,5.499,5.4576,5.3957,5.3146,5.2945,5.282,5.2738,5.2541,5.2572,5.2793,5.2974,5.3138,5.3399,5.3977,5.41,3.2115,3.2673,0.0,3.4848,3.5432,0.0,3.7643,3.8859,3.9864,4.0628,0.0,4.2517,4.3248,4.348,4.3841,4.4631,4.5547,4.6447,4.724,4.807,4.8569,4.8569,4.8569,4.8569,4.8569,4.8569,4.8901,4.9695,4.9769,5.012,5.0933,5.097,5.1026,5.11,5.182,5.2188,5.2188,5.2908,5.3315,5.3388,5.3388,5.3425,5.3519,5.3697,5.3756,5.3774,5.3715,5.3616,5.3461,5.3359,5.3297,5.3277,5.3209,5.3185,5.3185,5.3185,5.3185,5.3185,5.3185,5.4216,5.5482,5.5574,5.653,5.7677,5.775,5.7673,5.7577,5.7577,5.7559,5.7553,5.7412,5.7363,5.7412,5.7534,5.7559,5.7559,5.7559,5.7559,5.7559,5.7559,5.7559,5.7559,5.7559,5.7559,5.7577,5.7553,5.7553,5.7504,5.7363,5.7356,5.7239,5.7003,5.6977,5.6925,5.6821,5.6129,5.569,5.5672,5.4852,5.4329,5.4189,5.4046,5.3975,5.3957,5.3708,5.3442,5.3215,5.3905,5.4098,5.3857,5.4309,5.448,3.1966,3.2457,0.0,0.0,3.6096,3.7274,3.7791,3.9031,4.0185,4.0616,4.1921,4.3032,4.3214,4.3269,4.356,4.4364,4.526,4.6177,4.6965,4.7811,4.8363,4.8363,4.8363,4.8363,4.8363,4.8363,4.8437,4.862,4.8733,4.9158,4.995,5.0101,5.0434,5.1081,5.1265,5.1358,5.1358,5.1524,5.1931,5.2557,5.2557,5.289,5.3499,5.3541,5.3561,5.3561,5.3539,5.3479,5.3339,5.33,5.3274,5.3227,5.3206,5.3185,5.3185,5.3185,5.3185,5.3185,5.3185,5.3784,5.4616,5.5239,5.6008,5.6786,5.7328,5.748,5.7412,5.7332,5.7307,5.7264,5.7239,5.7239,5.7239,5.7264,5.7307,5.7307,5.7307,5.7307,5.7307,5.7307,5.7307,5.7307,5.7307,5.7307,5.7239,5.7138,5.713,5.7079,5.6951,5.6925,5.6899,5.6847,5.6847,5.6821,5.6794,5.6527,5.6349,5.6241,5.5936,5.5692,5.5507,5.4446,5.3789,5.3681,5.3362,5.3464,5.405,5.3964,5.4048,5.4347,5.4457,5.4271,3.1777,0.0,0.0,3.441,0.0,3.7521,3.7703,3.8976,4.018,4.042,4.1833,4.3087,4.3142,4.3178,4.347,4.4272,4.5131,4.599,4.6775,4.7637,4.8151,4.8151,4.8151,4.817,4.8247,4.8247,4.8267,4.8287,4.8363,4.8584,4.9007,4.9101,4.9323,4.9747,5.0172,5.0393,5.0393,5.076,5.1165,5.1587,5.1976,5.2563,5.3355,5.3459,5.3461,5.34,5.34,5.3357,5.3254,5.3254,5.323,5.3185,5.3185,5.3185,5.3185,5.3185,5.3185,5.3185,5.3143,5.3591,5.4312,5.5071,5.5764,5.643,5.7176,5.7356,5.7307,5.7213,5.7188,5.7188,5.7188,5.7188,5.7163,5.7112,5.7138,5.7188,5.7188,5.7188,5.7188,5.7188,5.7156,5.7087,5.7087,5.7036,5.6959,5.6925,5.6899,5.6873,5.6794,5.6794,5.6768,5.6715,5.6653,5.6573,5.6519,5.6338,5.6227,5.6162,5.6106,5.5936,5.5706,5.5005,5.4564,5.4508,5.4244,5.425,5.452,5.4279,5.4192,5.4335,5.4175,5.3915,3.1601,0.0,3.2684,3.43,3.5873,0.0,3.7467,3.87,3.9828,4.0106,4.1591,4.2881,4.2993,4.3086,4.3342,4.4034,4.4945,4.5821,4.6476,4.7408,4.7992,4.7992,4.7992,4.8032,4.8168,4.8168,4.8189,4.8248,4.8248,4.8248,4.8248,4.8248,4.8248,4.8267,4.8984,4.937,4.939,5.0031,5.0435,5.06,5.1389,5.2215,5.3004,5.3154,5.3269,5.3277,5.3277,5.3254,5.3185,5.3185,5.3185,5.3185,5.3185,5.3185,5.3185,5.3185,5.3185,5.3164,5.3042,5.3416,5.4062,5.4902,5.5533,5.6146,5.7091,5.7307,5.7188,5.7188,5.7163,5.7181,5.7181,5.7156,5.7087,5.7003,5.7036,5.7112,5.7112,5.7112,5.7112,5.7112,5.7054,5.6977,5.6977,5.6873,5.6794,5.6768,5.6768,5.6742,5.6689,5.6707,5.6635,5.6474,5.6383,5.629,5.6151,5.5993,5.589,5.5833,5.5833,5.5706,5.5419,5.5419,5.5389,5.5329,5.5156,5.4974,5.4749,5.4512,5.4303,5.4061,5.3766,5.3534,3.1557,0.0,3.3311,0.0,3.5357,3.6242,0.0,0.0,3.8937,0.0,4.1435,4.2649,4.2668,4.2783,4.2897,4.3005,4.4427,4.5541,4.565,4.7022,4.7992,4.7992,4.7992,4.8012,4.8012,4.8012,4.8032,4.8032,4.8052,4.8052,4.8052,4.8052,4.8072,4.8207,4.8317,4.8393,4.8471,4.8581,4.8985,4.9682,5.0545,5.1371,5.216,5.2183,5.2569,5.3227,5.3227,5.3206,5.3185,5.3185,5.3185,5.3185,5.3185,5.3185,5.3185,5.3185,5.3143,5.302,5.2999,5.2923,5.3054,5.454,5.5045,5.5347,5.6779,5.7213,5.7188,5.7188,5.713,5.7028,5.7028,5.6951,5.6847,5.6821,5.6847,5.6847,5.6847,5.6847,5.6847,5.6847,5.6847,5.6821,5.6821,5.6821,5.6768,5.6635,5.6626,5.6546,5.6318,5.6263,5.6207,5.6003,5.5975,5.5975,5.5947,5.5918,5.5804,5.5566,5.5566,5.5401,5.5083,5.5053,5.493,5.4637,5.4606,5.4575,5.4543,5.4207,5.3865,5.35,5.3467,5.3264,3.1409,3.2353,3.3264,0.0,3.5023,3.5889,3.6892,3.776,3.8614,3.9574,4.0742,4.1792,4.248,4.2649,4.2688,4.2688,4.374,4.4702,4.5172,4.6266,4.7218,4.7669,4.7785,4.7866,4.7927,4.7927,4.7968,4.7992,4.7992,4.7992,4.7992,4.7992,4.8012,4.809,4.809,4.811,4.8131,4.8131,4.8553,4.9437,4.992,5.0545,5.1334,5.1775,5.2435,5.3185,5.3185,5.3185,5.3185,5.3185,5.3185,5.3185,5.3185,5.3185,5.3185,5.3103,5.3042,5.2977,5.2828,5.2698,5.2863,5.4422,5.4937,5.5196,5.6736,5.7156,5.7105,5.7105,5.7003,5.6899,5.6899,5.6847,5.6768,5.6707,5.6707,5.668,5.66,5.6689,5.6768,5.6689,5.6707,5.6653,5.6492,5.6465,5.641,5.6227,5.6199,5.6172,5.6049,5.6021,5.5993,5.5918,5.5764,5.5695,5.5695,5.5484,5.5354,5.5221,5.5221,5.507,5.4714,5.4714,5.4557,5.4224,5.4399,5.4416,5.4224,5.3849,5.3567,5.3399,5.3196,5.3156,0.0,0.0,3.2814,3.3915,3.4651,3.5464,0.0,0.0,3.8091,0.0,3.987,4.0754,4.1942,4.2346,4.253,4.2568,4.3272,4.4012,4.4605,4.5603,4.6495,4.7108,4.7424,4.7636,4.7738,4.7759,4.7783,4.787,4.787,4.7891,4.7911,4.7911,4.7949,4.797,4.797,4.799,4.7992,4.7992,4.8342,4.9062,4.9162,4.9603,5.0409,5.1014,5.1839,5.281,5.3072,5.3185,5.3185,5.3185,5.3185,5.3185,5.3164,5.3164,5.3124,5.2999,5.2915,5.2872,5.2676,5.2586,5.2813,5.4387,5.4882,5.5129,5.6685,5.7054,5.6951,5.6951,5.6847,5.6742,5.6742,5.6715,5.6662,5.6519,5.6492,5.6465,5.6373,5.6492,5.6582,5.6447,5.642,5.6355,5.6151,5.6123,5.6077,5.5918,5.5918,5.589,5.5822,5.5804,5.5775,5.5689,5.5472,5.5371,5.5371,5.5144,5.4961,5.4869,5.4869,5.4714,5.4385,5.4385,5.4207,5.3849,5.411,5.411,5.3849,5.35,5.3298,5.3196,5.3087,5.3119,0.0,3.144,0.0,3.3675,3.413,0.0,0.0,0.0,3.7062,3.8073,3.8872,3.969,4.0713,4.1685,4.2366,4.2465,4.323,4.3814,4.3868,4.5198,4.6205,4.6262,4.6892,4.7323,4.7341,4.7341,4.7385,4.7533,4.7533,4.7575,4.7699,4.7717,4.778,4.7902,4.7902,4.7945,4.7992,4.7992,4.803,4.8067,4.8085,4.8504,4.9289,4.9343,5.0201,5.1733,5.2752,5.3185,5.3185,5.3185,5.3185,5.3185,5.306,5.302,5.2999,5.285,5.2721,5.2613,5.259,5.2559,5.2752,5.4381,5.4773,5.4903,5.6515,5.6925,5.6821,5.6821,5.6715,5.6626,5.6626,5.6519,5.6401,5.6235,5.6225,5.6225,5.6225,5.6225,5.6179,5.5975,5.5947,5.5947,5.5918,5.5918,5.5918,5.5918,5.5918,5.5822,5.5566,5.5507,5.5401,5.5083,5.5022,5.5022,5.5022,5.5022,5.4869,5.4543,5.4543,5.4385,5.4045,5.4013,5.3849,5.3433,5.3467,5.3467,5.3433,5.3281,5.3007,5.264,5.3161,5.3274,0.0,0.0,0.0,3.2823,3.3556,3.4275,3.5469,3.6177,3.6831,3.7746,3.8154,3.8793,4.0341,4.1435,4.2115,4.2174,4.2448,4.2849,4.3393,4.4049,4.4868,4.5954,4.6378,4.678,4.7266,4.7302,4.7302,4.7363,4.7363,4.7385,4.7428,4.7428,4.7511,4.7636,4.7636,4.7699,4.7824,4.7886,4.7945,4.7945,4.799,4.8138,4.8448,4.8958,4.9523,5.0143,5.156,5.248,5.2934,5.2934,5.2934,5.2934,5.289,5.2872,5.2868,5.2721,5.2654,5.259,5.2536,5.2526,5.2679,5.3652,5.4266,5.4787,5.58,5.6355,5.6662,5.6662,5.6573,5.6437,5.6373,5.629,5.6235,5.6049,5.6021,5.5993,5.5897,5.5936,5.5993,5.5918,5.5918,5.5861,5.5793,5.5706,5.559,5.5467,5.5396,5.5294,5.5191,5.5191,5.5113,5.5022,5.4807,5.4683,5.4683,5.4494,5.4303,5.4175,5.4192,5.4013,5.3634,5.36,5.345,5.3076,5.3076,5.3076,5.3076,5.2903,5.2944,5.3108,5.3192,5.3522,3.1052,0.0,0.0,0.0,3.3154,3.4024,3.4902,3.5763,3.6578,3.7168,3.7544,3.8132,3.9371,4.0555,4.1498,4.1931,4.2005,4.2204,4.2786,4.3156,4.3793,4.4892,4.5332,4.5863,4.661,4.6744,4.6878,4.7169,4.7232,4.7276,4.7302,4.7302,4.7341,4.7428,4.7428,4.749,4.7554,4.7717,4.7759,4.7759,4.7866,4.7909,4.7927,4.8455,4.8834,4.9161,5.0216,5.1355,5.2423,5.2696,5.2806,5.2783,5.2761,5.2721,5.2717,5.2604,5.2581,5.2559,5.2457,5.2428,5.2532,5.3213,5.3891,5.459,5.5323,5.5955,5.6482,5.6482,5.6355,5.6217,5.6123,5.6067,5.5982,5.5793,5.5718,5.5613,5.5502,5.5619,5.5764,5.5671,5.5613,5.5572,5.5472,5.5401,5.5282,5.5139,5.5066,5.4961,5.4838,5.4838,5.4776,5.4683,5.4463,5.4335,5.4335,5.411,5.3948,5.3816,5.3816,5.3651,5.323,5.3483,5.3463,5.3166,5.3346,5.3392,5.3321,5.3,5.3141,5.3688,5.3637,5.4064,0.0,0.0,0.0,0.0,0.0,0.0,3.4656,3.5535,3.6191,3.628,3.7024,3.7689,3.7781,3.8999,4.0442,4.1721,4.1966,4.1984,4.1984,4.2585,4.3085,4.3103,4.3798,4.4577,4.5386,4.5572,4.6006,4.689,4.7093,4.7187,4.7258,4.728,4.728,4.7298,4.7302,4.7302,4.7302,4.7428,4.749,4.749,4.7636,4.7678,4.7678,4.7678,4.8113,4.8855,4.8873,4.9873,5.1584,5.2401,5.2765,5.2783,5.2654,5.259,5.2586,5.2526,5.2498,5.2475,5.2335,5.2287,5.239,5.3068,5.3692,5.4343,5.5105,5.574,5.6197,5.6197,5.6049,5.5918,5.589,5.5793,5.5648,5.5507,5.5324,5.5169,5.5022,5.5252,5.5419,5.5229,5.5096,5.4992,5.4992,5.4992,5.4992,5.4992,5.4961,5.4838,5.4543,5.448,5.4353,5.4013,5.4014,5.4014,5.4014,5.4049,5.3884,5.3467,5.3467,5.3297,5.297,5.3638,5.3935,5.3723,5.4219,5.4394,5.4223,5.3667,5.3684,5.4201,5.4554,5.4858,3.0708,0.0,0.0,0.0,0.0,0.0,3.3747,3.4622,3.5429,3.5981,3.6298,3.6711,3.7456,3.7927,3.8747,4.0355,4.1063,4.1475,4.167,4.1886,4.2269,4.301,4.3297,4.374,4.4559,4.467,4.5035,4.5856,4.595,4.6227,4.6765,4.6962,4.7116,4.7223,4.7276,4.7302,4.7302,4.7341,4.7363,4.7363,4.7385,4.7407,4.7407,4.7407,4.7576,4.7933,4.8511,4.9104,4.9742,5.1143,5.2068,5.2572,5.2549,5.2526,5.2508,5.2405,5.2358,5.2335,5.2198,5.215,5.2162,5.2274,5.315,5.4202,5.4224,5.5168,5.6169,5.6021,5.5947,5.5861,5.5666,5.5472,5.5289,5.5174,5.5113,5.5053,5.5022,5.4869,5.4838,5.5005,5.5022,5.4944,5.4821,5.4697,5.4589,5.446,5.435,5.4239,5.4143,5.4143,5.411,5.4013,5.421,5.4364,5.4364,5.4649,5.4759,5.4617,5.4617,5.451,5.4278,5.4333,5.4266,5.4064,5.4053,5.4301,5.4771,5.4087,5.4044,5.4571,5.4851,5.4936,0.0,0.0,0.0,0.0,0.0,0.0,3.2852,3.3888,3.4878,3.5347,3.5753,3.6177,3.6771,3.7136,3.7679,3.8674,3.9491,4.0314,4.1298,4.1431,4.1655,4.2228,4.2321,4.2642,4.352,4.3636,4.4016,4.4857,4.4956,4.5315,4.6094,4.6571,4.6865,4.6952,4.6985,4.7035,4.7098,4.7143,4.7187,4.7272,4.7298,4.7302,4.7302,4.7302,4.7323,4.7443,4.7911,4.8351,4.8814,4.9757,5.0846,5.1935,5.2214,5.2317,5.2317,5.2264,5.2216,5.2216,5.2054,5.2029,5.198,5.1783,5.2786,5.3983,5.3789,5.478,5.5954,5.5764,5.5631,5.5484,5.5341,5.5204,5.5066,5.4838,5.4776,5.4745,5.462,5.4431,5.4367,5.4714,5.4683,5.4557,5.4445,5.4593,5.472,5.4588,5.4698,5.4786,5.4736,5.4635,5.4551,5.4449,5.4614,5.4727,5.4727,5.4986,5.5038,5.4875,5.4839,5.4712,5.4452,5.4621,5.4634,5.4536,5.4522,5.4628,5.4931,5.447,5.4447,5.4867,5.492,5.4864,0.0,0.0,0.0,0.0,0.0,0.0,3.2051,3.325,3.4404,3.4597,3.5334,3.5954,3.5954,3.65,3.6995,3.708,3.7701,3.8843,4.0787,4.1041,4.1082,4.1192,4.1209,4.1533,4.2364,4.2549,4.2979,4.3849,4.4105,4.4544,4.5269,4.6035,4.6442,4.6466,4.6578,4.6661,4.6772,4.6888,4.702,4.7133,4.7187,4.7236,4.7236,4.7236,4.7258,4.7298,4.7298,4.7693,4.838,4.8448,4.9505,5.1128,5.1736,5.2012,5.2102,5.2084,5.2078,5.2054,5.1907,5.1833,5.1783,5.1556,5.2501,5.3753,5.3599,5.4557,5.5666,5.5507,5.5221,5.4992,5.4961,5.493,5.4869,5.4526,5.4448,5.4353,5.4045,5.3948,5.4047,5.4424,5.4312,5.4117,5.4067,5.4666,5.5144,5.511,5.5502,5.5771,5.5646,5.5469,5.5291,5.5094,5.5141,5.5155,5.5118,5.5185,5.5072,5.4684,5.4684,5.4512,5.4147,5.4737,5.5025,5.5025,5.5223,5.5155,5.4813,5.4729,5.4826,5.5031,5.4838,5.4613,0.0,0.0,0.0,0.0,0.0,0.0,3.1863,3.2727,3.3554,3.4163,3.4998,3.5611,3.5667,3.5875,3.627,3.6995,3.7217,3.7986,3.9813,4.0066,4.0343,4.1116,4.1209,4.1261,4.1441,4.1504,4.1858,4.2667,4.336,4.3874,4.4202,4.4964,4.5482,4.5705,4.6289,4.6613,4.6637,4.6661,4.6684,4.6725,4.6731,4.6801,4.6893,4.6893,4.7025,4.7223,4.7223,4.7339,4.7567,4.8106,4.9372,5.0939,5.1077,5.1527,5.2102,5.198,5.1882,5.1765,5.1632,5.1505,5.1402,5.135,5.2396,5.3572,5.3296,5.4272,5.5478,5.5191,5.5053,5.493,5.4652,5.4606,5.4494,5.4192,5.4078,5.4078,5.4013,5.375,5.3703,5.4364,5.4719,5.4786,5.4449,5.5076,5.5462,5.5127,5.519,5.5238,5.5219,5.5166,5.5094,5.4895,5.5244,5.5459,5.527,5.5644,5.5856,5.5778,5.5778,5.5739,5.566,5.5473,5.5337,5.5337,5.5049,5.4896,5.4813,5.4794,5.4694,5.4539,5.4497,5.4258,0.0,0.0,0.0,3.0338,0.0,0.0,0.0,3.215,3.3116,3.3567,3.4566,3.5406,3.5435,3.552,3.569,3.6146,3.6197,3.6678,3.8111,3.9054,3.9789,4.025,4.0612,4.0877,4.0948,4.1018,4.1244,4.1766,4.2555,4.3038,4.3156,4.3896,4.4581,4.5104,4.5527,4.5963,4.6405,4.6471,4.6525,4.659,4.659,4.6637,4.6684,4.6684,4.6754,4.6888,4.6888,4.6916,4.698,4.7303,4.82,4.9448,5.0264,5.1093,5.1765,5.1658,5.1556,5.1487,5.1428,5.135,5.1255,5.1105,5.2092,5.3278,5.2984,5.3969,5.5088,5.4824,5.4683,5.4557,5.4303,5.4239,5.4143,5.3783,5.37,5.3634,5.3484,5.3567,5.38,5.417,5.4913,5.5336,5.4895,5.5432,5.5864,5.5519,5.5725,5.5846,5.5771,5.5658,5.5544,5.5451,5.5683,5.5819,5.5702,5.5817,5.587,5.575,5.5645,5.5564,5.5458,5.5237,5.5056,5.4899,5.4597,5.4417,5.4306,5.4146,5.413,5.4242,5.413,5.3931,0.0,0.0,0.0,0.0,0.0,3.0396,0.0,0.0,0.0,3.295,0.0,0.0,0.0,0.0,0.0,3.5291,0.0,0.0,0.0,3.7861,0.0,3.9153,3.9843,4.0329,4.0443,4.0683,4.0894,4.1047,4.166,4.2048,4.2113,4.2849,4.3586,4.4244,4.4638,4.5215,4.5909,4.6165,4.635,4.6447,4.6471,4.6495,4.6501,4.6542,4.659,4.659,4.659,4.659,4.659,4.659,4.7068,4.7935,4.9458,5.0538,5.1241,5.128,5.1298,5.1272,5.1202,5.1176,5.1123,5.082,5.1763,5.3008,5.303,5.3823,5.4655,5.4448,5.4271,5.411,5.3948,5.3882,5.3783,5.3399,5.3298,5.323,5.2903,5.3384,5.3916,5.4031,5.4931,5.5609,5.5265,5.5766,5.6158,5.597,5.6316,5.6502,5.629,5.6109,5.599,5.5927,5.5927,5.5886,5.5846,5.5653,5.545,5.5303,5.5113,5.4964,5.4713,5.4629,5.4486,5.4226,5.4044,5.3888,5.3746,5.3524,5.3596,5.3958,5.3817,5.3599,0.0,0.0,0.0,0.0,3.0124,0.0,0.0,0.0,3.2482,3.2562,0.0,0.0,0.0,0.0,0.0,0.0,0.0,0.0,3.5455,3.6206,3.7152,3.8286,3.9091,3.9535,3.9535,4.0141,4.0541,4.0566,4.0651,4.0824,4.1056,4.1788,4.2334,4.2653,4.3983,4.4756,4.4868,4.5523,4.5871,4.5897,4.6023,4.613,4.6259,4.6357,4.6495,4.659,4.659,4.659,4.659,4.659,4.7068,4.7882,4.8739,4.9536,5.0358,5.1059,5.122,5.1105,5.0919,5.0793,5.064,5.0509,5.143,5.2795,5.3932,5.4293,5.4239,5.4078,5.4045,5.3948,5.3567,5.3467,5.3366,5.3041,5.2972,5.2903,5.2661,5.3066,5.3616,5.4092,5.4678,5.5205,5.5466,5.6024,5.6309,5.6113,5.6156,5.607,5.5797,5.5757,5.5612,5.5237,5.5196,5.5155,5.4964,5.4938,5.488,5.488,5.4854,5.4713,5.4454,5.4028,5.3742,5.3509,5.3465,5.3481,5.3437,5.3421,5.3421,5.3465,5.3481,5.3305,0.0,0.0,0.0,0.0,0.0,0.0,3.1355,0.0,3.2997,0.0,0.0,0.0,0.0,0.0,0.0,0.0,3.4899,0.0,0.0,0.0,3.6035,3.7057,0.0,3.8539,3.9125,3.9448,3.9861,4.0451,4.051,4.0558,4.0655,4.0947,4.1381,4.1926,4.3185,4.4039,4.4472,4.5362,4.5795,4.5795,4.5846,4.5922,4.5955,4.6048,4.608,4.6147,4.6147,4.6147,4.6147,4.6147,4.634,4.676,4.7952,4.9029,4.9951,5.0557,5.0747,5.0665,5.0592,5.0537,5.0593,5.124,5.1701,5.2327,5.3761,5.4143,5.4013,5.3733,5.3634,5.3567,5.3196,5.3093,5.3025,5.2642,5.2572,5.2566,5.2693,5.3222,5.3851,5.4377,5.4884,5.5254,5.531,5.5698,5.5934,5.5709,5.5588,5.5442,5.5196,5.5196,5.5113,5.4922,5.4781,5.4681,5.4555,5.4301,5.4173,5.4173,5.4044,5.3958,5.3797,5.364,5.3481,5.3377,5.3277,5.3144,5.2995,5.2846,5.2712,5.2608,5.3011,5.3115,3.2023,0.0,0.0,0.0,0.0,0.0,0.0,0.0,0.0,0.0,0.0,0.0,0.0,0.0,0.0,0.0,0.0,3.4667,0.0,3.4875,0.0,0.0,0.0,0.0,3.8494,3.8771,3.9183,3.9906,4.0169,4.0296,4.0387,4.0395,4.0675,4.1279,4.243,4.3305,4.3855,4.5001,4.5589,4.5589,4.5615,4.5641,4.5641,4.5718,4.5744,4.5744,4.5795,4.5795,4.5795,4.577,4.5744,4.5883,4.7332,4.8377,4.9176,5.0077,5.0387,5.0359,5.0285,5.02,5.0374,5.1658,5.1881,5.1904,5.3389,5.3816,5.3717,5.3366,5.323,5.3111,5.2817,5.2677,5.2572,5.2252,5.2109,5.2198,5.255,5.3155,5.3812,5.4347,5.4859,5.518,5.4931,5.5205,5.5409,5.5262,5.5056,5.4822,5.4629,5.4544,5.4502,5.4417,5.4258,5.4141,5.4141,5.3813,5.3596,5.3509,5.3305,5.3173,5.3113,5.304,5.304,5.304,5.2877,5.2713,5.2488,5.2322,5.2139,5.1987,5.2533,5.2713,0.0,0.0,0.0,3.1798,0.0,0.0,0.0,0.0,3.3129,0.0,0.0,0.0,0.0,0.0,0.0,0.0,0.0,0.0,0.0,0.0,0.0,0.0,0.0,0.0,0.0,3.8196,3.8648,3.8665,3.9301,3.9833,4.0096,4.0096,4.0238,4.0544,4.1937,4.2723,4.274,4.4253,4.5032,4.5032,4.5167,4.5203,4.523,4.5494,4.5606,4.5606,4.5727,4.5795,4.5795,4.5675,4.5606,4.5736,4.6952,4.7442,4.7705,4.9673,5.0331,5.0189,4.9982,4.9737,4.9757,5.123,5.1631,5.1762,5.301,5.3349,5.3179,5.2972,5.2782,5.259,5.2378,5.2164,5.2,5.1851,5.1684,5.1657,5.2128,5.2647,5.3158,5.3646,5.4301,5.4755,5.4454,5.4655,5.4813,5.4813,5.4597,5.437,5.4146,5.3915,5.364,5.3465,5.3421,5.3421,5.3421,5.3421,5.329,5.3053,5.2817,5.2608,5.2352,5.2155,5.2033,5.2033,5.2048,5.2033,5.2033,5.1987,5.2002,5.2002,5.2033,5.2033,3.3188,3.3131,3.3056,3.3056,0.0,0.0,0.0,0.0,0.0,0.0,0.0,0.0,0.0,0.0,0.0,0.0,0.0,0.0,0.0,0.0,0.0,0.0,0.0,0.0,0.0,3.6819,3.7444,3.8522,3.8824,3.9226,3.9799,3.9833,3.9884,3.9986,4.1009,4.1848,4.2419,4.3571,4.4429,4.5005,4.5059,4.5059,4.5059,4.515,4.5203,4.522,4.5247,4.5274,4.5274,4.522,4.5486,4.6008,4.6936,4.7581,4.8191,4.9377,4.9784,4.9725,4.9649,4.9411,4.9392,5.0886,5.1185,5.1243,5.2656,5.2956,5.2782,5.2572,5.2359,5.2181,5.2017,5.1798,5.1631,5.1445,5.1577,5.192,5.2411,5.2917,5.3417,5.3851,5.4014,5.4001,5.377,5.3813,5.3915,5.4044,5.3899,5.3726,5.3655,5.3552,5.3421,5.3157,5.2995,5.2862,5.2712,5.2548,5.2427,5.2337,5.2246,5.2216,5.2124,5.2033,5.2002,5.2002,5.2002,5.1895,5.1741,5.1741,5.1649,5.1463,5.1463,5.1649,3.3853,3.3895,3.3936,3.368,3.3668,0.0,3.3694,0.0,3.372,0.0,0.0,0.0,0.0,0.0,0.0,0.0,0.0,0.0,0.0,3.4201,0.0,0.0,0.0,0.0,0.0,3.5786,3.6539,3.7843,3.8227,3.8744,3.9513,3.9599,3.9651,3.9703,4.0503,4.1305,4.2142,4.302,4.3847,4.4676,4.4676,4.4676,4.4676,4.4731,4.4759,4.4759,4.4797,4.4824,4.4824,4.4786,4.5173,4.5909,4.661,4.7373,4.8137,4.9048,4.932,4.9199,4.9168,4.8984,4.9051,5.0551,5.076,5.0776,5.2244,5.2501,5.2288,5.2145,5.1928,5.1688,5.1594,5.1371,5.1162,5.0994,5.1257,5.171,5.2323,5.2752,5.3181,5.3746,5.364,5.3377,5.3173,5.3069,5.3113,5.3421,5.3305,5.3129,5.3024,5.2935,5.2817,5.2667,5.2518,5.2382,5.2231,5.1972,5.1849,5.1695,5.1649,5.1556,5.1478,5.1478,5.1478,5.1478,5.1478,5.1385,5.1229,5.1229,5.1135,5.0947,5.0947,5.115]}]]